[[{"header":{"parameterUnit":"m.s-1","parameterCategory":1,"la1":31.0,"la2":29.5877,"lo1":-88.7671,"lo2":-86.6584,"dy":0.0162,"dx":0.0185,"nx":115,"ny":88,"refTime":"2026-04-25T12:00:00:Z","depth":0,"parameterNumber":2,"parameterNumberName":"U-component_of_WINDS"},"data":[0.0,0.0,0.0,0.0,0.0,0.0,0.0,0.0,0.0,0.0,0.0,0.0,0.0,0.0,0.0,0.0,0.0,0.0,0.0,0.0,0.0,0.0,0.0,0.0,0.0,0.0,0.0,0.0,0.0,0.0,0.0,0.0,0.0,0.0,0.0,0.0,0.0,0.0,0.0,0.0,0.0,0.0,0.0,0.0,0.0,0.0,0.0,0.0,0.0,0.0,0.0,0.0,0.0,0.0,0.0,0.0,0.0,0.0,0.0,0.0,0.0,0.0,0.0,0.0,0.0,0.0,0.0,0.0,0.0,0.0,0.0,0.0,0.0,0.0,0.0,0.0,0.0,0.0,0.0,0.0,0.0,0.0,0.0,0.0,0.0,0.0,0.0,0.0,0.0,0.0,0.0,0.0,0.0,0.0,0.0,0.0,0.0,0.0,0.0,0.0,0.0,0.0,0.0,0.0,0.0,0.0,0.0,0.0,0.0,0.0,0.0,0.0,0.0,0.0,0.0,0.0,0.0,0.0,0.0,0.0,0.0,0.0,0.0,0.0,0.0,0.0,0.0,0.0,0.0,0.0,0.0,0.0,0.0,0.0,0.0,0.0,0.0,0.0,0.0,0.0,0.0,0.0,0.0,0.0,0.0,0.0,0.0,0.0,0.0,0.0,0.0,0.0,0.0,0.0,0.0,0.0,0.0,0.0,0.0,0.0,0.0,0.0,0.0,0.0,0.0,0.0,0.0,0.0,0.0,0.0,0.0,0.0,0.0,0.0,0.0,0.0,0.0,0.0,0.0,0.0,0.0,0.0,0.0,0.0,0.0,0.0,0.0,0.0,0.0,0.0,0.0,0.0,0.0,0.0,0.0,0.0,0.0,0.0,0.0,0.0,0.0,0.0,0.0,0.0,0.0,0.0,0.0,0.0,0.0,0.0,0.0,0.0,0.0,0.0,0.0,0.0,0.0,0.0,0.0,0.0,0.0,0.0,0.0,0.0,0.0,0.0,0.0,0.0,0.0,0.0,0.0,0.0,0.0,0.0,0.0,0.0,0.0,0.0,0.0,0.0,0.0,0.0,0.0,0.0,0.0,0.0,0.0,0.0,0.0,0.0,0.0,0.0,0.0,0.0,0.0,0.0,0.0,0.0,0.0,0.0,0.0,0.0,0.0,0.0,0.0,0.0,0.0,0.0,0.0,0.0,0.0,0.0,0.0,0.0,0.0,0.0,0.0,0.0,0.0,0.0,0.0,0.0,0.0,0.0,0.0,0.0,0.0,0.0,0.0,0.0,0.0,0.0,0.0,0.0,0.0,0.0,0.0,0.0,0.0,0.0,0.0,0.0,0.0,0.0,0.0,0.0,0.0,0.0,0.0,0.0,0.0,0.0,0.0,0.0,0.0,0.0,0.0,0.0,0.0,0.0,0.0,0.0,0.0,0.0,0.0,0.0,0.0,0.0,0.0,0.0,0.0,0.0,0.0,0.0,0.0,0.0,0.0,0.0,0.0,0.0,0.0,0.0,0.0,0.0,0.0,0.0,0.0,0.0,0.0,0.0,0.0,0.0,0.0,0.0,0.0,0.0,0.0,0.0,0.0,0.0,0.0,0.0,0.0,0.0,0.0,0.0,0.0,0.0,0.0,0.0,0.0,0.0,0.0,0.0,0.0,0.0,0.0,0.0,0.0,0.0,0.0,0.0,0.0,0.0,0.0,0.0,0.0,0.0,0.0,0.0,0.0,0.0,0.0,0.0,0.0,0.0,0.0,0.0,0.0,0.0,0.0,0.0,0.0,0.0,0.0,0.0,0.0,0.0,0.0,0.0,0.0,0.0,0.0,0.0,0.0,0.0,0.0,0.0,0.0,0.0,0.0,0.0,0.0,0.0,0.0,0.0,0.0,0.0,0.0,0.0,0.0,0.0,0.0,0.0,0.0,0.0,0.0,0.0,0.0,0.0,0.0,0.0,0.0,0.0,0.0,0.0,0.0,0.0,0.0,0.0,0.0,0.0,0.0,0.0,0.0,0.0,0.0,0.0,0.0,0.0,0.0,0.0,0.0,0.0,0.0,0.0,0.0,0.0,0.0,0.0,0.0,0.0,0.0,0.0,0.0,0.0,0.0,0.0,0.0,0.0,0.0,0.0,0.0,0.0,0.0,0.0,0.0,0.0,0.0,0.0,0.0,0.0,0.0,0.0,0.0,0.0,0.0,0.0,0.0,0.0,0.0,0.0,0.0,0.0,0.0,0.0,0.0,0.0,0.0,0.0,0.0,0.0,0.0,0.0,0.0,0.0,0.0,0.0,0.0,0.0,0.0,0.0,0.0,0.0,0.0,0.0,0.0,0.0,0.0,0.0,0.0,0.0,0.0,0.0,0.0,0.0,0.0,0.0,0.0,0.0,0.0,0.0,0.0,0.0,0.0,0.0,0.0,0.0,0.0,0.0,0.0,0.0,0.0,0.0,0.0,0.0,0.0,0.0,0.0,0.0,0.0,0.0,0.0,0.0,0.0,0.0,0.0,0.0,0.0,0.0,0.0,0.0,0.0,0.0,0.0,0.0,0.0,0.0,0.0,0.0,0.0,0.0,0.0,0.0,0.0,0.0,0.0,0.0,0.0,0.0,0.0,0.0,0.0,0.0,0.0,0.0,0.0,0.0,0.0,0.0,0.0,0.0,0.0,0.0,0.0,0.0,0.0,0.0,0.0,0.0,0.0,0.0,0.0,0.0,0.0,0.0,0.0,0.0,0.0,0.0,0.0,0.0,0.0,0.0,0.0,0.0,0.0,0.0,0.0,0.0,0.0,0.0,0.0,0.0,0.0,0.0,0.0,0.0,0.0,0.0,0.0,0.0,0.0,0.0,0.0,0.0,0.0,0.0,0.0,0.0,0.0,0.0,0.0,0.0,0.0,0.0,0.0,0.0,0.0,0.0,0.0,0.0,0.0,0.0,0.0,0.0,0.0,0.0,0.0,0.0,0.0,0.0,0.0,0.0,0.0,0.0,0.0,0.0,0.0,0.0,0.0,0.0,0.0,0.0,0.0,0.0,0.0,0.0,0.0,0.0,0.0,0.0,0.0,0.0,0.0,0.0,0.0,0.0,0.0,0.0,0.0,0.0,0.0,0.0,0.0,0.0,0.0,0.0,0.0,0.0,0.0,0.0,0.0,0.0,0.0,0.0,0.0,0.0,0.0,0.0,0.0,0.0,0.0,0.0,0.0,0.0,0.0,0.0,0.0,0.0,0.0,0.0,0.0,0.0,0.0,0.0,0.0,0.0,0.0,0.0,0.0,0.0,0.0,0.0,0.0,0.0,0.0,0.0,0.0,0.0,0.0,0.0,0.0,0.0,0.0,0.0,0.0,0.0,0.0,0.0,0.0,0.0,0.0,0.0,0.0,0.0,0.0,0.0,0.0,0.0,0.0,0.0,0.0,0.0,0.0,0.0,0.0,0.0,0.0,0.0,0.0,0.0,0.0,0.0,0.0,0.0,0.0,0.0,0.0,0.0,0.0,0.0,0.0,0.0,0.0,0.0,0.0,0.0,0.0,0.0,0.0,0.0,0.0,0.0,0.0,0.0,0.0,0.0,0.0,0.0,0.0,0.0,0.0,0.0,0.0,0.0,0.0,0.0,0.0,0.0,0.0,0.0,0.0,0.0,0.0,0.0,0.0,0.0,0.0,0.0,0.0,0.0,0.0,0.0,0.0,0.0,0.0,0.0,0.0,0.0,0.0,0.0,0.0,0.0,0.0,0.0,0.0,0.0,0.0,0.0,0.0,0.0,0.0,0.0,0.0,0.0,0.0,0.0,0.0,0.0,0.0,0.0,0.0,0.0,0.0,0.0,0.0,0.0,0.0,0.0,0.0,0.0,0.0,0.0,0.0,0.0,0.0,0.0,0.0,0.0,0.0,0.0,0.0,0.0,0.0,0.0,0.0,0.0,0.0,0.0,0.0,0.0,0.0,0.0,0.0,0.0,0.0,0.0,0.0,0.0,0.0,0.0,0.0,0.0,0.0,0.0,0.0,0.0,0.0,0.0,0.0,0.0,0.0,0.0,0.0,0.0,0.0,0.0,0.0,0.0,0.0,0.0,0.0,0.0,0.0,0.0,0.0,0.0,0.0,0.0,0.0,0.0,0.0,0.0,0.0,0.0,0.0,0.0,0.0,0.0,0.0,0.0,0.0,0.0,0.0,0.0,0.0,0.0,0.0,0.0,0.0,0.0,0.0,0.0,0.0,0.0,0.0,0.0,0.0,0.0,0.0,0.0,0.0,0.0,0.0,0.0,2.419,0.0,0.0,0.0,0.0,0.0,0.0,0.0,0.0,0.0,0.0,0.0,0.0,0.0,0.0,0.0,0.0,0.0,0.0,0.0,0.0,0.0,0.0,0.0,0.0,0.0,0.0,0.0,0.0,0.0,0.0,0.0,0.0,0.0,0.0,0.0,0.0,0.0,0.0,0.0,0.0,0.0,0.0,0.0,0.0,0.0,0.0,0.0,0.0,0.0,0.0,0.0,0.0,0.0,0.0,0.0,0.0,0.0,0.0,0.0,0.0,0.0,0.0,0.0,0.0,0.0,0.0,0.0,0.0,0.0,0.0,0.0,0.0,0.0,0.0,0.0,0.0,0.0,0.0,0.0,0.0,0.0,0.0,0.0,0.0,0.0,0.0,0.0,0.0,0.0,0.0,0.0,0.0,0.0,0.0,0.0,0.0,0.0,0.0,0.0,0.0,0.0,0.0,0.0,0.0,0.0,0.0,0.0,0.0,0.0,0.0,2.419,2.419,2.419,2.419,2.419,0.0,0.0,0.0,0.0,0.0,0.0,0.0,0.0,0.0,0.0,0.0,0.0,0.0,0.0,0.0,0.0,0.0,0.0,0.0,0.0,0.0,0.0,0.0,0.0,0.0,0.0,0.0,0.0,0.0,0.0,0.0,0.0,0.0,0.0,0.0,0.0,0.0,0.0,0.0,0.0,0.0,0.0,0.0,0.0,0.0,0.0,0.0,0.0,0.0,0.0,0.0,0.0,0.0,0.0,0.0,0.0,0.0,0.0,0.0,0.0,0.0,0.0,0.0,0.0,0.0,0.0,0.0,0.0,0.0,0.0,0.0,0.0,0.0,0.0,0.0,0.0,0.0,0.0,0.0,0.0,0.0,0.0,0.0,0.0,0.0,0.0,0.0,0.0,0.0,0.0,0.0,0.0,0.0,0.0,0.0,0.0,0.0,0.0,0.0,0.0,0.0,0.0,0.0,0.0,0.0,0.0,0.0,0.0,0.0,0.0,0.0,0.0,2.4465,2.4281,2.3895,0.0,0.0,0.0,0.0,0.0,0.0,0.0,0.0,0.0,0.0,0.0,0.0,0.0,0.0,0.0,0.0,0.0,0.0,0.0,0.0,0.0,0.0,0.0,0.0,0.0,0.0,0.0,0.0,0.0,0.0,0.0,0.0,0.0,0.0,0.0,0.0,0.0,0.0,0.0,0.0,0.0,0.0,0.0,0.0,0.0,0.0,0.0,0.0,0.0,0.0,0.0,0.0,0.0,0.0,0.0,0.0,0.0,0.0,0.0,0.0,0.0,0.0,0.0,0.0,0.0,0.0,0.0,0.0,0.0,0.0,0.0,0.0,0.0,0.0,0.0,0.0,0.0,0.0,0.0,0.0,0.0,0.0,0.0,0.0,0.0,0.0,0.0,0.0,0.0,0.0,0.0,0.0,0.0,0.0,0.0,0.0,0.0,0.0,0.0,0.0,0.0,0.0,0.0,0.0,0.0,0.0,0.0,0.0,0.0,0.0,2.5311,2.5311,2.5293,0.0,2.3086,0.0,0.0,0.0,0.0,0.0,0.0,0.0,0.0,0.0,0.0,0.0,0.0,0.0,0.0,0.0,0.0,0.0,0.0,0.0,0.0,0.0,0.0,0.0,0.0,0.0,0.0,0.0,0.0,0.0,0.0,0.0,0.0,0.0,0.0,0.0,0.0,0.0,0.0,0.0,0.0,0.0,0.0,0.0,0.0,0.0,0.0,0.0,0.0,0.0,0.0,0.0,0.0,0.0,0.0,0.0,0.0,0.0,0.0,0.0,0.0,0.0,0.0,0.0,0.0,0.0,0.0,0.0,0.0,0.0,0.0,0.0,0.0,0.0,0.0,0.0,0.0,0.0,0.0,0.0,0.0,0.0,0.0,0.0,0.0,0.0,0.0,0.0,0.0,0.0,0.0,0.0,0.0,0.0,0.0,0.0,0.0,0.0,0.0,0.0,0.0,0.0,0.0,0.0,0.0,0.0,0.0,0.0,0.0,0.0,0.0,2.5642,2.6098,2.564,2.4811,0.0,0.0,0.0,0.0,0.0,0.0,0.0,0.0,0.0,0.0,0.0,0.0,0.0,0.0,0.0,0.0,0.0,0.0,0.0,0.0,0.0,0.0,0.0,0.0,0.0,0.0,0.0,0.0,0.0,0.0,0.0,0.0,0.0,0.0,0.0,0.0,0.0,0.0,0.0,0.0,0.0,0.0,0.0,0.0,0.0,0.0,0.0,0.0,0.0,0.0,0.0,0.0,0.0,0.0,0.0,0.0,0.0,0.0,0.0,0.0,0.0,0.0,0.0,0.0,0.0,0.0,0.0,0.0,0.0,0.0,0.0,0.0,0.0,0.0,0.0,0.0,0.0,0.0,0.0,0.0,0.0,0.0,0.0,0.0,0.0,0.0,0.0,0.0,0.0,0.0,0.0,0.0,0.0,0.0,0.0,0.0,0.0,0.0,0.0,0.0,0.0,0.0,0.0,0.0,0.0,0.0,0.0,0.0,0.0,0.0,2.4979,2.5658,2.6209,2.5695,2.4756,2.3394,0.0,0.0,0.0,0.0,0.0,0.0,0.0,0.0,0.0,0.0,0.0,0.0,0.0,0.0,0.0,0.0,0.0,0.0,0.0,0.0,0.0,0.0,0.0,0.0,0.0,0.0,0.0,0.0,0.0,0.0,0.0,0.0,0.0,0.0,0.0,0.0,0.0,0.0,0.0,0.0,0.0,0.0,0.0,0.0,0.0,0.0,0.0,0.0,0.0,0.0,0.0,0.0,0.0,0.0,0.0,0.0,0.0,0.0,0.0,0.0,0.0,0.0,0.0,0.0,0.0,0.0,0.0,0.0,0.0,0.0,0.0,0.0,0.0,0.0,0.0,0.0,0.0,0.0,0.0,0.0,0.0,0.0,0.0,0.0,0.0,0.0,0.0,0.0,0.0,0.0,0.0,0.0,0.0,0.0,0.0,0.0,0.0,0.0,0.0,0.0,0.0,0.0,0.0,0.0,0.0,0.0,0.0,0.0,0.0,2.5017,2.5439,2.5456,2.5421,2.4224,0.0,0.0,0.0,0.0,0.0,0.0,0.0,0.0,0.0,0.0,0.0,0.0,0.0,0.0,0.0,0.0,0.0,0.0,0.0,0.0,0.0,0.0,0.0,0.0,0.0,0.0,0.0,0.0,0.0,0.0,0.0,0.0,0.0,0.0,0.0,0.0,0.0,0.0,0.0,0.0,0.0,0.0,0.0,0.0,0.0,0.0,0.0,0.0,0.0,0.0,0.0,0.0,0.0,0.0,0.0,0.0,0.0,0.0,0.0,0.0,0.0,0.0,0.0,0.0,0.0,0.0,0.0,0.0,0.0,0.0,0.0,0.0,0.0,0.0,0.0,0.0,0.0,0.0,0.0,0.0,0.0,0.0,0.0,0.0,0.0,0.0,0.0,0.0,0.0,0.0,0.0,0.0,0.0,0.0,0.0,0.0,0.0,0.0,0.0,0.0,0.0,0.0,0.0,0.0,0.0,0.0,0.0,0.0,0.0,2.4263,2.5493,2.5915,2.5421,2.4887,2.3694,0.0,0.0,0.0,0.0,0.0,0.0,0.0,0.0,0.0,0.0,0.0,0.0,0.0,0.0,0.0,0.0,0.0,0.0,0.0,0.0,0.0,0.0,0.0,0.0,0.0,0.0,0.0,0.0,0.0,0.0,0.0,0.0,0.0,0.0,0.0,0.0,0.0,0.0,0.0,0.0,0.0,0.0,0.0,0.0,0.0,0.0,0.0,0.0,0.0,0.0,0.0,0.0,0.0,0.0,0.0,0.0,0.0,0.0,0.0,0.0,0.0,0.0,0.0,0.0,0.0,0.0,0.0,0.0,0.0,0.0,0.0,0.0,0.0,0.0,0.0,0.0,0.0,0.0,0.0,0.0,0.0,0.0,0.0,0.0,0.0,0.0,0.0,0.0,0.0,0.0,0.0,0.0,0.0,0.0,0.0,0.0,0.0,0.0,0.0,0.0,0.0,0.0,0.0,0.0,0.0,0.0,0.0,0.0,0.0,2.4612,0.0,2.6484,0.0,2.4612,2.34,0.0,0.0,0.0,0.0,0.0,0.0,0.0,0.0,0.0,0.0,0.0,0.0,0.0,0.0,0.0,0.0,0.0,0.0,0.0,0.0,0.0,0.0,0.0,0.0,0.0,0.0,0.0,0.0,0.0,0.0,0.0,0.0,0.0,0.0,0.0,0.0,0.0,0.0,0.0,0.0,0.0,0.0,0.0,0.0,0.0,0.0,0.0,0.0,0.0,0.0,0.0,0.0,0.0,0.0,0.0,0.0,0.0,0.0,0.0,0.0,0.0,0.0,0.0,0.0,0.0,0.0,0.0,0.0,0.0,0.0,0.0,0.0,0.0,0.0,0.0,0.0,0.0,0.0,0.0,0.0,0.0,0.0,0.0,0.0,0.0,0.0,0.0,0.0,0.0,0.0,0.0,0.0,0.0,0.0,0.0,0.0,0.0,0.0,0.0,0.0,0.0,0.0,0.0,0.0,0.0,0.0,0.0,0.0,2.4667,2.5458,2.6961,2.7053,2.5495,2.4667,2.3418,0.0,0.0,0.0,0.0,0.0,0.0,0.0,0.0,0.0,0.0,0.0,0.0,0.0,0.0,0.0,0.0,0.0,0.0,0.0,0.0,0.0,0.0,0.0,0.0,0.0,0.0,0.0,0.0,0.0,0.0,0.0,0.0,0.0,0.0,0.0,0.0,0.0,0.0,0.0,0.0,0.0,0.0,0.0,0.0,0.0,0.0,0.0,0.0,0.0,0.0,0.0,0.0,0.0,0.0,0.0,0.0,0.0,0.0,0.0,0.0,0.0,0.0,0.0,0.0,0.0,0.0,0.0,0.0,0.0,0.0,0.0,0.0,0.0,0.0,0.0,0.0,0.0,0.0,0.0,0.0,0.0,0.0,0.0,0.0,0.0,0.0,0.0,0.0,0.0,0.0,0.0,0.0,0.0,0.0,0.0,0.0,0.0,0.0,0.0,0.0,0.0,0.0,0.0,0.0,0.0,0.0,0.0,0.0,0.0,2.709,2.8099,2.7879,2.6282,2.5438,2.4244,0.0,0.0,0.0,0.0,0.0,0.0,0.0,0.0,0.0,0.0,0.0,0.0,0.0,0.0,0.0,0.0,0.0,0.0,0.0,0.0,0.0,0.0,0.0,0.0,0.0,0.0,0.0,0.0,0.0,0.0,0.0,0.0,0.0,0.0,0.0,0.0,0.0,0.0,0.0,0.0,0.0,0.0,0.0,0.0,0.0,0.0,0.0,0.0,0.0,0.0,0.0,0.0,0.0,0.0,0.0,0.0,0.0,0.0,0.0,0.0,0.0,0.0,0.0,0.0,0.0,0.0,0.0,0.0,0.0,0.0,0.0,0.0,0.0,0.0,0.0,0.0,0.0,0.0,0.0,0.0,0.0,0.0,0.0,0.0,0.0,0.0,0.0,0.0,0.0,0.0,0.0,0.0,0.0,0.0,0.0,0.0,0.0,0.0,0.0,0.0,0.0,0.0,0.0,0.0,0.0,0.0,0.0,0.0,0.0,3.0026,3.054,2.9879,2.7989,2.6869,2.5362,2.3378,0.0,0.0,0.0,0.0,0.0,0.0,0.0,0.0,0.0,0.0,0.0,0.0,0.0,0.0,0.0,0.0,0.0,0.0,0.0,0.0,0.0,0.0,0.0,0.0,0.0,0.0,0.0,0.0,0.0,0.0,0.0,0.0,0.0,0.0,0.0,0.0,0.0,0.0,0.0,0.0,0.0,0.0,0.0,0.0,0.0,0.0,0.0,0.0,0.0,0.0,0.0,0.0,0.0,0.0,0.0,0.0,0.0,0.0,0.0,0.0,0.0,0.0,0.0,0.0,0.0,0.0,0.0,0.0,0.0,0.0,0.0,0.0,0.0,0.0,0.0,0.0,0.0,0.0,0.0,0.0,0.0,0.0,0.0,0.0,0.0,0.0,0.0,0.0,0.0,0.0,0.0,0.0,0.0,0.0,0.0,0.0,0.0,0.0,0.0,0.0,0.0,0.0,0.0,0.0,0.0,0.0,0.0,0.0,3.388,3.4064,3.2944,3.0467,2.8796,2.6753,0.0,0.0,0.0,0.0,0.0,0.0,0.0,0.0,0.0,0.0,0.0,0.0,0.0,0.0,0.0,0.0,0.0,0.0,0.0,0.0,0.0,0.0,0.0,0.0,0.0,0.0,0.0,0.0,0.0,0.0,0.0,0.0,0.0,0.0,0.0,0.0,0.0,0.0,0.0,0.0,0.0,0.0,0.0,0.0,0.0,0.0,0.0,0.0,0.0,0.0,0.0,0.0,0.0,0.0,0.0,0.0,0.0,0.0,0.0,0.0,0.0,0.0,0.0,0.0,0.0,0.0,0.0,0.0,0.0,0.0,0.0,0.0,0.0,0.0,0.0,0.0,0.0,0.0,0.0,0.0,0.0,0.0,0.0,0.0,0.0,0.0,0.0,0.0,0.0,0.0,0.0,0.0,0.0,0.0,0.0,0.0,0.0,0.0,0.0,0.0,0.0,0.0,0.0,0.0,0.0,0.0,0.0,0.0,0.0,3.5532,3.7367,3.6578,3.2981,3.0723,2.8659,0.0,0.0,0.0,0.0,0.0,0.0,0.0,0.0,0.0,0.0,0.0,0.0,0.0,0.0,0.0,0.0,0.0,0.0,0.0,0.0,0.0,0.0,0.0,0.0,0.0,0.0,0.0,0.0,0.0,0.0,0.0,0.0,0.0,0.0,0.0,0.0,0.0,0.0,0.0,0.0,0.0,0.0,0.0,0.0,0.0,0.0,0.0,0.0,0.0,0.0,0.0,0.0,0.0,0.0,0.0,0.0,0.0,0.0,0.0,0.0,0.0,0.0,0.0,0.0,0.0,0.0,0.0,0.0,0.0,0.0,0.0,0.0,0.0,0.0,0.0,0.0,0.0,0.0,0.0,0.0,0.0,0.0,0.0,0.0,0.0,0.0,0.0,0.0,0.0,0.0,0.0,0.0,0.0,0.0,0.0,0.0,0.0,0.0,0.0,0.0,0.0,0.0,0.0,0.0,0.0,0.0,0.0,0.0,3.3495,3.6743,3.9148,3.8946,3.5936,3.3183,3.0748,0.0,0.0,0.0,0.0,0.0,0.0,0.0,0.0,0.0,0.0,0.0,0.0,0.0,0.0,0.0,0.0,0.0,0.0,0.0,0.0,0.0,0.0,0.0,0.0,0.0,0.0,0.0,0.0,0.0,0.0,0.0,0.0,0.0,0.0,0.0,0.0,0.0,0.0,0.0,0.0,0.0,0.0,0.0,0.0,0.0,0.0,0.0,0.0,0.0,0.0,0.0,0.0,0.0,0.0,0.0,0.0,0.0,0.0,0.0,0.0,0.0,0.0,0.0,0.0,0.0,0.0,0.0,0.0,0.0,0.0,0.0,0.0,0.0,0.0,0.0,0.0,0.0,0.0,0.0,0.0,0.0,0.0,0.0,0.0,0.0,0.0,0.0,0.0,0.0,0.0,0.0,0.0,0.0,0.0,0.0,0.0,0.0,0.0,0.0,0.0,0.0,0.0,0.0,0.0,0.0,0.0,0.0,0.0,3.433,3.7661,3.9997,4.0529,3.9025,3.5734,3.2727,0.0,0.0,0.0,0.0,0.0,0.0,0.0,0.0,0.0,0.0,0.0,0.0,0.0,0.0,0.0,0.0,0.0,0.0,0.0,0.0,0.0,0.0,0.0,0.0,0.0,0.0,0.0,0.0,0.0,0.0,0.0,0.0,0.0,0.0,0.0,0.0,0.0,0.0,0.0,0.0,0.0,0.0,0.0,0.0,0.0,0.0,0.0,0.0,0.0,0.0,0.0,0.0,0.0,0.0,0.0,0.0,0.0,0.0,0.0,0.0,0.0,0.0,0.0,0.0,0.0,0.0,0.0,0.0,0.0,0.0,0.0,0.0,0.0,0.0,0.0,0.0,0.0,0.0,0.0,0.0,0.0,0.0,0.0,0.0,0.0,0.0,0.0,0.0,0.0,0.0,0.0,0.0,0.0,0.0,0.0,0.0,0.0,0.0,0.0,0.0,0.0,0.0,0.0,0.0,0.0,0.0,0.0,0.0,3.5287,3.9067,4.0896,4.1645,4.1298,3.704,3.3542,0.0,0.0,0.0,0.0,0.0,0.0,0.0,0.0,0.0,0.0,0.0,0.0,0.0,0.0,0.0,0.0,0.0,0.0,0.0,0.0,0.0,0.0,0.0,0.0,0.0,0.0,0.0,0.0,0.0,0.0,0.0,0.0,0.0,0.0,0.0,0.0,0.0,0.0,0.0,0.0,0.0,0.0,0.0,0.0,0.0,0.0,0.0,0.0,1.4949,0.0,0.0,0.0,0.0,0.0,0.0,0.0,0.0,0.0,0.0,0.0,0.0,0.0,0.0,0.0,0.0,0.0,0.0,0.0,0.0,0.0,0.0,0.0,0.0,0.0,0.0,0.0,0.0,0.0,0.0,0.0,0.0,0.0,0.0,0.0,0.0,0.0,0.0,0.0,0.0,0.0,0.0,0.0,0.0,0.0,0.0,0.0,0.0,0.0,0.0,0.0,0.0,0.0,0.0,0.0,0.0,0.0,0.0,0.0,3.5872,3.9048,4.1069,4.1917,4.143,3.8757,3.5838,0.0,0.0,0.0,0.0,0.0,0.0,0.0,0.0,0.0,0.0,0.0,0.0,0.0,0.0,0.0,0.0,0.0,0.0,0.0,0.0,0.0,0.0,0.0,0.0,0.0,0.0,0.0,0.0,0.0,0.0,0.0,0.0,0.0,0.0,0.0,0.0,0.0,0.0,0.0,0.0,0.0,0.0,0.0,0.0,0.0,0.0,0.0,0.0,0.0,0.0,0.0,0.0,0.0,0.0,0.0,0.0,0.0,0.0,0.0,0.0,0.0,0.0,0.0,0.0,0.0,0.0,0.0,0.0,0.0,0.0,0.0,0.0,0.0,0.0,0.0,0.0,0.0,0.0,0.0,0.0,0.0,0.0,0.0,0.0,0.0,0.0,0.0,0.0,0.0,0.0,0.0,0.0,0.0,0.0,0.0,0.0,0.0,0.0,0.0,0.0,0.0,0.0,0.0,0.0,0.0,0.0,0.0,3.3937,3.6559,3.8892,4.1029,4.1782,4.0958,4.0085,3.7952,3.4461,0.0,0.0,0.0,0.0,0.0,0.0,0.0,0.0,0.0,0.0,0.0,0.0,0.0,0.0,0.0,0.0,0.0,0.0,0.0,0.0,0.0,0.0,0.0,0.0,0.0,0.0,0.0,0.0,0.0,0.0,0.0,0.0,0.0,0.0,0.0,0.0,0.0,0.0,1.4455,1.6473,0.0,0.0,0.0,0.0,0.0,0.0,0.0,0.0,1.559,0.0,0.0,0.0,0.0,0.0,0.0,0.0,0.0,0.0,0.0,0.0,0.0,0.0,0.0,0.0,0.0,0.0,0.0,0.0,0.0,0.0,0.0,0.0,0.0,0.0,0.0,0.0,0.0,0.0,0.0,0.0,0.0,0.0,0.0,0.0,0.0,0.0,0.0,0.0,0.0,0.0,0.0,0.0,0.0,0.0,0.0,0.0,0.0,0.0,0.0,0.0,0.0,0.0,0.0,0.0,0.0,3.2328,3.5332,3.8022,4.0306,4.1392,4.1594,4.0831,3.939,3.7066,3.3881,0.0,0.0,0.0,0.0,0.0,0.0,0.0,0.0,0.0,0.0,0.0,0.0,0.0,0.0,0.0,0.0,0.0,0.0,0.0,0.0,0.0,0.0,0.0,0.0,0.0,0.0,0.0,0.0,0.0,0.0,0.0,0.0,0.0,0.0,0.0,0.0,0.0,0.0,0.0,1.8349,1.9045,0.0,0.0,0.0,0.0,0.0,0.0,0.0,0.0,1.5298,0.0,0.0,0.0,0.0,0.0,0.0,0.0,0.0,0.0,0.0,0.0,0.0,0.0,0.0,0.0,0.0,0.0,0.0,0.0,0.0,0.0,0.0,0.0,0.0,0.0,0.0,0.0,0.0,0.0,0.0,0.0,0.0,0.0,0.0,0.0,0.0,0.0,0.0,0.0,0.0,0.0,0.0,0.0,0.0,0.0,0.0,0.0,0.0,0.0,0.0,0.0,0.0,0.0,0.0,0.0,3.2704,3.5658,3.8086,3.9991,4.0854,4.0979,4.0237,3.8734,3.6457,0.0,0.0,0.0,0.0,0.0,0.0,0.0,0.0,0.0,0.0,0.0,0.0,0.0,0.0,0.0,0.0,0.0,0.0,0.0,0.0,0.0,0.0,0.0,0.0,0.0,0.0,0.0,0.0,0.0,0.0,0.0,0.0,0.0,0.0,0.0,0.0,0.0,0.0,0.0,0.0,1.9031,1.9623,1.9781,0.0,0.0,0.0,0.0,0.0,0.0,1.5723,1.5364,0.0,0.0,0.0,0.0,0.0,0.0,0.0,0.0,0.0,0.0,0.0,0.0,0.0,0.0,0.0,0.0,0.0,0.0,0.0,0.0,0.0,0.0,0.0,0.0,0.0,0.0,0.0,0.0,0.0,0.0,0.0,0.0,0.0,0.0,0.0,0.0,0.0,0.0,0.0,0.0,0.0,0.0,0.0,0.0,0.0,0.0,0.0,0.0,0.0,0.0,0.0,0.0,0.0,0.0,0.0,3.293,3.5968,3.8299,3.9829,4.0546,4.0521,3.9623,3.8084,3.5734,0.0,0.0,0.0,0.0,0.0,0.0,0.0,0.0,0.0,0.0,0.0,0.0,0.0,0.0,0.0,0.0,0.0,0.0,0.0,0.0,0.0,0.0,0.0,0.0,0.0,0.0,0.0,0.0,0.0,0.0,0.0,0.0,0.0,0.0,0.0,0.0,0.0,0.0,0.0,0.0,0.0,2.0266,2.0188,2.0116,0.0,0.0,0.0,0.0,1.7028,1.6496,0.0,0.0,0.0,0.0,0.0,0.0,0.0,0.0,0.0,0.0,0.0,0.0,0.0,0.0,0.0,0.0,0.0,0.0,0.0,0.0,0.0,0.0,0.0,0.0,0.0,0.0,0.0,0.0,0.0,0.0,0.0,0.0,0.0,0.0,0.0,0.0,0.0,0.0,0.0,0.0,0.0,0.0,0.0,0.0,0.0,0.0,0.0,0.0,0.0,0.0,0.0,0.0,0.0,0.0,0.0,0.0,3.3376,3.707,3.9674,4.1103,4.1525,4.094,3.944,3.7302,3.4736,0.0,0.0,0.0,0.0,0.0,0.0,0.0,0.0,0.0,0.0,0.0,0.0,0.0,0.0,0.0,0.0,0.0,0.0,0.0,0.0,0.0,0.0,0.0,0.0,0.0,0.0,0.0,0.0,0.0,0.0,0.0,0.0,0.0,0.0,0.0,0.0,0.0,0.0,0.0,0.0,0.0,2.1555,2.1517,2.1504,2.1427,0.0,0.0,1.9384,1.8949,1.8534,0.0,0.0,0.0,0.0,0.0,0.0,0.0,0.0,0.0,0.0,0.0,0.0,0.0,0.0,0.0,0.0,0.0,0.0,0.0,0.0,0.0,0.0,0.0,0.0,0.0,0.0,0.0,0.0,0.0,0.0,0.0,0.0,0.0,0.0,0.0,0.0,0.0,0.0,0.0,0.0,0.0,0.0,0.0,0.0,0.0,0.0,0.0,0.0,0.0,0.0,0.0,0.0,0.0,0.0,0.0,2.8598,3.3033,3.676,3.9463,4.1119,4.1444,4.105,3.9927,3.7055,3.4115,0.0,0.0,0.0,0.0,0.0,0.0,0.0,0.0,0.0,0.0,0.0,0.0,0.0,0.0,0.0,0.0,0.0,0.0,0.0,0.0,0.0,0.0,0.0,0.0,0.0,0.0,0.0,0.0,0.0,0.0,0.0,0.0,0.0,0.0,0.0,0.0,0.0,0.0,0.0,0.0,0.0,0.0,2.1979,2.2179,0.0,0.0,0.0,2.1107,2.1043,0.0,0.0,0.0,0.0,0.0,0.0,0.0,0.0,0.0,0.0,0.0,0.0,0.0,0.0,0.0,0.0,0.0,0.0,0.0,0.0,0.0,0.0,0.0,0.0,0.0,0.0,0.0,0.0,0.0,0.0,0.0,0.0,0.0,0.0,0.0,0.0,0.0,0.0,0.0,0.0,0.0,0.0,0.0,0.0,0.0,0.0,0.0,0.0,0.0,0.0,0.0,0.0,0.0,0.0,0.0,0.0,0.0,3.2541,3.6588,3.9395,4.0983,4.1591,4.1357,4.029,3.7282,0.0,0.0,0.0,0.0,0.0,0.0,0.0,0.0,0.0,0.0,0.0,0.0,0.0,0.0,0.0,0.0,0.0,0.0,0.0,0.0,0.0,0.0,0.0,0.0,0.0,0.0,0.0,1.0938,0.0,0.0,0.0,0.0,0.0,0.0,0.0,0.0,0.0,0.0,0.0,0.0,0.0,0.0,2.1274,2.2185,2.2896,2.3406,0.0,0.0,2.2665,2.2648,2.167,2.0538,0.0,0.0,0.0,0.0,0.0,0.0,0.0,0.0,0.0,0.0,0.0,0.0,0.0,0.0,0.0,0.0,0.0,0.0,0.0,0.0,0.0,0.0,0.0,0.0,0.0,0.0,0.0,0.0,0.0,0.0,0.0,0.0,0.0,0.0,0.0,0.0,0.0,0.0,0.0,0.0,0.0,0.0,0.0,0.0,0.0,0.0,0.0,0.0,0.0,0.0,0.0,0.0,0.0,0.0,0.0,3.2059,3.7163,4.0236,4.1196,4.2417,4.2194,4.0304,3.8027,3.4906,0.0,0.0,0.0,0.0,0.0,0.0,0.0,0.0,0.0,0.0,0.0,0.0,0.0,0.0,0.0,0.0,0.0,0.0,0.0,0.0,0.0,0.0,0.0,0.0,0.0,0.0,0.0,0.0,0.0,0.0,0.0,0.0,0.0,0.0,0.0,0.0,0.0,0.0,0.0,0.0,0.0,2.2213,2.2323,2.3946,2.488,0.0,0.0,2.4268,2.3301,2.2805,2.187,1.9953,0.0,0.0,0.0,0.0,0.0,0.0,0.0,0.0,0.0,0.0,0.0,0.0,0.0,0.0,0.0,0.0,0.0,0.0,0.0,0.0,0.0,0.0,0.0,0.0,0.0,0.0,0.0,0.0,0.0,0.0,0.0,0.0,0.0,0.0,0.0,0.0,0.0,0.0,0.0,0.0,0.0,0.0,0.0,0.0,0.0,0.0,0.0,0.0,0.0,0.0,0.0,0.0,0.0,2.7901,3.155,3.6509,3.9484,4.0432,4.1547,4.1508,4.0277,3.8278,3.5252,0.0,0.0,0.0,0.0,0.0,0.0,0.0,0.0,0.0,0.0,0.0,0.0,0.0,0.0,0.0,0.0,0.0,0.0,0.0,0.0,0.0,0.0,0.0,0.0,0.0,0.0,0.0,0.0,1.1987,1.2086,1.2255,0.0,0.0,0.0,0.0,0.0,0.0,0.0,0.0,0.0,0.0,2.2432,2.3506,2.4764,0.0,0.0,2.5421,2.5195,2.4743,2.3561,2.2203,2.0814,1.9069,0.0,0.0,0.0,0.0,0.0,0.0,0.0,0.0,0.0,0.0,0.0,0.0,0.0,0.0,0.0,0.0,0.0,0.0,0.0,0.0,0.0,0.0,0.0,0.0,0.0,0.0,0.0,0.0,0.0,0.0,0.0,0.0,0.0,0.0,0.0,0.0,0.0,0.0,0.0,0.0,0.0,0.0,0.0,0.0,0.0,0.0,0.0,0.0,0.0,0.0,0.0,0.0,2.7934,3.1344,3.6132,3.895,3.9688,4.083,4.0924,3.9827,3.8318,3.5472,0.0,0.0,0.0,0.0,0.0,0.0,0.0,0.0,0.0,0.0,0.0,0.0,0.0,0.0,0.0,0.0,0.0,0.0,0.0,0.0,0.0,0.0,0.0,0.0,0.0,0.0,0.0,0.0,1.2543,1.2513,1.2389,0.0,0.0,0.0,0.0,0.0,0.0,0.0,0.0,0.0,0.0,2.3052,2.4279,2.5386,2.6134,2.6294,2.6193,2.5871,2.5417,2.4057,2.2731,2.1583,0.0,0.0,0.0,0.0,0.0,0.0,0.0,0.0,0.0,0.0,0.0,0.0,0.0,0.0,0.0,0.0,0.0,0.0,0.0,0.0,0.0,0.0,0.0,0.0,0.0,0.0,0.0,2.228,0.0,0.0,2.1371,0.0,0.0,0.0,0.0,0.0,0.0,0.0,0.0,0.0,0.0,0.0,0.0,0.0,0.0,0.0,0.0,0.0,0.0,0.0,0.0,0.0,0.0,2.8724,3.1595,3.6228,3.8774,3.906,4.0604,4.0635,3.906,3.8152,3.5643,3.1313,0.0,0.0,0.0,0.0,0.0,0.0,0.0,0.0,0.0,0.0,0.0,0.0,0.0,0.0,0.0,0.0,0.0,0.0,0.0,0.0,0.0,0.0,0.0,0.0,0.0,0.0,1.4211,1.3708,1.3043,0.0,0.0,0.0,0.0,0.0,0.0,0.0,0.0,0.0,0.0,2.2581,2.4166,2.4235,2.5779,2.6636,2.5885,2.643,2.6461,2.5159,2.4476,2.3649,0.0,0.0,0.0,0.0,0.0,0.0,0.0,0.0,0.0,0.0,0.0,0.0,0.0,0.0,0.0,0.0,0.0,0.0,0.0,0.0,0.0,0.0,0.0,0.0,0.0,0.0,0.0,2.566,2.5424,0.0,0.0,0.0,0.0,0.0,0.0,0.0,0.0,0.0,0.0,0.0,2.9134,2.8842,0.0,0.0,0.0,0.0,0.0,0.0,0.0,0.0,0.0,0.0,0.0,0.0,2.8339,3.1407,3.5364,3.7691,3.8241,3.9154,3.9043,3.7594,3.7271,3.4756,2.9833,0.0,0.0,0.0,0.0,0.0,0.0,0.0,0.0,0.0,0.0,0.0,0.0,0.0,0.0,0.0,0.0,0.0,0.0,0.0,0.0,0.0,0.0,0.0,0.0,0.0,1.4041,0.0,0.0,0.0,0.0,0.0,0.0,0.0,0.0,0.0,0.0,0.0,2.0588,2.2214,2.3729,2.4912,2.5612,2.6507,2.699,0.0,0.0,0.0,0.0,0.0,0.0,0.0,0.0,0.0,0.0,0.0,0.0,0.0,0.0,1.9322,1.824,1.7625,1.6961,1.5958,0.0,0.0,0.0,0.0,0.0,0.0,0.0,0.0,0.0,0.0,0.0,0.0,0.0,0.0,2.8948,0.0,2.7471,0.0,0.0,0.0,0.0,0.0,0.0,0.0,0.0,3.2287,3.265,3.2242,3.1754,3.1667,0.0,3.1638,2.9606,0.0,0.0,0.0,0.0,0.0,0.0,0.0,0.0,2.8901,3.1752,3.4934,3.6934,3.7608,3.8238,3.8048,3.6978,3.6069,3.3644,2.9608,2.7759,2.5421,0.0,0.0,0.0,0.0,0.0,0.0,0.0,0.0,0.0,0.0,0.0,0.0,0.0,0.0,0.0,0.0,0.0,0.0,0.0,0.0,0.0,0.0,0.0,1.4641,0.0,0.0,0.0,0.0,0.0,0.0,0.0,0.0,0.0,1.9401,2.0618,2.2019,2.3511,2.4717,2.5704,2.6381,0.0,0.0,0.0,0.0,0.0,0.0,0.0,2.3906,2.3251,2.2422,2.1902,2.2037,2.1827,2.1501,2.1181,0.0,0.0,1.9541,1.8982,1.834,1.7429,1.7478,1.7366,1.6619,1.6873,1.7192,0.0,0.0,0.0,0.0,0.0,0.0,0.0,0.0,3.276,3.2329,0.0,2.9909,0.0,0.0,0.0,0.0,0.0,2.9708,0.0,0.0,3.4528,3.5022,3.5008,3.4335,3.4063,3.4077,3.4045,3.337,3.1976,2.8269,0.0,0.0,0.0,0.0,0.0,0.0,3.0323,3.264,3.5067,3.6577,3.7214,3.7808,3.7823,3.7099,3.4683,3.2515,3.0621,2.9261,2.7414,2.4918,2.3877,0.0,0.0,0.0,0.0,0.0,0.0,0.0,0.0,0.0,0.0,0.0,0.0,0.0,0.0,0.0,0.0,0.0,0.0,0.0,0.0,1.5395,0.0,0.0,0.0,0.0,0.0,0.0,0.0,0.0,0.0,0.0,2.0722,2.2283,2.3684,2.42,0.0,0.0,0.0,0.0,2.7989,2.8,2.839,2.8259,2.7133,2.6075,2.5104,2.415,0.0,0.0,2.3016,2.2117,2.125,2.1009,2.0872,2.0643,2.048,2.001,1.9571,1.8742,1.8591,1.8693,1.8684,1.8742,1.8942,3.9759,0.0,0.0,0.0,0.0,3.5511,3.5712,3.6117,3.596,3.5784,3.552,3.3918,0.0,0.0,0.0,0.0,0.0,0.0,3.3027,3.5038,3.5797,3.6265,3.6391,3.6065,3.578,3.5472,3.531,3.4697,3.3578,3.1811,2.9361,2.6373,0.0,0.0,0.0,0.0,3.0955,3.3321,3.5195,3.6471,3.702,3.7281,3.6855,3.5818,3.4583,3.3308,3.1905,3.1083,2.9511,2.7046,2.5669,0.0,0.0,0.0,0.0,0.0,0.0,0.0,0.0,0.0,0.0,0.0,0.0,0.0,0.0,0.0,0.0,0.0,0.0,0.0,1.6394,1.7438,1.7829,0.0,0.0,0.0,0.0,0.0,0.0,0.0,0.0,0.0,2.4074,2.4349,2.482,0.0,0.0,2.6726,2.7449,2.7805,2.8103,2.8436,2.8609,0.0,2.7527,2.6738,2.5917,2.5251,2.4373,2.369,2.3513,2.2648,2.195,2.1346,2.1098,2.0712,2.0077,2.0093,2.0071,1.9611,1.9694,1.9866,1.9804,1.9714,1.9614,4.2772,4.0375,3.9127,3.8701,3.879,3.859,3.8794,3.9175,3.9143,3.9055,3.8903,3.7375,3.5915,3.4539,3.2691,0.0,0.0,0.0,3.501,3.6538,3.7175,3.7593,3.7774,3.7579,3.7395,3.7211,3.6505,3.5897,3.5321,3.4213,3.2567,3.0116,0.0,0.0,2.9001,3.043,3.2051,3.3847,3.5325,3.636,3.6964,3.6978,3.6402,3.5208,3.4801,3.393,3.2469,3.1979,3.0793,2.8759,2.7179,2.5107,0.0,0.0,0.0,0.0,0.0,0.0,0.0,0.0,0.0,0.0,0.0,1.0529,1.1246,0.0,0.0,0.0,1.5315,1.6853,1.8173,1.9023,0.0,0.0,0.0,0.0,0.0,0.0,0.0,2.2903,2.4189,2.536,2.645,2.6508,2.6577,2.7013,2.7219,2.7575,2.8111,0.0,2.8321,2.8517,2.8632,2.8421,2.7776,2.7039,2.6216,2.5209,2.4311,2.3613,2.3233,2.2621,2.1896,2.1401,2.0997,2.0576,2.0001,2.0193,2.0196,1.9698,1.9969,2.0292,2.0439,2.0422,2.0497,4.4533,4.4202,4.2858,4.1973,4.1547,4.175,4.2036,4.226,4.1923,4.1927,4.196,4.0154,3.8727,3.7582,3.5384,0.0,3.5419,3.6557,3.7307,3.798,3.8583,3.8891,3.8919,3.8877,3.8863,3.8821,3.763,3.7027,3.69,3.5779,3.4896,3.4164,3.1866,3.0859,3.1319,3.2407,3.3463,3.4379,3.5545,3.6416,3.6964,3.6936,3.6346,3.5268,3.5138,3.4281,3.2581,3.2263,3.1487,3.0003,2.8373,2.6578,2.4642,0.0,0.0,0.0,0.0,0.0,0.0,0.0,0.0,0.0,0.0,0.0,0.0,0.0,0.0,0.0,1.7111,0.0,1.9826,2.0366,0.0,0.0,0.0,2.0423,2.1353,2.2317,2.3488,2.486,0.0,0.0,2.795,2.8397,2.8534,2.8122,2.8385,2.8637,2.8445,2.8543,2.8578,2.8431,2.844,2.8375,2.7543,2.6886,2.5865,2.4325,2.3492,2.3,2.2548,2.196,2.144,2.0978,2.0555,2.0283,2.0283,2.0339,2.0078,1.9479,1.9722,2.0263,2.0739,2.0977,2.1203,4.5649,4.5263,4.4356,4.3262,4.2191,4.197,4.1698,4.1369,4.1632,4.1538,4.1244,4.0501,3.9287,3.7797,3.6817,3.6606,3.7065,3.7077,3.762,3.8473,3.8481,3.8796,3.9207,3.8769,3.8536,3.8495,3.7672,3.7071,3.6688,3.5963,3.5292,3.4599,3.36,3.3162,3.3466,3.4256,3.4944,3.563,3.6388,3.6838,3.6964,3.6529,3.5939,3.524,3.4702,3.4042,3.3143,3.2722,3.1997,3.0729,2.9091,2.7288,2.5242,2.2498,0.0,0.0,0.0,0.0,0.0,0.0,0.0,0.0,0.0,1.3305,1.4304,0.0,1.6325,0.0,1.8908,2.0446,2.1835,2.2421,0.0,0.0,2.319,2.3351,2.3948,2.4602,2.5352,2.628,2.6817,2.7521,2.821,2.8244,2.823,2.8553,2.8664,2.8665,2.8599,2.8377,2.8145,2.8114,2.7787,2.7337,2.6761,2.5919,2.4929,2.3897,2.3247,2.2592,2.1812,2.1327,2.0931,2.0559,2.0382,2.0292,2.0292,2.0292,2.024,2.0069,2.0193,2.0416,2.0811,2.0738,2.0654,4.5405,4.4946,4.4128,4.324,4.2269,4.2145,4.1833,4.1309,4.1514,4.143,4.1155,4.0839,4.0108,3.9128,3.8791,3.8669,3.8658,3.8281,3.8297,3.8573,3.8247,3.8332,3.8639,3.8318,3.8158,3.8145,3.7457,3.699,3.6644,3.5818,3.5245,3.4926,3.4353,3.4124,3.4281,3.4747,3.5183,3.5529,3.6124,3.6304,3.6027,3.5709,3.5114,3.433,3.3896,3.3301,3.2443,3.2195,3.1541,3.0447,2.8925,2.7462,2.5896,2.3213,2.0989,0.0,0.0,0.0,0.0,0.0,0.0,0.0,0.0,0.0,0.0,0.0,1.8827,2.0056,2.1135,2.2283,2.3557,2.4143,2.4648,2.5153,2.521,2.5486,2.6209,2.6542,2.6953,2.7572,2.7576,2.7767,2.8141,2.786,2.7761,2.8028,2.8061,2.8094,2.8265,2.7963,2.7596,2.7379,2.6733,2.6147,2.5674,2.4894,2.4214,2.361,2.3061,2.251,2.1836,2.1516,2.1208,2.0694,2.0557,2.0489,2.0335,2.0292,2.0292,2.0292,2.0292,2.0374,2.0645,2.0473,2.0382,4.4434,4.3974,4.3205,4.2482,4.1922,4.2218,4.2096,4.1734,4.1594,4.1482,4.1454,4.1256,4.0998,4.0754,4.0768,4.0507,4.0041,3.9468,3.8993,3.8463,3.8031,3.7807,3.7729,3.7729,3.7703,3.7612,3.7001,3.6728,3.6625,3.5652,3.5094,3.4938,3.4517,3.4217,3.4126,3.4432,3.4619,3.4699,3.5278,3.5237,3.4749,3.4654,3.4099,3.2955,3.2827,3.2258,3.1229,3.099,3.0442,2.9597,2.8373,2.7213,2.633,2.3975,2.1969,0.0,1.9561,0.0,0.0,0.0,0.0,0.0,0.0,0.0,0.0,1.9988,2.1206,2.2708,2.3219,2.3913,2.4892,2.5527,2.604,2.6519,2.6588,2.6942,2.7775,2.7957,2.8162,2.8478,2.8058,2.7807,2.762,2.72,2.6894,2.6894,2.6863,2.7022,2.7389,2.72,2.6829,2.6304,2.5499,2.4805,2.4421,2.3935,2.3529,2.3229,2.292,2.2515,2.2038,2.197,2.1756,2.1131,2.0942,2.0823,2.0437,2.0377,2.036,2.0309,2.0292,2.0292,2.0292,2.0292,2.0283,4.357,4.3096,4.2467,4.1922,4.1523,4.191,4.2053,4.1967,4.188,4.1917,4.2041,4.1744,4.155,4.1278,4.1005,4.0638,4.0187,3.9706,3.9125,3.8646,3.8066,3.7632,3.7286,3.7273,3.7045,3.664,3.6527,3.6236,3.5713,3.5499,3.4931,3.4035,3.3909,3.3718,3.3288,0.0,0.0,0.0,3.4515,3.4291,3.3793,3.3251,3.2685,3.2077,3.1154,0.0,3.0349,2.9502,2.8905,2.8549,2.7454,0.0,0.0,0.0,0.0,0.0,0.0,0.0,0.0,0.0,0.0,0.0,2.136,2.1231,1.9986,2.1083,2.2314,2.3348,2.3886,2.4568,2.5524,2.6063,2.6557,2.6986,2.7041,2.7129,2.7338,2.7689,2.776,2.7253,2.7035,2.6822,2.6234,2.5674,2.5363,2.5373,2.5373,2.5285,2.5206,2.5693,2.5693,2.502,2.4125,2.3438,2.3347,2.3046,2.2846,2.2736,2.2644,2.2407,2.2098,2.2013,2.1867,2.1388,2.1302,2.1191,2.084,2.0763,2.0677,2.036,2.0309,2.0292,2.0292,2.011,1.9928,4.2739,0.0,4.2103,4.1824,0.0,4.1914,4.2158,4.232,4.2308,4.2172,4.2001,4.1608,4.1134,4.0763,4.0388,3.9915,3.9451,3.8955,3.8469,3.7916,3.7406,3.6923,3.6383,3.637,3.6112,3.5608,3.5584,3.5448,3.5178,3.492,3.4379,3.358,3.331,3.2904,3.2363,3.2351,3.276,3.3661,3.3661,3.3264,3.2444,3.2149,3.1586,3.0817,3.0176,0.0,0.0,0.0,0.0,0.0,0.0,0.0,0.0,0.0,0.0,2.3067,2.2559,2.2076,2.1564,2.2228,2.2512,2.2157,2.2273,2.2148,2.1513,2.2081,2.2882,2.3858,2.4365,2.4914,2.5688,2.5995,2.6303,2.6748,2.6812,2.6886,2.7028,2.7271,2.7128,2.6398,2.6018,2.5567,2.5011,2.4421,2.4223,2.4125,2.4115,2.4134,2.4035,2.452,2.4618,2.3945,2.3347,2.2946,2.2854,2.2745,2.2653,2.2653,2.2653,2.2576,2.2304,2.227,2.2141,2.1799,2.1696,2.1576,2.1242,2.1045,2.0891,2.0712,2.0568,2.0474,2.0449,2.0189,1.9837,4.1966,4.1578,4.1795,4.179,4.1657,4.2057,4.2408,4.2532,0.0,0.0,0.0,4.126,4.0776,4.0219,3.9737,3.9154,3.8662,3.8266,3.7779,3.7412,3.6892,3.635,3.5761,3.5749,3.5425,3.4835,3.4823,3.4823,3.4799,3.439,3.3873,3.3296,3.2851,3.231,3.1709,3.1661,3.2089,3.2698,3.2772,3.2299,3.1327,3.129,3.0792,2.9783,2.9671,2.9384,2.8874,2.8631,2.8216,2.7574,2.7097,2.6772,2.658,2.5915,2.5202,2.4781,2.4706,2.4522,2.3956,2.4145,2.3991,2.3175,2.2386,2.2242,2.2981,2.2879,2.3243,2.4212,2.47,2.5096,2.5553,2.5666,2.586,2.6227,2.6258,2.6317,2.6536,2.6502,2.6194,2.5557,2.4982,2.451,2.4026,2.3546,2.3291,2.3344,2.3379,2.3362,2.3335,2.3691,2.3737,2.3256,2.2946,2.2846,2.2653,2.2653,2.2653,2.2653,2.2653,2.2653,2.2653,2.2653,2.2424,2.215,2.2098,2.1927,2.161,2.1323,2.1105,2.0942,2.074,2.0555,2.0401,2.0087,1.9802,4.1184,4.1142,4.1522,4.1615,4.1625,4.2383,4.2439,4.2088,4.2643,4.2533,4.2021,4.1518,4.0924,4.0462,3.9855,3.9548,3.924,3.8815,3.8503,3.819,3.7875,3.724,3.6326,3.629,3.5773,3.4883,3.4823,3.4823,3.4811,3.4751,3.4246,3.3392,3.3212,3.2671,3.1745,3.1661,3.1749,3.1925,3.1837,3.1622,3.0943,3.093,3.0652,3.0048,2.9576,2.9093,2.8573,2.7806,2.7321,2.7195,2.7128,2.7147,2.7105,2.736,2.7364,2.6797,2.6814,2.6577,2.6094,2.5772,2.5083,2.3712,2.2754,2.2462,2.2998,2.3036,2.3389,2.4212,2.4673,2.4967,2.5159,2.5454,2.5671,2.5749,2.5586,2.5518,2.547,2.5275,2.4982,2.4421,2.4016,2.3737,2.3247,2.2946,2.2866,2.304,2.322,2.3135,2.316,2.3155,2.3173,2.3046,2.2854,2.2644,2.2653,2.2653,2.2653,2.2653,2.2544,2.2552,2.2552,2.2552,2.2509,2.2466,2.2424,2.2295,2.1987,2.1714,2.131,2.0801,2.0549,2.0232,2.0053,1.9707,1.9516,4.1671,4.1477,4.1793,4.1874,4.1746,4.1855,4.1701,4.1159,4.1185,4.1172,4.1132,4.063,4.0045,3.9569,3.905,3.8736,3.8619,3.8409,3.8291,3.8198,3.8092,3.7421,3.6471,3.6411,3.5845,3.4871,3.4823,3.4823,3.4823,3.4823,3.4438,3.3705,3.3152,3.2454,3.1721,3.1661,3.1661,3.1661,3.1661,3.1408,3.0891,3.0879,3.0615,3.0098,2.9833,2.9546,2.9117,2.8633,2.8257,2.8104,2.792,2.777,2.7665,2.7749,2.7576,2.7261,2.7192,2.7064,2.6925,2.599,2.4972,2.3909,2.3121,2.2778,2.327,2.3362,2.342,2.389,2.4286,2.4541,2.4541,2.4711,2.4824,2.4735,2.4529,2.4332,2.4125,2.3926,2.3728,2.3338,2.3138,2.3038,2.2854,2.2644,2.2689,2.3049,2.3263,2.334,2.3169,2.3083,2.2978,2.2797,2.2653,2.2653,2.2653,2.2653,2.2653,2.2653,2.2443,2.2342,2.235,2.2241,2.2139,2.2131,2.2139,2.208,2.1795,2.1595,2.1303,2.0921,2.0548,2.0247,2.0031,1.9729,1.9559,4.2064,4.1663,4.1881,4.1828,4.1509,4.1063,4.0567,4.0096,3.9569,3.9544,3.9802,3.9519,3.9117,3.8736,3.8198,3.7974,3.7974,3.7974,3.7974,3.7974,3.7974,3.7421,3.6483,3.6411,3.5845,3.4919,3.4823,3.4823,3.4823,3.4823,3.4499,3.3849,3.2959,3.2226,3.1673,3.1673,3.1572,3.1572,3.1484,3.138,3.1072,3.1048,3.0855,3.0494,3.0361,3.0216,2.9927,2.9671,2.9344,2.8993,2.8653,2.8298,2.8032,2.7787,2.7561,2.7211,2.72,2.7097,2.6811,2.5624,2.471,2.4076,2.3448,2.3253,2.3611,2.3684,2.3684,2.3712,2.4058,2.4242,2.4251,2.4244,2.419,2.399,2.3871,2.3749,2.3318,2.3207,2.3106,2.2902,2.2902,2.2928,2.2792,2.2723,2.2852,2.322,2.3562,2.3648,2.3417,2.3306,2.31,2.2886,2.2732,2.2698,2.2681,2.2783,2.2792,2.2715,2.2486,2.2249,2.2105,2.1835,2.1632,2.153,2.1522,2.1514,2.1514,2.131,2.0987,2.0735,2.0428,2.0158,1.993,1.9723,1.959,4.1517,4.1123,4.1233,4.0965,4.0514,3.9994,3.9531,3.8933,3.8409,3.8185,3.8279,3.8724,3.8724,3.8409,3.8092,3.7974,3.7974,3.7974,3.7974,3.7974,3.7974,3.7421,3.6459,3.6411,3.5857,3.4919,3.4823,3.4823,3.4823,3.4823,3.4318,3.3404,3.2779,3.2226,3.1733,3.1472,3.1217,3.0949,3.0758,3.1003,3.1601,3.1589,3.1577,3.1529,3.1328,3.0937,3.0399,3.0015,2.952,2.9063,2.8808,2.841,2.8014,2.7996,2.7766,2.7191,2.716,2.6889,2.6032,2.498,2.432,2.4193,2.3771,2.3648,2.4033,2.4088,2.4187,2.4088,2.4125,2.4161,2.418,2.4263,2.426,2.4212,2.4145,2.4079,2.3931,2.379,2.3588,2.3571,2.3494,2.358,2.3451,2.3263,2.3246,2.3537,2.3931,2.4136,2.4008,2.3776,2.3588,2.3477,2.3297,2.31,2.31,2.3357,2.3235,2.3022,2.2859,2.2456,2.1973,2.1542,2.1232,2.1131,2.1067,2.1075,2.0917,2.0719,2.0506,2.0189,1.9879,1.968,1.9472,1.9272,1.9332,4.1814,4.1152,4.0926,4.0349,3.9737,3.9337,3.8921,3.8526,3.8198,3.7974,3.7974,3.8198,3.8303,3.8198,3.8092,3.7974,3.7974,3.7974,3.7974,3.7974,3.7974,3.7409,3.6483,3.6411,3.5857,3.4895,3.4823,3.4823,3.4823,3.4823,3.4306,3.338,3.3068,3.2527,3.1733,3.1306,3.0847,3.0464,3.0114,2.992,2.9988,3.0554,3.0847,3.0746,3.0668,3.0406,2.994,2.9726,2.9353,2.8892,2.8514,2.8017,2.753,2.7264,2.688,2.6324,2.6284,2.6088,2.5545,2.4986,2.4573,2.4375,2.4091,2.3987,2.4233,2.4161,2.4161,2.4161,2.4161,2.4235,2.4272,2.426,2.4226,2.4233,2.4105,2.4105,2.3894,2.3797,2.3674,2.3665,2.3682,2.3691,2.3699,2.3734,2.3734,2.3811,2.4162,2.4479,2.4282,2.4093,2.3922,2.3734,2.3593,2.3462,2.3212,2.314,2.3101,2.297,2.2674,2.2331,2.194,2.1592,2.127,2.0856,2.0713,2.0508,2.0212,2.0101,1.9887,1.9457,1.9146,1.884,1.8743,1.8743,1.8848,4.1657,4.0756,4.007,3.9465,3.8945,3.8724,3.8526,3.8303,3.8092,3.7974,3.7974,3.7974,3.7974,3.7974,3.7974,3.7974,3.7974,3.7974,3.7974,3.7974,3.7974,3.7421,3.6369,3.6183,3.5544,3.4576,3.4335,3.4323,3.4335,3.4335,3.3813,3.3042,3.2887,3.2364,3.1324,3.0758,3.0295,2.9818,2.9279,2.8817,2.8516,2.8991,2.9474,2.9738,2.9749,2.9463,2.9095,2.9002,2.8817,2.8341,2.7882,2.7348,2.6825,2.629,2.582,2.5391,2.5245,2.5216,2.5039,2.4833,2.4637,2.444,2.4251,2.4161,2.4161,2.4161,2.4152,2.4053,2.4053,2.4108,2.4278,2.4235,2.426,2.4184,2.4216,2.4196,2.4025,2.399,2.4008,2.3982,2.4059,2.3931,2.3896,2.4119,2.4256,2.399,2.4275,2.4633,2.436,2.4174,2.3964,2.3818,2.3687,2.3545,2.3278,2.3237,2.2936,2.2646,2.2489,2.214,2.1705,2.1496,2.1179,2.0536,2.0521,2.0082,1.9528,1.932,1.8926,1.8436,1.8115,1.7932,1.7898,1.7898,1.7891,4.073,3.9609,3.8594,3.8185,3.8092,3.8092,3.808,3.808,3.7974,3.7974,3.7974,3.7974,3.7974,3.7974,3.7974,3.7974,3.7974,3.7974,3.7974,3.7974,3.795,3.7304,3.6026,3.5774,3.4926,3.3703,3.3335,3.3235,3.3247,3.3212,3.2741,3.1789,3.1708,3.1215,3.0342,2.9749,2.9301,2.8806,2.8269,2.7799,2.7326,2.7315,2.7872,2.8598,2.8505,2.8308,2.8017,2.7767,2.7589,2.7284,2.6829,2.632,2.5769,2.5315,2.4786,2.435,2.4359,2.435,2.4251,2.4251,2.4251,2.4251,2.4251,2.4161,2.4161,2.4161,2.4053,2.3854,2.3854,2.3917,2.4248,2.4251,2.4289,2.4494,2.464,2.4684,2.4735,2.465,2.4761,2.4718,2.4667,2.4496,2.4247,2.4547,2.453,2.4241,2.4336,2.4351,2.4317,2.4086,2.3933,2.3805,2.3574,2.3422,2.3349,2.3161,2.3013,2.2609,2.2253,2.1837,2.137,2.0876,2.0565,2.023,1.9997,1.954,1.8853,1.8158,1.7648,1.7261,1.6977,1.6851,1.6933,1.6793,1.6819,3.9853,3.8804,3.8291,3.7974,3.7974,3.7974,3.7974,3.7974,3.7974,3.7974,3.7974,3.7974,3.7974,3.7974,3.7974,3.7974,3.7974,3.7974,3.7974,3.7938,3.7637,3.6888,3.5706,3.4932,3.4003,3.2914,3.2409,3.2207,3.2162,3.1895,3.1394,3.0782,3.0426,2.9914,2.9287,2.8817,2.8258,2.7767,2.722,2.6774,2.6294,2.6207,2.6476,2.6744,2.7315,2.741,2.704,2.6955,2.6658,2.6254,2.5897,2.5557,2.516,2.4749,2.443,2.4251,2.4161,2.4161,2.4161,2.4161,2.4161,2.4161,2.4161,2.4161,2.4161,2.4152,2.4053,2.3854,2.3782,2.3943,2.4059,2.4123,2.4242,2.4605,2.4735,2.4821,2.4821,2.4821,2.4821,2.4821,2.4821,2.4667,2.4444,2.4581,2.465,2.4359,2.4353,2.4223,2.4033,2.3809,2.3585,2.3352,2.3127,2.2869,2.2534,2.279,2.2733,2.2445,2.2022,2.1782,2.1294,2.1003,2.0674,1.9892,1.9535,1.8736,1.7936,1.6784,1.627,1.6154,1.5863,1.5822,1.605,1.5828,1.5857,3.8921,3.8303,3.8092,3.7974,3.7974,3.7974,3.7974,3.7974,3.7974,3.7974,3.7974,3.7974,3.7974,3.7974,3.7974,3.788,3.7773,3.7667,3.7667,3.7501,3.6896,3.6062,3.5028,3.3994,3.288,3.1969,3.1289,3.1094,3.1051,3.0761,3.0278,2.9655,2.9332,2.887,2.825,2.7788,2.7421,2.6935,2.6582,2.611,2.5732,2.5732,2.5732,2.583,2.6294,2.638,2.6004,2.6014,2.5713,2.5314,2.503,2.4894,2.4622,2.4393,2.4161,2.4161,2.4161,2.4161,2.4161,2.4161,2.4161,2.4161,2.4161,2.4161,2.4161,2.4161,2.4044,2.3755,2.3682,2.3794,2.3983,2.3982,2.4196,2.465,2.4821,2.4821,2.4821,2.4821,2.4821,2.4821,2.471,2.4582,2.4293,2.4446,2.4335,2.4116,2.4114,2.4024,2.3697,2.3352,2.3127,2.2788,2.257,2.223,2.1949,2.1979,2.2116,2.1729,2.1465,2.1288,2.0974,2.0737,2.0329,1.9562,1.8737,1.7824,1.678,1.5614,1.5112,1.4885,1.4692,1.4505,1.4563,1.4713,1.4703,3.8092,3.7974,3.7974,3.7974,3.7974,3.7974,3.7974,3.7974,3.7974,3.7974,3.7974,3.7974,3.7868,3.7868,3.7761,3.756,3.7131,3.6904,3.6808,3.663,3.5776,3.4846,3.3866,3.2807,3.1722,3.0692,3.0193,2.9994,2.9973,2.986,2.9425,2.8742,2.8535,2.8028,2.7231,2.6955,2.6764,2.6486,2.6197,2.5917,2.5732,2.5732,2.5635,2.5635,2.5528,2.5333,2.4932,2.4932,2.4833,2.435,2.4251,2.426,2.4242,2.4251,2.4161,2.4161,2.4161,2.4161,2.4161,2.4161,2.4152,2.4152,2.4152,2.4161,2.4053,2.4053,2.3963,2.3518,2.3462,2.3516,2.3756,2.3874,2.405,2.4667,2.4821,2.4821,2.4821,2.4821,2.4821,2.4821,2.4599,2.4368,2.4368,2.4128,2.3991,2.3871,2.3664,2.336,2.3022,2.2796,2.2456,2.223,2.1995,2.1653,2.1432,2.1211,2.1211,2.1081,2.0831,2.0493,1.9917,1.957,1.9094,1.8384,1.7444,1.6652,1.5511,1.4462,1.3803,1.3553,1.338,1.3389,1.3543,1.3693,1.3293,3.7974,3.7974,3.7974,3.7974,3.7974,3.7974,3.7974,3.7974,3.7974,3.7892,3.7679,3.7465,3.7239,3.7131,3.6904,3.6472,3.5927,3.5587,3.5466,3.5418,3.4363,3.3372,3.2576,3.1359,3.0087,2.9248,2.892,2.8824,2.8774,2.864,2.8068,2.757,2.7222,2.6784,2.6257,2.611,2.6014,2.5927,2.583,2.5732,2.5732,2.5732,2.5635,2.544,2.5342,2.5137,2.4627,2.4637,2.444,2.426,2.4161,2.4161,2.4161,2.4161,2.4161,2.4161,2.4161,2.4161,2.4152,2.4053,2.3945,2.3845,2.3746,2.3646,2.3655,2.3646,2.3571,2.3498,2.3656,2.3895,2.4038,2.4316,2.453,2.4795,2.4821,2.4821,2.4821,2.4821,2.4821,2.4821,2.4607,2.4376,2.4033,2.3809,2.3472,2.3247,2.3022,2.2796,2.2456,2.223,2.1888,2.1554,2.131,2.0952,2.0507,2.0081,1.9775,1.9741,1.9597,1.9325,1.8861,1.8279,1.7689,1.6979,1.6155,1.5295,1.4158,1.3504,1.2953,1.2731,1.2872,1.2881,1.2772,1.274,1.2565,3.7974,3.7974,3.7974,3.7974,3.7974,3.7974,3.7974,3.7974,3.7974,3.7785,3.7358,3.6916,3.658,3.6145,3.5806,3.5245,3.4681,3.3961,3.3641,3.3634,3.2856,3.2072,3.143,3.0103,2.9112,2.8398,2.8291,2.8301,2.8281,2.8018,2.7685,2.7256,2.6836,2.6416,2.5996,2.581,2.5732,2.5732,2.5732,2.5732,2.5635,2.5635,2.544,2.5333,2.5137,2.4833,2.4538,2.443,2.435,2.4251,2.4161,2.4161,2.4161,2.4161,2.4161,2.4161,2.4152,2.4152,2.4044,2.3954,2.3755,2.3655,2.3447,2.3456,2.3456,2.3456,2.3423,2.3572,2.3703,2.3948,2.4227,2.4427,2.4641,2.4821,2.4821,2.4821,2.4821,2.471,2.471,2.4599,2.4264,2.3921,2.3585,2.336,2.3022,2.2683,2.257,2.2335,2.2002,2.1774,2.1432,2.1089,2.0615,2.0148,1.9461,1.894,1.8548,1.8399,1.8355,1.7954,1.7572,1.6873,1.6284,1.5332,1.4386,1.4023,1.3016,1.268,1.2294,1.2359,1.2363,1.2333,1.2286,1.2307,1.2273,3.7974,3.7974,3.7986,3.7868,3.7868,3.788,3.7868,3.7868,3.7868,3.7453,3.6904,3.6243,3.5685,3.5245,3.4569,3.3979,3.3353,3.2556,3.1717,3.134,3.1052,3.0781,3.0048,2.9216,2.8621,2.8291,2.8301,2.8301,2.8291,2.8242,2.8076,2.7607,2.7168,2.6787,2.6328,2.5947,2.5732,2.5732,2.5732,2.5732,2.5635,2.544,2.5245,2.5235,2.4833,2.4538,2.444,2.4341,2.4251,2.4161,2.4161,2.4053,2.4152,2.4152,2.4053,2.4161,2.4161,2.4053,2.3845,2.3755,2.3555,2.3456,2.3347,2.3373,2.3317,2.337,2.3454,2.3557,2.3609,2.3764,2.4145,2.435,2.4513,2.4753,2.4821,2.4821,2.4821,2.4599,2.4487,2.4264,2.3817,2.336,2.3014,2.2683,2.2456,2.2116,2.2002,2.1888,2.1774,2.1546,2.131,2.0744,2.0074,1.9096,1.8319,1.7667,1.7258,1.6639,1.6686,1.6487,1.6126,1.5504,1.4867,1.3913,1.3232,1.2741,1.2363,1.213,1.2014,1.2014,1.2014,1.1897,1.1893,1.2014,1.2014,3.7346,3.7334,3.7346,3.7346,3.7346,3.7131,3.7024,3.7012,3.6808,3.6243,3.5576,3.5135,3.4458,3.3685,3.3335,3.2736,3.2107,3.1585,3.0802,2.9968,2.959,2.9283,2.8848,2.8573,2.8408,2.8291,2.8301,2.8301,2.8301,2.8301,2.8086,2.7656,2.7266,2.6826,2.6387,2.5977,2.5752,2.5732,2.5742,2.5538,2.544,2.5342,2.5137,2.4735,2.4529,2.4341,2.4251,2.4251,2.4044,2.3854,2.3664,2.3564,2.3546,2.3555,2.3655,2.3854,2.3954,2.3854,2.3755,2.3456,2.3147,2.3155,2.2946,2.2967,2.3151,2.3168,2.3488,2.3857,2.4055,2.4218,2.4547,2.465,2.4727,2.4787,2.4821,2.4821,2.471,2.4607,2.4376,2.4041,2.3472,2.2901,2.2449,2.2116,2.1888,2.1546,2.1432,2.1439,2.1325,2.1025,2.0694,2.0143,1.9376,1.8289,1.7338,1.6558,1.5931,1.5077,1.4898,1.4946,1.4669,1.4284,1.3615,1.284,1.282,1.2361,1.2172,1.2018,1.1897,1.1813,1.1776,1.178,1.1776,1.1893,1.1893,3.7131,3.7131,3.7131,3.6916,3.67,3.6352,3.5991,3.5663,3.5333,3.4659,3.3989,3.3551,3.2871,3.2062,3.1556,3.1013,3.0631,3.0059,2.9496,2.8904,2.8532,2.8309,2.8233,2.8301,2.8301,2.8301,2.8291,2.8301,2.8301,2.8301,2.8154,2.791,2.75,2.707,2.668,2.623,2.5908,2.5674,2.5538,2.5235,2.4932,2.4627,2.4233,2.3836,2.3737,2.3637,2.3538,2.3438,2.3438,2.3438,2.3247,2.2946,2.3046,2.2946,2.3147,2.3438,2.3655,2.3755,2.3447,2.3147,2.2946,2.2846,2.2653,2.2851,2.3014,2.3126,2.3425,2.4076,2.4222,2.4436,2.4727,2.4821,2.4821,2.4821,2.471,2.4599,2.4599,2.4264,2.3929,2.3464,2.3127,2.2562,2.2002,2.1782,2.1439,2.1203,2.096,2.0967,2.0744,2.0477,1.9993,1.9358,1.8539,1.7352,1.6374,1.5675,1.5167,1.4178,1.3911,1.3843,1.3572,1.3273,1.2983,1.2585,1.2348,1.2217,1.2192,1.2032,1.202,1.1902,1.1833,1.1797,1.1801,1.1853,1.1841,3.6928,3.6916,3.6808,3.6592,3.5927,3.5333,3.4748,3.4191,3.3631,3.3056,3.2385,3.1832,3.1391,3.0675,3.0103,2.9365,2.9269,2.8716,2.8243,2.7977,2.7767,2.7666,2.8096,2.8077,2.8077,2.8077,2.8184,2.8184,2.8077,2.8184,2.8194,2.7922,2.7727,2.7328,2.6739,2.6452,2.6063,2.5508,2.503,2.4627,2.4223,2.3619,2.312,2.2719,2.2526,2.2417,2.2316,2.2316,2.2526,2.292,2.2518,2.2325,2.2316,2.2325,2.2426,2.2627,2.3038,2.3147,2.2837,2.2644,2.2595,2.2426,2.2435,2.2707,2.2882,2.2947,2.3207,2.3981,2.419,2.4395,2.4616,2.471,2.459,2.459,2.4376,2.4264,2.4153,2.3697,2.3352,2.2901,2.2675,2.223,2.1888,2.1546,2.131,2.0637,2.0435,2.0308,2.0034,1.9568,1.9047,1.8388,1.7462,1.6544,1.5533,1.476,1.4208,1.3624,1.3363,1.3182,1.3076,1.283,1.254,1.2251,1.2287,1.2283,1.2324,1.2154,1.2085,1.2044,1.202,1.1931,1.187,1.1955,1.1983,3.5609,3.5412,3.5157,3.4803,3.4469,3.3899,3.3335,3.2995,3.2426,3.1727,3.1265,3.1043,3.0587,2.9992,2.9439,2.9107,2.8776,2.8255,2.7905,2.7555,2.7498,2.7431,2.7647,2.753,2.7638,2.7647,2.7647,2.7647,2.7647,2.7647,2.7647,2.759,2.7169,2.6817,2.6387,2.5895,2.5448,2.5007,2.4529,2.3917,2.3194,2.2593,2.1996,2.1395,2.1293,2.1302,2.1293,2.1191,2.1089,2.0995,2.1089,2.1089,2.0987,2.1089,2.1191,2.1395,2.1818,2.203,2.1725,2.1436,2.1455,2.157,2.1619,2.1917,2.2513,2.253,2.2865,2.3476,2.3797,2.4036,2.4351,2.4264,2.4144,2.4033,2.3697,2.3239,2.3014,2.3014,2.2788,2.2335,2.2002,2.1774,2.1325,2.096,2.0622,2.0067,1.9843,1.9646,1.9186,1.8715,1.81,1.7433,1.6631,1.5671,1.4709,1.4028,1.3704,1.3362,1.3105,1.2979,1.2746,1.2656,1.2458,1.2377,1.2292,1.2328,1.2418,1.2328,1.2243,1.2227,1.2203,1.2134,1.2093,1.213,1.2117,3.4714,3.4278,3.3786,3.3314,3.2871,3.2301,3.1747,3.1295,3.0713,3.0246,3.002,3.002,2.9691,2.9142,2.8732,2.8313,2.7921,2.764,2.7222,2.7036,2.7008,2.7008,2.7008,2.6999,2.7107,2.7323,2.7431,2.7431,2.7431,2.7206,2.7088,2.698,2.6649,2.6019,2.5522,2.5106,2.4702,2.4135,2.3529,2.2811,2.219,2.1481,2.0885,2.0285,2.0181,2.0181,2.0189,2.0189,1.9872,1.9457,1.945,1.965,1.965,1.9753,1.9746,1.996,2.0364,2.0577,2.038,2.0197,2.0216,2.0559,2.0582,2.0964,2.1376,2.1574,2.1854,2.2558,2.3111,2.368,2.4033,2.3921,2.3697,2.336,2.2901,2.232,2.1858,2.1979,2.2108,2.1645,2.1303,2.1081,2.0737,2.0378,1.9917,1.9352,1.8768,1.8564,1.8209,1.7625,1.7112,1.637,1.5783,1.4876,1.4003,1.3396,1.3172,1.3062,1.2923,1.2795,1.2755,1.267,1.2588,1.2536,1.2503,1.2564,1.2621,1.2515,1.2422,1.2402,1.2373,1.2337,1.23,1.2268,1.2247,3.3909,3.3243,3.2633,3.2052,3.1496,3.0937,3.0372,2.9804,2.9222,2.9213,2.8957,2.8938,2.879,2.8361,2.8008,2.7471,2.7095,2.693,2.6709,2.67,2.6691,2.6691,2.6691,2.6691,2.6682,2.7107,2.7215,2.7215,2.7107,2.6989,2.6536,2.62,2.5863,2.5083,2.4333,2.4035,2.3661,2.2823,2.2114,2.1497,2.0979,2.0269,1.9569,1.916,1.8959,1.8952,1.8952,1.8848,1.8632,1.8213,1.7905,1.8003,1.8199,1.8401,1.8345,1.8681,1.924,1.9411,1.9281,1.9161,1.9261,1.9492,1.9557,1.9823,2.0276,2.0471,2.0699,2.1284,2.1972,2.2765,2.3464,2.3119,2.2893,2.2667,2.2101,2.1402,2.0816,2.0831,2.0601,2.0371,2.0134,2.0026,1.9795,1.9441,1.91,1.857,1.7989,1.7461,1.7097,1.6566,1.6055,1.542,1.4785,1.4317,1.343,1.3177,1.2964,1.284,1.2836,1.2836,1.2836,1.2775,1.271,1.2763,1.2771,1.2787,1.2763,1.2678,1.2609,1.258,1.256,1.2536,1.2475,1.2398,1.2274,3.2685,3.2008,3.1401,3.0937,3.0606,3.0265,2.9865,2.9568,2.9148,2.8975,2.8911,2.8636,2.8452,2.8187,2.7591,2.7077,2.6784,2.6619,2.6591,2.6591,2.6591,2.6591,2.6582,2.6354,2.6127,2.6127,2.6345,2.6573,2.6564,2.6236,2.5551,2.5101,2.4514,2.3577,2.274,2.229,2.2071,2.1399,2.079,2.0269,1.965,1.9138,1.8527,1.801,1.7911,1.7701,1.7589,1.7371,1.7047,1.6942,1.6743,1.6743,1.698,1.7404,1.7729,1.7869,1.8224,1.8386,1.8387,1.8496,1.8685,1.8908,1.8921,1.907,1.9361,1.9354,1.9476,2.0092,2.0716,2.1402,2.2222,2.1866,2.1638,2.1288,2.0709,2.0019,1.955,1.9087,1.8739,1.8739,1.8739,1.8855,1.8622,1.8389,1.7806,1.7475,1.7029,1.6464,1.5839,1.5499,1.5043,1.4465,1.3853,1.3477,1.296,1.2955,1.2836,1.2836,1.2836,1.2836,1.2836,1.2836,1.2836,1.2836,1.2836,1.282,1.28,1.2779,1.2636,1.2584,1.2588,1.2722,1.2536,1.2346,1.2263,3.0734,3.0185,2.9489,2.9144,2.9038,2.8932,2.87,2.8584,2.8468,2.8352,2.8297,2.8141,2.7939,2.7701,2.7407,2.6967,2.6674,2.6591,2.6591,2.6591,2.6591,2.6591,2.6473,2.6136,2.5551,2.5101,2.5,2.5229,2.5569,2.4889,2.4317,2.371,2.3047,2.1993,2.124,2.0872,2.0551,2.0059,1.9665,1.9242,1.8833,1.8213,1.7793,1.7483,1.7279,1.7166,1.6948,1.6836,1.6706,1.6712,1.6535,1.6565,1.659,1.6832,1.7105,1.7001,1.7213,1.7399,1.7531,1.7489,1.7591,1.7944,1.8014,1.802,1.8093,1.8052,1.8298,1.8868,1.921,1.9781,2.0587,2.0242,2.0012,1.9666,1.9203,1.8622,1.8156,1.7578,1.7244,1.7132,1.7497,1.7614,1.7578,1.7226,1.6638,1.6237,1.591,1.5443,1.4798,1.4605,1.4408,1.3884,1.3363,1.3099,1.2836,1.2836,1.2836,1.2836,1.2836,1.2836,1.2704,1.2704,1.2836,1.2836,1.2836,1.2704,1.27,1.268,1.2565,1.2576,1.2413,1.2262,1.2285,1.2173,1.2177,2.8859,2.8437,2.7879,2.7651,2.7651,2.766,2.7669,2.7651,2.7687,2.7582,2.7642,2.7559,2.7246,2.7112,2.6846,2.6636,2.6364,2.6245,2.6245,2.6136,2.6136,2.6245,2.6026,2.5459,2.477,2.3855,2.3303,2.3416,2.3863,2.3295,2.2814,2.2119,2.1219,2.0368,1.9699,1.9334,1.9127,1.8829,1.8527,1.8304,1.8003,1.7687,1.7272,1.7067,1.7067,1.6849,1.663,1.6524,1.6561,1.6507,1.6611,1.6673,1.6698,1.6704,1.663,1.6369,1.639,1.6486,1.6678,1.678,1.6906,1.7086,1.7062,1.6949,1.6932,1.7126,1.7244,1.7929,1.8156,1.8389,1.8964,1.8848,1.8506,1.8273,1.7929,1.7349,1.702,1.6465,1.6062,1.6181,1.6402,1.6369,1.634,1.6053,1.5461,1.5241,1.4891,1.4715,1.4229,1.4171,1.3884,1.3494,1.3104,1.2968,1.2836,1.2836,1.2836,1.2836,1.2836,1.2836,1.2704,1.2704,1.2704,1.2572,1.2441,1.2309,1.2441,1.2444,1.2444,1.2177,1.1912,1.1912,1.2045,1.1912,1.1909,2.7851,2.7528,2.7185,2.6973,2.6937,2.692,2.6946,2.7043,2.7016,2.6973,2.6972,2.6703,2.6515,2.6399,2.6011,2.5741,2.5459,2.534,2.511,2.4889,2.488,2.488,2.4778,2.4103,2.3303,2.2507,2.1843,2.1836,2.1934,2.1586,2.0998,2.0365,1.9675,1.8762,1.8121,1.7921,1.7333,1.7099,1.7047,1.7047,1.6942,1.6942,1.6836,1.6743,1.6537,1.6455,1.6361,1.6166,1.618,1.6302,1.6332,1.6441,1.6604,1.6642,1.6613,1.6609,1.6564,1.6706,1.6815,1.6716,1.6599,1.6669,1.6698,1.6621,1.6532,1.6537,1.6655,1.712,1.7114,1.7343,1.7812,1.7818,1.7713,1.7355,1.6885,1.6408,1.607,1.5736,1.5324,1.5049,1.5297,1.5057,1.498,1.457,1.4306,1.4086,1.3873,1.3701,1.3658,1.3578,1.3621,1.3099,1.2972,1.2836,1.2836,1.2836,1.2836,1.2836,1.284,1.2704,1.2704,1.2572,1.2441,1.2309,1.2177,1.2041,1.2045,1.2177,1.2045,1.1912,1.1648,1.1648,1.178,1.178,1.1516,2.6184,2.6408,2.6314,2.6193,2.6193,2.6193,2.6193,2.6193,2.6193,2.6193,2.6175,2.6025,2.5927,2.5789,2.5392,2.4898,2.4445,2.4103,2.364,2.3287,2.3287,2.3287,2.3063,2.25,2.1707,2.1045,2.0249,1.9557,1.9774,1.9991,1.9793,1.9435,1.8592,1.8019,1.7315,1.706,1.6882,1.6755,1.6723,1.6723,1.6723,1.673,1.6636,1.6543,1.623,1.6095,1.5982,1.5796,1.5789,1.6063,1.6185,1.6284,1.6562,1.6592,1.6599,1.6552,1.6434,1.6423,1.6632,1.6537,1.6537,1.6537,1.6419,1.6419,1.6307,1.6188,1.6065,1.6183,1.6183,1.6414,1.6537,1.6537,1.6425,1.6194,1.6007,1.5639,1.5319,1.4973,1.4597,1.444,1.427,1.4189,1.4137,1.4043,1.3737,1.3446,1.3403,1.3523,1.3289,1.3206,1.3062,1.2968,1.2836,1.2836,1.2836,1.2836,1.2704,1.2708,1.2716,1.2716,1.2444,1.2309,1.2204,1.206,1.1916,1.1912,1.1776,1.1644,1.1648,1.1516,1.1251,1.1383,1.1383,1.1262,1.0996,2.5034,2.5467,2.5459,2.5467,2.5467,2.5467,2.5476,2.5476,2.5503,2.5485,2.5476,2.5375,2.5366,2.5128,2.4565,2.388,2.3311,2.2757,2.2176,2.182,2.1593,2.1586,2.1479,2.0916,2.0343,1.9557,1.9107,1.8525,1.8175,1.8273,1.8822,1.8751,1.7938,1.7403,1.7171,1.6792,1.6549,1.6424,1.6411,1.6455,1.6518,1.6536,1.6479,1.63,1.6115,1.5964,1.5806,1.562,1.5743,1.6023,1.6115,1.6304,1.6494,1.6529,1.6434,1.6425,1.6172,1.6183,1.6194,1.6183,1.6301,1.6301,1.6301,1.607,1.5963,1.5726,1.5601,1.5715,1.572,1.572,1.5612,1.5645,1.572,1.5632,1.5298,1.4917,1.4595,1.443,1.4222,1.4075,1.3884,1.3622,1.36,1.3654,1.3447,1.3008,1.2901,1.3178,1.3051,1.2886,1.2791,1.2836,1.2704,1.2572,1.2572,1.2572,1.2572,1.2592,1.2604,1.2527,1.2425,1.2151,1.1888,1.1858,1.1685,1.1387,1.1251,1.1247,1.1115,1.1118,1.0986,1.0853,1.0857,1.0744,1.0778,2.4821,2.4821,2.4932,2.4932,2.4932,2.4821,2.4923,2.4932,2.4932,2.4932,2.4923,2.4599,2.4368,2.3904,2.3328,2.2636,2.1729,2.1395,2.0823,2.0486,2.0385,2.0256,2.0141,1.9673,1.921,1.8874,1.8421,1.7954,1.7602,1.7713,1.7683,1.7244,1.7291,1.6855,1.663,1.6588,1.6392,1.627,1.612,1.6199,1.6308,1.6387,1.6246,1.6204,1.6151,1.608,1.5772,1.5654,1.5665,1.6079,1.5991,1.6059,1.6245,1.6397,1.6301,1.6087,1.6103,1.5979,1.5844,1.5839,1.572,1.572,1.572,1.5715,1.572,1.5601,1.5601,1.5601,1.5601,1.5601,1.5547,1.5528,1.5492,1.5292,1.4978,1.4583,1.4294,1.4103,1.3866,1.37,1.3594,1.3311,1.3178,1.3204,1.3106,1.2666,1.2787,1.2925,1.2992,1.2808,1.2816,1.2704,1.2441,1.2441,1.2309,1.2309,1.2177,1.2231,1.2269,1.2243,1.221,1.1917,1.1742,1.1404,1.1231,1.1042,1.0721,1.085,1.0982,1.085,1.0724,1.0734,1.0802,1.0867,1.0904,2.4821,2.4821,2.4821,2.4821,2.4821,2.4821,2.4821,2.4821,2.4821,2.4821,2.471,2.4264,2.3801,2.3223,2.2191,2.1274,2.0242,1.9679,1.9223,1.8758,1.8532,1.8532,1.8415,1.8415,1.8181,1.8064,1.7719,1.7602,1.7485,1.7485,1.7449,1.7322,1.7183,1.702,1.6803,1.6598,1.6459,1.63,1.6148,1.6109,1.6151,1.5981,1.5916,1.5879,1.5676,1.5659,1.5646,1.5456,1.5599,1.5737,1.5792,1.5864,1.5924,1.5946,1.5957,1.5855,1.5855,1.5731,1.5607,1.5601,1.5601,1.5601,1.5601,1.5601,1.5601,1.5601,1.5601,1.5601,1.5618,1.5515,1.5525,1.545,1.5344,1.5034,1.478,1.4307,1.3925,1.3696,1.3496,1.3272,1.3198,1.2967,1.2963,1.2967,1.2705,1.2586,1.2621,1.2751,1.2672,1.2704,1.2572,1.2441,1.2309,1.2041,1.2041,1.1909,1.1776,1.1847,1.1926,1.1965,1.196,1.1931,1.161,1.126,1.1039,1.0839,1.0782,1.0867,1.085,1.0717,1.0741,1.0765,1.0856,1.0978,1.104,2.4718,2.4821,2.4821,2.4821,2.4821,2.4821,2.4821,2.4821,2.4821,2.471,2.4487,2.3689,2.299,2.2184,2.1045,1.9903,1.8861,1.8292,1.7713,1.7479,1.7361,1.7244,1.7244,1.7244,1.7244,1.725,1.7244,1.7126,1.7126,1.725,1.7114,1.7055,1.7077,1.6958,1.7014,1.6845,1.67,1.647,1.6352,1.6191,1.6095,1.6017,1.5875,1.58,1.573,1.5665,1.5665,1.5476,1.5418,1.5526,1.558,1.5591,1.5601,1.5601,1.5601,1.5601,1.5601,1.5601,1.5601,1.5601,1.5601,1.5601,1.5477,1.5477,1.5483,1.5369,1.5266,1.5366,1.5356,1.5481,1.5413,1.5335,1.5107,1.4822,1.4599,1.4226,1.3727,1.3431,1.3185,1.2816,1.2873,1.2791,1.2787,1.2775,1.2722,1.2629,1.2441,1.2529,1.2549,1.2441,1.2309,1.2177,1.1909,1.1776,1.1644,1.1512,1.139,1.1592,1.1578,1.1706,1.1678,1.166,1.1635,1.1307,1.1067,1.0928,1.0843,1.0789,1.0748,1.0721,1.0782,1.087,1.0995,1.1121,1.1196,2.4352,2.4812,2.4804,2.4693,2.471,2.4821,2.4821,2.4821,2.471,2.4368,2.3792,2.2644,2.1608,2.0694,1.9557,1.8525,1.7824,1.7238,1.7003,1.6773,1.6773,1.6655,1.6655,1.6655,1.6773,1.6537,1.6655,1.6655,1.6649,1.6655,1.6661,1.6661,1.6715,1.6739,1.6984,1.6845,1.6488,1.6251,1.6174,1.6217,1.6115,1.6051,1.5915,1.5898,1.5937,1.5724,1.5617,1.5521,1.5553,1.5585,1.5601,1.5601,1.5477,1.5483,1.5483,1.5483,1.5483,1.5483,1.5601,1.5601,1.5483,1.5483,1.5359,1.5235,1.5121,1.4914,1.4746,1.4867,1.4948,1.5059,1.5117,1.5182,1.4862,1.4563,1.4313,1.4025,1.3509,1.3253,1.2873,1.2743,1.2787,1.2832,1.2832,1.2828,1.2824,1.2672,1.2429,1.2441,1.2309,1.2177,1.2045,1.178,1.1644,1.1516,1.1247,1.0982,1.0874,1.1073,1.1365,1.1483,1.1523,1.1557,1.1526,1.1338,1.1219,1.107,1.0945,1.0836,1.087,1.0917,1.0945,1.1029,1.1151,1.126,1.1345,2.3553,2.3879,2.3888,2.403,2.4239,2.459,2.4821,2.471,2.4368,2.3784,2.2854,2.1714,2.0336,1.9312,1.8396,1.7596,1.6891,1.6773,1.6537,1.6537,1.6419,1.6537,1.6543,1.6425,1.6425,1.6537,1.6537,1.6419,1.6537,1.6419,1.6537,1.6543,1.6419,1.6615,1.6663,1.6547,1.6524,1.6408,1.6309,1.6121,1.6066,1.5948,1.5746,1.5839,1.5839,1.572,1.5596,1.5601,1.5601,1.5601,1.5601,1.5477,1.5353,1.5235,1.5131,1.5012,1.4893,1.4888,1.4888,1.5007,1.5126,1.525,1.5261,1.5017,1.4759,1.4545,1.4402,1.4387,1.4399,1.449,1.4562,1.4492,1.4194,1.3983,1.3708,1.3426,1.307,1.2943,1.2816,1.2808,1.2832,1.2869,1.2881,1.2946,1.2954,1.266,1.2535,1.2336,1.2316,1.2045,1.178,1.1516,1.1247,1.1118,1.0853,1.0721,1.0806,1.1181,1.1323,1.1389,1.1396,1.1521,1.1491,1.1413,1.1314,1.1209,1.1087,1.1009,1.1097,1.1151,1.1172,1.1192,1.1274,1.1399,1.1514,2.2634,2.2953,2.2953,2.3064,2.3492,2.4206,2.4487,2.4144,2.3456,2.2636,2.1707,2.0451,1.919,1.804,1.7238,1.6773,1.6183,1.6183,1.6188,1.6183,1.6183,1.6188,1.6188,1.6177,1.607,1.6183,1.6183,1.6183,1.6188,1.6183,1.6183,1.6188,1.6188,1.6177,1.6161,1.6267,1.6385,1.6368,1.6138,1.6037,1.5935,1.5704,1.5591,1.5601,1.5601,1.5601,1.5601,1.5601,1.5601,1.5601,1.5596,1.5472,1.5224,1.4992,1.4779,1.455,1.4301,1.4296,1.4291,1.4286,1.4555,1.4766,1.4871,1.4751,1.4425,1.4231,1.4009,1.3992,1.3959,1.4051,1.4011,1.4038,1.3806,1.3466,1.3375,1.3091,1.2984,1.2856,1.2865,1.286,1.2925,1.2942,1.299,1.3039,1.31,1.2799,1.2496,1.2288,1.209,1.1821,1.1559,1.1294,1.115,1.1014,1.0871,1.0721,1.0829,1.1135,1.1286,1.1294,1.146,1.1582,1.1535,1.1484,1.1392,1.1301,1.1219,1.1196,1.1257,1.1331,1.1396,1.1409,1.1423,1.1501,1.1609,2.1624,2.1918,2.1949,2.2148,2.26,2.3221,2.3511,2.3352,2.2085,2.1266,2.0444,1.8958,1.7929,1.6997,1.6312,1.5941,1.5671,1.5671,1.5633,1.5628,1.5563,1.5601,1.5622,1.5639,1.5633,1.5677,1.5709,1.5833,1.5601,1.5715,1.5715,1.5715,1.572,1.572,1.5833,1.607,1.6194,1.6081,1.5963,1.5844,1.572,1.5601,1.5601,1.5601,1.5601,1.5601,1.5601,1.5601,1.5601,1.5601,1.5477,1.5348,1.51,1.4743,1.4426,1.4086,1.3827,1.3693,1.3693,1.3693,1.3802,1.4042,1.4269,1.4255,1.4057,1.3812,1.3586,1.3585,1.3554,1.369,1.3683,1.3696,1.3578,1.346,1.3333,1.3116,1.2873,1.2885,1.2901,1.2946,1.2921,1.2986,1.3086,1.3138,1.2838,1.2682,1.2372,1.2184,1.1847,1.139,1.1121,1.1114,1.096,1.0785,1.0782,1.0826,1.0941,1.1272,1.132,1.1314,1.1484,1.1616,1.1582,1.1535,1.1467,1.1399,1.1355,1.1355,1.1392,1.1467,1.1521,1.1535,1.1518,1.1541,1.1616,2.0736,2.0932,2.1054,2.114,2.134,2.0891,2.1279,2.1911,2.1031,1.9991,1.859,1.78,1.6944,1.6065,1.5839,1.5606,1.5402,1.5327,1.5208,1.5176,1.5171,1.5112,1.5165,1.5278,1.5327,1.5418,1.5499,1.5601,1.5601,1.5601,1.5601,1.5601,1.5601,1.5601,1.5601,1.572,1.5839,1.5839,1.572,1.572,1.5601,1.5601,1.5601,1.5601,1.5601,1.5601,1.5601,1.5601,1.5483,1.5359,1.5235,1.4981,1.4455,1.4133,1.3818,1.3213,1.2964,1.2964,1.2982,1.3094,1.3206,1.3327,1.3622,1.369,1.3577,1.3387,1.3157,1.3113,1.3068,1.3295,1.3337,1.3218,1.3227,1.3099,1.3124,1.3046,1.2946,1.3011,1.3039,1.3038,1.3138,1.3046,1.3007,1.2873,1.257,1.2417,1.212,1.1946,1.174,1.1278,1.0958,1.0955,1.0958,1.0938,1.0992,1.104,1.1145,1.1257,1.1287,1.1352,1.1514,1.1616,1.1616,1.1589,1.1535,1.1528,1.1528,1.1525,1.1504,1.1538,1.1589,1.1606,1.1616,1.1616,1.1616,1.9896,2.0076,2.0076,2.0052,1.991,1.9283,1.9215,1.9371,1.9072,1.8167,1.725,1.668,1.6008,1.5411,1.5284,1.5225,1.5112,1.5101,1.5036,1.4972,1.4859,1.4918,1.4977,1.5095,1.5241,1.5332,1.5451,1.5601,1.5601,1.5601,1.5601,1.5601,1.5601,1.5601,1.5601,1.5601,1.5477,1.5477,1.5477,1.5601,1.5601,1.5601,1.5601,1.5601,1.5601,1.5601,1.5601,1.5601,1.5359,1.5116,1.4997,1.4614,1.3989,1.343,1.2973,1.2492,1.2371,1.2371,1.2397,1.2538,1.2653,1.2811,1.3037,1.3144,1.3212,1.3139,1.3055,1.2841,1.2775,1.2832,1.2836,1.2836,1.2836,1.2836,1.2913,1.299,1.3068,1.3157,1.3142,1.3149,1.3078,1.2971,1.2715,1.2576,1.2322,1.2226,1.2104,1.1949,1.1706,1.1317,1.1118,1.108,1.1101,1.1114,1.1175,1.1212,1.126,1.1318,1.1345,1.1426,1.1569,1.1616,1.1616,1.1616,1.1609,1.1599,1.1582,1.1596,1.1592,1.1616,1.1616,1.1616,1.1616,1.1616,1.1616,1.9279,1.9286,1.9272,1.9027,1.8434,1.8141,1.7376,1.6269,1.661,1.6422,1.6127,1.5581,1.5285,1.4993,1.4993,1.4939,1.4875,1.4859,1.481,1.4826,1.4729,1.4719,1.4805,1.5042,1.5042,1.5219,1.5408,1.5531,1.5591,1.5601,1.5601,1.5601,1.5601,1.5601,1.5601,1.5601,1.5477,1.5235,1.5235,1.5359,1.5364,1.5483,1.5483,1.5483,1.5483,1.5483,1.5483,1.5483,1.5359,1.4997,1.4629,1.4262,1.3477,1.2946,1.2348,1.2109,1.202,1.202,1.2069,1.2192,1.2316,1.2459,1.2487,1.2763,1.2983,1.3012,1.2898,1.2771,1.2824,1.2836,1.2836,1.2844,1.2848,1.2909,1.299,1.3124,1.3267,1.3239,1.3245,1.3216,1.2826,1.2715,1.2608,1.2328,1.2034,1.2126,1.1998,1.1848,1.1643,1.1358,1.1301,1.1243,1.128,1.1307,1.1301,1.1335,1.1338,1.1372,1.1413,1.147,1.1589,1.1616,1.1616,1.1616,1.1616,1.1616,1.1613,1.1616,1.1616,1.1616,1.1616,1.1616,1.1616,1.1616,1.1616,1.9272,1.9279,1.9071,1.859,1.7788,1.7002,1.6192,1.5321,1.4898,1.5,1.5164,1.5101,1.4977,1.4826,1.4821,1.4762,1.4638,1.4611,1.4503,1.4444,1.4412,1.446,1.4449,1.4596,1.4649,1.4848,1.5074,1.5349,1.5456,1.5483,1.5601,1.5601,1.5483,1.5483,1.5483,1.5483,1.5364,1.4997,1.4878,1.4878,1.4764,1.4888,1.4888,1.4888,1.4888,1.4888,1.4888,1.4769,1.465,1.4411,1.4043,1.3518,1.2804,1.2593,1.242,1.2178,1.2138,1.2125,1.2166,1.2264,1.2398,1.2503,1.2637,1.2747,1.2816,1.2964,1.2968,1.2836,1.2836,1.2836,1.2848,1.286,1.2893,1.2982,1.31,1.3287,1.347,1.3332,1.3334,1.2948,1.269,1.2434,1.2323,1.2191,1.1903,1.176,1.1753,1.1603,1.1739,1.1514,1.1494,1.146,1.1501,1.1514,1.1477,1.1453,1.1453,1.1484,1.1528,1.1575,1.1613,1.1616,1.1616,1.1616,1.1616,1.1616,1.1616,1.1616,1.1616,1.1616,1.1616,1.1616,1.1616,1.1616,1.1616,1.906,1.9081,1.8805,1.8115,1.7153,1.6405,1.5565,1.4719,1.4299,1.4331,1.4552,1.4579,1.4579,1.4579,1.4573,1.4557,1.4406,1.4385,1.4331,1.4234,1.4196,1.4218,1.4309,1.4382,1.4479,1.46,1.4719,1.5027,1.511,1.5126,1.5126,1.5126,1.5126,1.5126,1.5126,1.5126,1.5007,1.4639,1.4401,1.4162,1.4047,1.4047,1.4172,1.4172,1.4172,1.4172,1.4172,1.4172,1.4047,1.3688,1.332,1.295,1.2427,1.2345,1.2414,1.2341,1.2284,1.2304,1.2365,1.2462,1.2576,1.2633,1.2731,1.282,1.2828,1.2836,1.2836,1.2836,1.2836,1.2836,1.2893,1.2921,1.2986,1.3068,1.3291,1.3375,1.3368,1.335,1.2989,1.2577,1.2309,1.2169,1.2047,1.1903,1.1763,1.1763,1.1619,1.1619,1.1616,1.1616,1.1616,1.1616,1.1616,1.1616,1.1569,1.1558,1.1572,1.1603,1.1616,1.1616,1.1616,1.1616,1.1616,1.1616,1.1616,1.1616,1.1616,1.1616,1.1616,1.1616,1.1616,1.1616,1.1616,1.1616,1.1616,1.876,1.8731,1.8407,1.7681,1.6624,1.5986,1.5148,1.4299,1.4196,1.4196,1.4229,1.4234,1.4196,1.4196,1.4196,1.4196,1.4213,1.425,1.4207,1.4202,1.4196,1.4196,1.4217,1.4209,1.4239,1.4225,1.4291,1.438,1.4525,1.4525,1.453,1.453,1.453,1.453,1.4535,1.4416,1.4411,1.4047,1.3684,1.3444,1.3329,1.3449,1.3569,1.3569,1.3569,1.3569,1.3569,1.3569,1.3444,1.3227,1.2888,1.2555,1.2441,1.2391,1.2423,1.2379,1.2458,1.2446,1.2454,1.2556,1.2605,1.2657,1.2771,1.2828,1.2832,1.2836,1.2836,1.2836,1.2836,1.2852,1.2913,1.2881,1.3084,1.3078,1.3331,1.3408,1.3231,1.3178,1.2757,1.2191,1.2047,1.1907,1.176,1.1616,1.1616,1.1616,1.1616,1.1616,1.1616,1.1616,1.1616,1.1616,1.1616,1.1616,1.1616,1.1606,1.1603,1.1616,1.1616,1.1616,1.1616,1.1616,1.1616,1.1616,1.1616,1.1616,1.1616,1.1616,1.1616,1.1609,1.1616,1.1616,1.1616,1.1616,1.1616,1.8454,1.8418,1.7991,1.7259,1.6293,1.5559,1.4826,1.4304,1.4196,1.4196,1.4196,1.4196,1.4196,1.4196,1.4196,1.4196,1.4196,1.4196,1.4196,1.4196,1.4083,1.4196,1.4054,1.392,1.3811,1.372,1.3626,1.362,1.3751,1.3808,1.3928,1.3933,1.3928,1.3808,1.3808,1.3808,1.3688,1.3444,1.3084,1.2844,1.2599,1.2719,1.2844,1.284,1.284,1.284,1.284,1.2844,1.2942,1.2986,1.2873,1.2564,1.2467,1.2511,1.2572,1.2572,1.2653,1.2661,1.2682,1.2706,1.2735,1.2747,1.2832,1.2832,1.2836,1.2836,1.2836,1.2704,1.2704,1.2704,1.2773,1.2953,1.3066,1.2984,1.3064,1.2909,1.2877,1.2613,1.2334,1.2051,1.1903,1.176,1.1616,1.1616,1.1616,1.1616,1.1616,1.1616,1.1616,1.1616,1.1616,1.1616,1.1616,1.1616,1.1616,1.1589,1.1582,1.1603,1.1616,1.1616,1.1616,1.1616,1.1616,1.1616,1.1616,1.1616,1.1616,1.1616,1.1596,1.1589,1.1609,1.1616,1.1609,1.1616,1.1616]},{"header":{"parameterUnit":"m.s-1","parameterCategory":1,"la1":31.0,"la2":29.5877,"lo1":-88.7671,"lo2":-86.6584,"dy":0.0162,"dx":0.0185,"nx":115,"ny":88,"refTime":"2026-04-25T12:00:00:Z","depth":0,"parameterNumber":3,"parameterNumberName":"V-component_of_WINDS"},"data":[0.0,0.0,0.0,0.0,0.0,0.0,0.0,0.0,0.0,0.0,0.0,0.0,0.0,0.0,0.0,0.0,0.0,0.0,0.0,0.0,0.0,0.0,0.0,0.0,0.0,0.0,0.0,0.0,0.0,0.0,0.0,0.0,0.0,0.0,0.0,0.0,0.0,0.0,0.0,0.0,0.0,0.0,0.0,0.0,0.0,0.0,0.0,0.0,0.0,0.0,0.0,0.0,0.0,0.0,0.0,0.0,0.0,0.0,0.0,0.0,0.0,0.0,0.0,0.0,0.0,0.0,0.0,0.0,0.0,0.0,0.0,0.0,0.0,0.0,0.0,0.0,0.0,0.0,0.0,0.0,0.0,0.0,0.0,0.0,0.0,0.0,0.0,0.0,0.0,0.0,0.0,0.0,0.0,0.0,0.0,0.0,0.0,0.0,0.0,0.0,0.0,0.0,0.0,0.0,0.0,0.0,0.0,0.0,0.0,0.0,0.0,0.0,0.0,0.0,0.0,0.0,0.0,0.0,0.0,0.0,0.0,0.0,0.0,0.0,0.0,0.0,0.0,0.0,0.0,0.0,0.0,0.0,0.0,0.0,0.0,0.0,0.0,0.0,0.0,0.0,0.0,0.0,0.0,0.0,0.0,0.0,0.0,0.0,0.0,0.0,0.0,0.0,0.0,0.0,0.0,0.0,0.0,0.0,0.0,0.0,0.0,0.0,0.0,0.0,0.0,0.0,0.0,0.0,0.0,0.0,0.0,0.0,0.0,0.0,0.0,0.0,0.0,0.0,0.0,0.0,0.0,0.0,0.0,0.0,0.0,0.0,0.0,0.0,0.0,0.0,0.0,0.0,0.0,0.0,0.0,0.0,0.0,0.0,0.0,0.0,0.0,0.0,0.0,0.0,0.0,0.0,0.0,0.0,0.0,0.0,0.0,0.0,0.0,0.0,0.0,0.0,0.0,0.0,0.0,0.0,0.0,0.0,0.0,0.0,0.0,0.0,0.0,0.0,0.0,0.0,0.0,0.0,0.0,0.0,0.0,0.0,0.0,0.0,0.0,0.0,0.0,0.0,0.0,0.0,0.0,0.0,0.0,0.0,0.0,0.0,0.0,0.0,0.0,0.0,0.0,0.0,0.0,0.0,0.0,0.0,0.0,0.0,0.0,0.0,0.0,0.0,0.0,0.0,0.0,0.0,0.0,0.0,0.0,0.0,0.0,0.0,0.0,0.0,0.0,0.0,0.0,0.0,0.0,0.0,0.0,0.0,0.0,0.0,0.0,0.0,0.0,0.0,0.0,0.0,0.0,0.0,0.0,0.0,0.0,0.0,0.0,0.0,0.0,0.0,0.0,0.0,0.0,0.0,0.0,0.0,0.0,0.0,0.0,0.0,0.0,0.0,0.0,0.0,0.0,0.0,0.0,0.0,0.0,0.0,0.0,0.0,0.0,0.0,0.0,0.0,0.0,0.0,0.0,0.0,0.0,0.0,0.0,0.0,0.0,0.0,0.0,0.0,0.0,0.0,0.0,0.0,0.0,0.0,0.0,0.0,0.0,0.0,0.0,0.0,0.0,0.0,0.0,0.0,0.0,0.0,0.0,0.0,0.0,0.0,0.0,0.0,0.0,0.0,0.0,0.0,0.0,0.0,0.0,0.0,0.0,0.0,0.0,0.0,0.0,0.0,0.0,0.0,0.0,0.0,0.0,0.0,0.0,0.0,0.0,0.0,0.0,0.0,0.0,0.0,0.0,0.0,0.0,0.0,0.0,0.0,0.0,0.0,0.0,0.0,0.0,0.0,0.0,0.0,0.0,0.0,0.0,0.0,0.0,0.0,0.0,0.0,0.0,0.0,0.0,0.0,0.0,0.0,0.0,0.0,0.0,0.0,0.0,0.0,0.0,0.0,0.0,0.0,0.0,0.0,0.0,0.0,0.0,0.0,0.0,0.0,0.0,0.0,0.0,0.0,0.0,0.0,0.0,0.0,0.0,0.0,0.0,0.0,0.0,0.0,0.0,0.0,0.0,0.0,0.0,0.0,0.0,0.0,0.0,0.0,0.0,0.0,0.0,0.0,0.0,0.0,0.0,0.0,0.0,0.0,0.0,0.0,0.0,0.0,0.0,0.0,0.0,0.0,0.0,0.0,0.0,0.0,0.0,0.0,0.0,0.0,0.0,0.0,0.0,0.0,0.0,0.0,0.0,0.0,0.0,0.0,0.0,0.0,0.0,0.0,0.0,0.0,0.0,0.0,0.0,0.0,0.0,0.0,0.0,0.0,0.0,0.0,0.0,0.0,0.0,0.0,0.0,0.0,0.0,0.0,0.0,0.0,0.0,0.0,0.0,0.0,0.0,0.0,0.0,0.0,0.0,0.0,0.0,0.0,0.0,0.0,0.0,0.0,0.0,0.0,0.0,0.0,0.0,0.0,0.0,0.0,0.0,0.0,0.0,0.0,0.0,0.0,0.0,0.0,0.0,0.0,0.0,0.0,0.0,0.0,0.0,0.0,0.0,0.0,0.0,0.0,0.0,0.0,0.0,0.0,0.0,0.0,0.0,0.0,0.0,0.0,0.0,0.0,0.0,0.0,0.0,0.0,0.0,0.0,0.0,0.0,0.0,0.0,0.0,0.0,0.0,0.0,0.0,0.0,0.0,0.0,0.0,0.0,0.0,0.0,0.0,0.0,0.0,0.0,0.0,0.0,0.0,0.0,0.0,0.0,0.0,0.0,0.0,0.0,0.0,0.0,0.0,0.0,0.0,0.0,0.0,0.0,0.0,0.0,0.0,0.0,0.0,0.0,0.0,0.0,0.0,0.0,0.0,0.0,0.0,0.0,0.0,0.0,0.0,0.0,0.0,0.0,0.0,0.0,0.0,0.0,0.0,0.0,0.0,0.0,0.0,0.0,0.0,0.0,0.0,0.0,0.0,0.0,0.0,0.0,0.0,0.0,0.0,0.0,0.0,0.0,0.0,0.0,0.0,0.0,0.0,0.0,0.0,0.0,0.0,0.0,0.0,0.0,0.0,0.0,0.0,0.0,0.0,0.0,0.0,0.0,0.0,0.0,0.0,0.0,0.0,0.0,0.0,0.0,0.0,0.0,0.0,0.0,0.0,0.0,0.0,0.0,0.0,0.0,0.0,0.0,0.0,0.0,0.0,0.0,0.0,0.0,0.0,0.0,0.0,0.0,0.0,0.0,0.0,0.0,0.0,0.0,0.0,0.0,0.0,0.0,0.0,0.0,0.0,0.0,0.0,0.0,0.0,0.0,0.0,0.0,0.0,0.0,0.0,0.0,0.0,0.0,0.0,0.0,0.0,0.0,0.0,0.0,0.0,0.0,0.0,0.0,0.0,0.0,0.0,0.0,0.0,0.0,0.0,0.0,0.0,0.0,0.0,0.0,0.0,0.0,0.0,0.0,0.0,0.0,0.0,0.0,0.0,0.0,0.0,0.0,0.0,0.0,0.0,0.0,0.0,0.0,0.0,0.0,0.0,0.0,0.0,0.0,0.0,0.0,0.0,0.0,0.0,0.0,0.0,0.0,0.0,0.0,0.0,0.0,0.0,0.0,0.0,0.0,0.0,0.0,0.0,0.0,0.0,0.0,0.0,0.0,0.0,0.0,0.0,0.0,0.0,0.0,0.0,0.0,0.0,0.0,0.0,0.0,0.0,0.0,0.0,0.0,0.0,0.0,0.0,0.0,0.0,0.0,0.0,0.0,0.0,0.0,0.0,0.0,0.0,0.0,0.0,0.0,0.0,0.0,0.0,0.0,0.0,0.0,0.0,0.0,0.0,0.0,0.0,0.0,0.0,0.0,0.0,0.0,0.0,0.0,0.0,0.0,0.0,0.0,0.0,0.0,0.0,0.0,0.0,0.0,0.0,0.0,0.0,0.0,0.0,0.0,0.0,0.0,0.0,0.0,0.0,0.0,0.0,0.0,0.0,0.0,0.0,0.0,0.0,0.0,0.0,0.0,0.0,0.0,0.0,0.0,0.0,0.0,0.0,0.0,0.0,0.0,0.0,0.0,0.0,0.0,0.0,0.0,0.0,0.0,0.0,0.0,0.0,0.0,0.0,0.0,0.0,0.0,0.0,0.0,0.0,0.0,0.0,0.0,0.0,0.0,0.0,0.0,0.0,0.0,0.0,0.0,0.0,0.0,0.0,0.0,0.0,0.0,0.0,0.0,0.0,0.0,0.0,0.0,0.0,0.0,0.0,0.0,0.0,0.0,0.0,0.0,0.0,0.0,0.0,0.0,0.0,0.0,0.0,0.0,-0.8804,0.0,0.0,0.0,0.0,0.0,0.0,0.0,0.0,0.0,0.0,0.0,0.0,0.0,0.0,0.0,0.0,0.0,0.0,0.0,0.0,0.0,0.0,0.0,0.0,0.0,0.0,0.0,0.0,0.0,0.0,0.0,0.0,0.0,0.0,0.0,0.0,0.0,0.0,0.0,0.0,0.0,0.0,0.0,0.0,0.0,0.0,0.0,0.0,0.0,0.0,0.0,0.0,0.0,0.0,0.0,0.0,0.0,0.0,0.0,0.0,0.0,0.0,0.0,0.0,0.0,0.0,0.0,0.0,0.0,0.0,0.0,0.0,0.0,0.0,0.0,0.0,0.0,0.0,0.0,0.0,0.0,0.0,0.0,0.0,0.0,0.0,0.0,0.0,0.0,0.0,0.0,0.0,0.0,0.0,0.0,0.0,0.0,0.0,0.0,0.0,0.0,0.0,0.0,0.0,0.0,0.0,0.0,0.0,0.0,0.0,-0.8804,-0.8804,-0.8804,-0.8804,-0.8804,0.0,0.0,0.0,0.0,0.0,0.0,0.0,0.0,0.0,0.0,0.0,0.0,0.0,0.0,0.0,0.0,0.0,0.0,0.0,0.0,0.0,0.0,0.0,0.0,0.0,0.0,0.0,0.0,0.0,0.0,0.0,0.0,0.0,0.0,0.0,0.0,0.0,0.0,0.0,0.0,0.0,0.0,0.0,0.0,0.0,0.0,0.0,0.0,0.0,0.0,0.0,0.0,0.0,0.0,0.0,0.0,0.0,0.0,0.0,0.0,0.0,0.0,0.0,0.0,0.0,0.0,0.0,0.0,0.0,0.0,0.0,0.0,0.0,0.0,0.0,0.0,0.0,0.0,0.0,0.0,0.0,0.0,0.0,0.0,0.0,0.0,0.0,0.0,0.0,0.0,0.0,0.0,0.0,0.0,0.0,0.0,0.0,0.0,0.0,0.0,0.0,0.0,0.0,0.0,0.0,0.0,0.0,0.0,0.0,0.0,0.0,0.0,-0.8905,-0.8838,-0.8815,0.0,0.0,0.0,0.0,0.0,0.0,0.0,0.0,0.0,0.0,0.0,0.0,0.0,0.0,0.0,0.0,0.0,0.0,0.0,0.0,0.0,0.0,0.0,0.0,0.0,0.0,0.0,0.0,0.0,0.0,0.0,0.0,0.0,0.0,0.0,0.0,0.0,0.0,0.0,0.0,0.0,0.0,0.0,0.0,0.0,0.0,0.0,0.0,0.0,0.0,0.0,0.0,0.0,0.0,0.0,0.0,0.0,0.0,0.0,0.0,0.0,0.0,0.0,0.0,0.0,0.0,0.0,0.0,0.0,0.0,0.0,0.0,0.0,0.0,0.0,0.0,0.0,0.0,0.0,0.0,0.0,0.0,0.0,0.0,0.0,0.0,0.0,0.0,0.0,0.0,0.0,0.0,0.0,0.0,0.0,0.0,0.0,0.0,0.0,0.0,0.0,0.0,0.0,0.0,0.0,0.0,0.0,0.0,0.0,0.0,-0.915,-0.915,-0.9143,0.0,-0.8747,0.0,0.0,0.0,0.0,0.0,0.0,0.0,0.0,0.0,0.0,0.0,0.0,0.0,0.0,0.0,0.0,0.0,0.0,0.0,0.0,0.0,0.0,0.0,0.0,0.0,0.0,0.0,0.0,0.0,0.0,0.0,0.0,0.0,0.0,0.0,0.0,0.0,0.0,0.0,0.0,0.0,0.0,0.0,0.0,0.0,0.0,0.0,0.0,0.0,0.0,0.0,0.0,0.0,0.0,0.0,0.0,0.0,0.0,0.0,0.0,0.0,0.0,0.0,0.0,0.0,0.0,0.0,0.0,0.0,0.0,0.0,0.0,0.0,0.0,0.0,0.0,0.0,0.0,0.0,0.0,0.0,0.0,0.0,0.0,0.0,0.0,0.0,0.0,0.0,0.0,0.0,0.0,0.0,0.0,0.0,0.0,0.0,0.0,0.0,0.0,0.0,0.0,0.0,0.0,0.0,0.0,0.0,0.0,0.0,0.0,-0.9269,-0.9499,-0.9332,-0.9153,0.0,0.0,0.0,0.0,0.0,0.0,0.0,0.0,0.0,0.0,0.0,0.0,0.0,0.0,0.0,0.0,0.0,0.0,0.0,0.0,0.0,0.0,0.0,0.0,0.0,0.0,0.0,0.0,0.0,0.0,0.0,0.0,0.0,0.0,0.0,0.0,0.0,0.0,0.0,0.0,0.0,0.0,0.0,0.0,0.0,0.0,0.0,0.0,0.0,0.0,0.0,0.0,0.0,0.0,0.0,0.0,0.0,0.0,0.0,0.0,0.0,0.0,0.0,0.0,0.0,0.0,0.0,0.0,0.0,0.0,0.0,0.0,0.0,0.0,0.0,0.0,0.0,0.0,0.0,0.0,0.0,0.0,0.0,0.0,0.0,0.0,0.0,0.0,0.0,0.0,0.0,0.0,0.0,0.0,0.0,0.0,0.0,0.0,0.0,0.0,0.0,0.0,0.0,0.0,0.0,0.0,0.0,0.0,0.0,0.0,-0.9092,-0.9339,-0.9539,-0.9352,-0.9133,-0.898,0.0,0.0,0.0,0.0,0.0,0.0,0.0,0.0,0.0,0.0,0.0,0.0,0.0,0.0,0.0,0.0,0.0,0.0,0.0,0.0,0.0,0.0,0.0,0.0,0.0,0.0,0.0,0.0,0.0,0.0,0.0,0.0,0.0,0.0,0.0,0.0,0.0,0.0,0.0,0.0,0.0,0.0,0.0,0.0,0.0,0.0,0.0,0.0,0.0,0.0,0.0,0.0,0.0,0.0,0.0,0.0,0.0,0.0,0.0,0.0,0.0,0.0,0.0,0.0,0.0,0.0,0.0,0.0,0.0,0.0,0.0,0.0,0.0,0.0,0.0,0.0,0.0,0.0,0.0,0.0,0.0,0.0,0.0,0.0,0.0,0.0,0.0,0.0,0.0,0.0,0.0,0.0,0.0,0.0,0.0,0.0,0.0,0.0,0.0,0.0,0.0,0.0,0.0,0.0,0.0,0.0,0.0,0.0,0.0,-0.9044,-0.9196,-0.9265,-0.919,-0.8937,0.0,0.0,0.0,0.0,0.0,0.0,0.0,0.0,0.0,0.0,0.0,0.0,0.0,0.0,0.0,0.0,0.0,0.0,0.0,0.0,0.0,0.0,0.0,0.0,0.0,0.0,0.0,0.0,0.0,0.0,0.0,0.0,0.0,0.0,0.0,0.0,0.0,0.0,0.0,0.0,0.0,0.0,0.0,0.0,0.0,0.0,0.0,0.0,0.0,0.0,0.0,0.0,0.0,0.0,0.0,0.0,0.0,0.0,0.0,0.0,0.0,0.0,0.0,0.0,0.0,0.0,0.0,0.0,0.0,0.0,0.0,0.0,0.0,0.0,0.0,0.0,0.0,0.0,0.0,0.0,0.0,0.0,0.0,0.0,0.0,0.0,0.0,0.0,0.0,0.0,0.0,0.0,0.0,0.0,0.0,0.0,0.0,0.0,0.0,0.0,0.0,0.0,0.0,0.0,0.0,0.0,0.0,0.0,0.0,-0.8831,-0.9279,-0.9432,-0.919,-0.9058,-0.8682,0.0,0.0,0.0,0.0,0.0,0.0,0.0,0.0,0.0,0.0,0.0,0.0,0.0,0.0,0.0,0.0,0.0,0.0,0.0,0.0,0.0,0.0,0.0,0.0,0.0,0.0,0.0,0.0,0.0,0.0,0.0,0.0,0.0,0.0,0.0,0.0,0.0,0.0,0.0,0.0,0.0,0.0,0.0,0.0,0.0,0.0,0.0,0.0,0.0,0.0,0.0,0.0,0.0,0.0,0.0,0.0,0.0,0.0,0.0,0.0,0.0,0.0,0.0,0.0,0.0,0.0,0.0,0.0,0.0,0.0,0.0,0.0,0.0,0.0,0.0,0.0,0.0,0.0,0.0,0.0,0.0,0.0,0.0,0.0,0.0,0.0,0.0,0.0,0.0,0.0,0.0,0.0,0.0,0.0,0.0,0.0,0.0,0.0,0.0,0.0,0.0,0.0,0.0,0.0,0.0,0.0,0.0,0.0,0.0,-0.8958,0.0,-0.9639,0.0,-0.8958,-0.8633,0.0,0.0,0.0,0.0,0.0,0.0,0.0,0.0,0.0,0.0,0.0,0.0,0.0,0.0,0.0,0.0,0.0,0.0,0.0,0.0,0.0,0.0,0.0,0.0,0.0,0.0,0.0,0.0,0.0,0.0,0.0,0.0,0.0,0.0,0.0,0.0,0.0,0.0,0.0,0.0,0.0,0.0,0.0,0.0,0.0,0.0,0.0,0.0,0.0,0.0,0.0,0.0,0.0,0.0,0.0,0.0,0.0,0.0,0.0,0.0,0.0,0.0,0.0,0.0,0.0,0.0,0.0,0.0,0.0,0.0,0.0,0.0,0.0,0.0,0.0,0.0,0.0,0.0,0.0,0.0,0.0,0.0,0.0,0.0,0.0,0.0,0.0,0.0,0.0,0.0,0.0,0.0,0.0,0.0,0.0,0.0,0.0,0.0,0.0,0.0,0.0,0.0,0.0,0.0,0.0,0.0,0.0,0.0,-0.8978,-0.9203,-0.9813,-0.9846,-0.9216,-0.8978,-0.8639,0.0,0.0,0.0,0.0,0.0,0.0,0.0,0.0,0.0,0.0,0.0,0.0,0.0,0.0,0.0,0.0,0.0,0.0,0.0,0.0,0.0,0.0,0.0,0.0,0.0,0.0,0.0,0.0,0.0,0.0,0.0,0.0,0.0,0.0,0.0,0.0,0.0,0.0,0.0,0.0,0.0,0.0,0.0,0.0,0.0,0.0,0.0,0.0,0.0,0.0,0.0,0.0,0.0,0.0,0.0,0.0,0.0,0.0,0.0,0.0,0.0,0.0,0.0,0.0,0.0,0.0,0.0,0.0,0.0,0.0,0.0,0.0,0.0,0.0,0.0,0.0,0.0,0.0,0.0,0.0,0.0,0.0,0.0,0.0,0.0,0.0,0.0,0.0,0.0,0.0,0.0,0.0,0.0,0.0,0.0,0.0,0.0,0.0,0.0,0.0,0.0,0.0,0.0,0.0,0.0,0.0,0.0,0.0,0.0,-0.986,-1.0227,-1.0147,-0.9566,-0.9259,-0.8884,0.0,0.0,0.0,0.0,0.0,0.0,0.0,0.0,0.0,0.0,0.0,0.0,0.0,0.0,0.0,0.0,0.0,0.0,0.0,0.0,0.0,0.0,0.0,0.0,0.0,0.0,0.0,0.0,0.0,0.0,0.0,0.0,0.0,0.0,0.0,0.0,0.0,0.0,0.0,0.0,0.0,0.0,0.0,0.0,0.0,0.0,0.0,0.0,0.0,0.0,0.0,0.0,0.0,0.0,0.0,0.0,0.0,0.0,0.0,0.0,0.0,0.0,0.0,0.0,0.0,0.0,0.0,0.0,0.0,0.0,0.0,0.0,0.0,0.0,0.0,0.0,0.0,0.0,0.0,0.0,0.0,0.0,0.0,0.0,0.0,0.0,0.0,0.0,0.0,0.0,0.0,0.0,0.0,0.0,0.0,0.0,0.0,0.0,0.0,0.0,0.0,0.0,0.0,0.0,0.0,0.0,0.0,0.0,0.0,-1.0929,-1.1116,-1.0875,-1.0187,-0.978,-0.9294,-0.8857,0.0,0.0,0.0,0.0,0.0,0.0,0.0,0.0,0.0,0.0,0.0,0.0,0.0,0.0,0.0,0.0,0.0,0.0,0.0,0.0,0.0,0.0,0.0,0.0,0.0,0.0,0.0,0.0,0.0,0.0,0.0,0.0,0.0,0.0,0.0,0.0,0.0,0.0,0.0,0.0,0.0,0.0,0.0,0.0,0.0,0.0,0.0,0.0,0.0,0.0,0.0,0.0,0.0,0.0,0.0,0.0,0.0,0.0,0.0,0.0,0.0,0.0,0.0,0.0,0.0,0.0,0.0,0.0,0.0,0.0,0.0,0.0,0.0,0.0,0.0,0.0,0.0,0.0,0.0,0.0,0.0,0.0,0.0,0.0,0.0,0.0,0.0,0.0,0.0,0.0,0.0,0.0,0.0,0.0,0.0,0.0,0.0,0.0,0.0,0.0,0.0,0.0,0.0,0.0,0.0,0.0,0.0,0.0,-1.2331,-1.2398,-1.1991,-1.1089,-1.0481,-0.987,0.0,0.0,0.0,0.0,0.0,0.0,0.0,0.0,0.0,0.0,0.0,0.0,0.0,0.0,0.0,0.0,0.0,0.0,0.0,0.0,0.0,0.0,0.0,0.0,0.0,0.0,0.0,0.0,0.0,0.0,0.0,0.0,0.0,0.0,0.0,0.0,0.0,0.0,0.0,0.0,0.0,0.0,0.0,0.0,0.0,0.0,0.0,0.0,0.0,0.0,0.0,0.0,0.0,0.0,0.0,0.0,0.0,0.0,0.0,0.0,0.0,0.0,0.0,0.0,0.0,0.0,0.0,0.0,0.0,0.0,0.0,0.0,0.0,0.0,0.0,0.0,0.0,0.0,0.0,0.0,0.0,0.0,0.0,0.0,0.0,0.0,0.0,0.0,0.0,0.0,0.0,0.0,0.0,0.0,0.0,0.0,0.0,0.0,0.0,0.0,0.0,0.0,0.0,0.0,0.0,0.0,0.0,0.0,0.0,-1.2933,-1.3601,-1.3313,-1.2004,-1.1182,-1.0573,0.0,0.0,0.0,0.0,0.0,0.0,0.0,0.0,0.0,0.0,0.0,0.0,0.0,0.0,0.0,0.0,0.0,0.0,0.0,0.0,0.0,0.0,0.0,0.0,0.0,0.0,0.0,0.0,0.0,0.0,0.0,0.0,0.0,0.0,0.0,0.0,0.0,0.0,0.0,0.0,0.0,0.0,0.0,0.0,0.0,0.0,0.0,0.0,0.0,0.0,0.0,0.0,0.0,0.0,0.0,0.0,0.0,0.0,0.0,0.0,0.0,0.0,0.0,0.0,0.0,0.0,0.0,0.0,0.0,0.0,0.0,0.0,0.0,0.0,0.0,0.0,0.0,0.0,0.0,0.0,0.0,0.0,0.0,0.0,0.0,0.0,0.0,0.0,0.0,0.0,0.0,0.0,0.0,0.0,0.0,0.0,0.0,0.0,0.0,0.0,0.0,0.0,0.0,0.0,0.0,0.0,0.0,0.0,-1.2191,-1.3373,-1.4249,-1.4175,-1.308,-1.2078,-1.1343,0.0,0.0,0.0,0.0,0.0,0.0,0.0,0.0,0.0,0.0,0.0,0.0,0.0,0.0,0.0,0.0,0.0,0.0,0.0,0.0,0.0,0.0,0.0,0.0,0.0,0.0,0.0,0.0,0.0,0.0,0.0,0.0,0.0,0.0,0.0,0.0,0.0,0.0,0.0,0.0,0.0,0.0,0.0,0.0,0.0,0.0,0.0,0.0,0.0,0.0,0.0,0.0,0.0,0.0,0.0,0.0,0.0,0.0,0.0,0.0,0.0,0.0,0.0,0.0,0.0,0.0,0.0,0.0,0.0,0.0,0.0,0.0,0.0,0.0,0.0,0.0,0.0,0.0,0.0,0.0,0.0,0.0,0.0,0.0,0.0,0.0,0.0,0.0,0.0,0.0,0.0,0.0,0.0,0.0,0.0,0.0,0.0,0.0,0.0,0.0,0.0,0.0,0.0,0.0,0.0,0.0,0.0,0.0,-1.258,-1.3707,-1.4657,-1.4851,-1.43,-1.3006,-1.2074,0.0,0.0,0.0,0.0,0.0,0.0,0.0,0.0,0.0,0.0,0.0,0.0,0.0,0.0,0.0,0.0,0.0,0.0,0.0,0.0,0.0,0.0,0.0,0.0,0.0,0.0,0.0,0.0,0.0,0.0,0.0,0.0,0.0,0.0,0.0,0.0,0.0,0.0,0.0,0.0,0.0,0.0,0.0,0.0,0.0,0.0,0.0,0.0,0.0,0.0,0.0,0.0,0.0,0.0,0.0,0.0,0.0,0.0,0.0,0.0,0.0,0.0,0.0,0.0,0.0,0.0,0.0,0.0,0.0,0.0,0.0,0.0,0.0,0.0,0.0,0.0,0.0,0.0,0.0,0.0,0.0,0.0,0.0,0.0,0.0,0.0,0.0,0.0,0.0,0.0,0.0,0.0,0.0,0.0,0.0,0.0,0.0,0.0,0.0,0.0,0.0,0.0,0.0,0.0,0.0,0.0,0.0,0.0,-1.3369,-1.4801,-1.5596,-1.5882,-1.5749,-1.3756,-1.2458,0.0,0.0,0.0,0.0,0.0,0.0,0.0,0.0,0.0,0.0,0.0,0.0,0.0,0.0,0.0,0.0,0.0,0.0,0.0,0.0,0.0,0.0,0.0,0.0,0.0,0.0,0.0,0.0,0.0,0.0,0.0,0.0,0.0,0.0,0.0,0.0,0.0,0.0,0.0,0.0,0.0,0.0,0.0,0.0,0.0,0.0,0.0,0.0,-1.5212,0.0,0.0,0.0,0.0,0.0,0.0,0.0,0.0,0.0,0.0,0.0,0.0,0.0,0.0,0.0,0.0,0.0,0.0,0.0,0.0,0.0,0.0,0.0,0.0,0.0,0.0,0.0,0.0,0.0,0.0,0.0,0.0,0.0,0.0,0.0,0.0,0.0,0.0,0.0,0.0,0.0,0.0,0.0,0.0,0.0,0.0,0.0,0.0,0.0,0.0,0.0,0.0,0.0,0.0,0.0,0.0,0.0,0.0,0.0,-1.4859,-1.6174,-1.7011,-1.7363,-1.7161,-1.5856,-1.4479,0.0,0.0,0.0,0.0,0.0,0.0,0.0,0.0,0.0,0.0,0.0,0.0,0.0,0.0,0.0,0.0,0.0,0.0,0.0,0.0,0.0,0.0,0.0,0.0,0.0,0.0,0.0,0.0,0.0,0.0,0.0,0.0,0.0,0.0,0.0,0.0,0.0,0.0,0.0,0.0,0.0,0.0,0.0,0.0,0.0,0.0,0.0,0.0,0.0,0.0,0.0,0.0,0.0,0.0,0.0,0.0,0.0,0.0,0.0,0.0,0.0,0.0,0.0,0.0,0.0,0.0,0.0,0.0,0.0,0.0,0.0,0.0,0.0,0.0,0.0,0.0,0.0,0.0,0.0,0.0,0.0,0.0,0.0,0.0,0.0,0.0,0.0,0.0,0.0,0.0,0.0,0.0,0.0,0.0,0.0,0.0,0.0,0.0,0.0,0.0,0.0,0.0,0.0,0.0,0.0,0.0,0.0,-1.511,-1.6565,-1.752,-1.8482,-1.8712,-1.845,-1.8057,-1.6798,-1.4539,0.0,0.0,0.0,0.0,0.0,0.0,0.0,0.0,0.0,0.0,0.0,0.0,0.0,0.0,0.0,0.0,0.0,0.0,0.0,0.0,0.0,0.0,0.0,0.0,0.0,0.0,0.0,0.0,0.0,0.0,0.0,0.0,0.0,0.0,0.0,0.0,0.0,0.0,-1.402,-1.5978,0.0,0.0,0.0,0.0,0.0,0.0,0.0,0.0,-1.7238,0.0,0.0,0.0,0.0,0.0,0.0,0.0,0.0,0.0,0.0,0.0,0.0,0.0,0.0,0.0,0.0,0.0,0.0,0.0,0.0,0.0,0.0,0.0,0.0,0.0,0.0,0.0,0.0,0.0,0.0,0.0,0.0,0.0,0.0,0.0,0.0,0.0,0.0,0.0,0.0,0.0,0.0,0.0,0.0,0.0,0.0,0.0,0.0,0.0,0.0,0.0,0.0,0.0,0.0,0.0,0.0,-1.4733,-1.6382,-1.773,-1.8795,-1.9192,-1.9175,-1.8823,-1.8263,-1.7284,-1.5889,0.0,0.0,0.0,0.0,0.0,0.0,0.0,0.0,0.0,0.0,0.0,0.0,0.0,0.0,0.0,0.0,0.0,0.0,0.0,0.0,0.0,0.0,0.0,0.0,0.0,0.0,0.0,0.0,0.0,0.0,0.0,0.0,0.0,0.0,0.0,0.0,0.0,0.0,0.0,-1.811,-1.8879,0.0,0.0,0.0,0.0,0.0,0.0,0.0,0.0,-1.7833,0.0,0.0,0.0,0.0,0.0,0.0,0.0,0.0,0.0,0.0,0.0,0.0,0.0,0.0,0.0,0.0,0.0,0.0,0.0,0.0,0.0,0.0,0.0,0.0,0.0,0.0,0.0,0.0,0.0,0.0,0.0,0.0,0.0,0.0,0.0,0.0,0.0,0.0,0.0,0.0,0.0,0.0,0.0,0.0,0.0,0.0,0.0,0.0,0.0,0.0,0.0,0.0,0.0,0.0,0.0,-1.6217,-1.8168,-1.9511,-2.0376,-2.0704,-2.0543,-2.0061,-1.9312,-1.8276,0.0,0.0,0.0,0.0,0.0,0.0,0.0,0.0,0.0,0.0,0.0,0.0,0.0,0.0,0.0,0.0,0.0,0.0,0.0,0.0,0.0,0.0,0.0,0.0,0.0,0.0,0.0,0.0,0.0,0.0,0.0,0.0,0.0,0.0,0.0,0.0,0.0,0.0,0.0,0.0,-1.8948,-1.9709,-2.013,0.0,0.0,0.0,0.0,0.0,0.0,-1.9159,-1.8973,0.0,0.0,0.0,0.0,0.0,0.0,0.0,0.0,0.0,0.0,0.0,0.0,0.0,0.0,0.0,0.0,0.0,0.0,0.0,0.0,0.0,0.0,0.0,0.0,0.0,0.0,0.0,0.0,0.0,0.0,0.0,0.0,0.0,0.0,0.0,0.0,0.0,0.0,0.0,0.0,0.0,0.0,0.0,0.0,0.0,0.0,0.0,0.0,0.0,0.0,0.0,0.0,0.0,0.0,0.0,-1.7694,-1.9835,-2.1229,-2.1851,-2.2129,-2.1887,-2.129,-2.0357,-1.9201,0.0,0.0,0.0,0.0,0.0,0.0,0.0,0.0,0.0,0.0,0.0,0.0,0.0,0.0,0.0,0.0,0.0,0.0,0.0,0.0,0.0,0.0,0.0,0.0,0.0,0.0,0.0,0.0,0.0,0.0,0.0,0.0,0.0,0.0,0.0,0.0,0.0,0.0,0.0,0.0,0.0,-2.0803,-2.0906,-2.0922,0.0,0.0,0.0,0.0,-2.0565,-2.1019,0.0,0.0,0.0,0.0,0.0,0.0,0.0,0.0,0.0,0.0,0.0,0.0,0.0,0.0,0.0,0.0,0.0,0.0,0.0,0.0,0.0,0.0,0.0,0.0,0.0,0.0,0.0,0.0,0.0,0.0,0.0,0.0,0.0,0.0,0.0,0.0,0.0,0.0,0.0,0.0,0.0,0.0,0.0,0.0,0.0,0.0,0.0,0.0,0.0,0.0,0.0,0.0,0.0,0.0,0.0,0.0,-1.8787,-2.0866,-2.2332,-2.3137,-2.2781,-2.2344,-2.1749,-2.057,-1.9156,0.0,0.0,0.0,0.0,0.0,0.0,0.0,0.0,0.0,0.0,0.0,0.0,0.0,0.0,0.0,0.0,0.0,0.0,0.0,0.0,0.0,0.0,0.0,0.0,0.0,0.0,0.0,0.0,0.0,0.0,0.0,0.0,0.0,0.0,0.0,0.0,0.0,0.0,0.0,0.0,0.0,-2.3216,-2.3277,-2.3263,-2.3281,0.0,0.0,-2.3203,-2.361,-2.3937,0.0,0.0,0.0,0.0,0.0,0.0,0.0,0.0,0.0,0.0,0.0,0.0,0.0,0.0,0.0,0.0,0.0,0.0,0.0,0.0,0.0,0.0,0.0,0.0,0.0,0.0,0.0,0.0,0.0,0.0,0.0,0.0,0.0,0.0,0.0,0.0,0.0,0.0,0.0,0.0,0.0,0.0,0.0,0.0,0.0,0.0,0.0,0.0,0.0,0.0,0.0,0.0,0.0,0.0,0.0,-1.7099,-1.9653,-2.187,-2.3246,-2.374,-2.3329,-2.2872,-2.236,-2.1286,-1.9895,0.0,0.0,0.0,0.0,0.0,0.0,0.0,0.0,0.0,0.0,0.0,0.0,0.0,0.0,0.0,0.0,0.0,0.0,0.0,0.0,0.0,0.0,0.0,0.0,0.0,0.0,0.0,0.0,0.0,0.0,0.0,0.0,0.0,0.0,0.0,0.0,0.0,0.0,0.0,0.0,0.0,0.0,-2.5173,-2.5179,0.0,0.0,0.0,-2.5605,-2.6337,0.0,0.0,0.0,0.0,0.0,0.0,0.0,0.0,0.0,0.0,0.0,0.0,0.0,0.0,0.0,0.0,0.0,0.0,0.0,0.0,0.0,0.0,0.0,0.0,0.0,0.0,0.0,0.0,0.0,0.0,0.0,0.0,0.0,0.0,0.0,0.0,0.0,0.0,0.0,0.0,0.0,0.0,0.0,0.0,0.0,0.0,0.0,0.0,0.0,0.0,0.0,0.0,0.0,0.0,0.0,0.0,0.0,-2.0532,-2.2974,-2.4378,-2.4625,-2.4134,-2.3757,-2.3379,-2.2291,0.0,0.0,0.0,0.0,0.0,0.0,0.0,0.0,0.0,0.0,0.0,0.0,0.0,0.0,0.0,0.0,0.0,0.0,0.0,0.0,0.0,0.0,0.0,0.0,0.0,0.0,0.0,-1.1832,0.0,0.0,0.0,0.0,0.0,0.0,0.0,0.0,0.0,0.0,0.0,0.0,0.0,0.0,-2.5923,-2.6793,-2.7166,-2.7527,0.0,0.0,-2.8115,-2.8728,-2.8889,-2.8268,0.0,0.0,0.0,0.0,0.0,0.0,0.0,0.0,0.0,0.0,0.0,0.0,0.0,0.0,0.0,0.0,0.0,0.0,0.0,0.0,0.0,0.0,0.0,0.0,0.0,0.0,0.0,0.0,0.0,0.0,0.0,0.0,0.0,0.0,0.0,0.0,0.0,0.0,0.0,0.0,0.0,0.0,0.0,0.0,0.0,0.0,0.0,0.0,0.0,0.0,0.0,0.0,0.0,0.0,0.0,-2.1522,-2.4249,-2.5756,-2.5993,-2.5613,-2.5227,-2.5063,-2.3878,-2.2453,0.0,0.0,0.0,0.0,0.0,0.0,0.0,0.0,0.0,0.0,0.0,0.0,0.0,0.0,0.0,0.0,0.0,0.0,0.0,0.0,0.0,0.0,0.0,0.0,0.0,0.0,0.0,0.0,0.0,0.0,0.0,0.0,0.0,0.0,0.0,0.0,0.0,0.0,0.0,0.0,0.0,-2.8051,-2.8064,-2.944,-3.0316,0.0,0.0,-3.0784,-3.0643,-3.082,-3.0101,-2.7462,0.0,0.0,0.0,0.0,0.0,0.0,0.0,0.0,0.0,0.0,0.0,0.0,0.0,0.0,0.0,0.0,0.0,0.0,0.0,0.0,0.0,0.0,0.0,0.0,0.0,0.0,0.0,0.0,0.0,0.0,0.0,0.0,0.0,0.0,0.0,0.0,0.0,0.0,0.0,0.0,0.0,0.0,0.0,0.0,0.0,0.0,0.0,0.0,0.0,0.0,0.0,0.0,0.0,-1.981,-2.2092,-2.5327,-2.7137,-2.7272,-2.711,-2.6955,-2.6659,-2.6063,-2.4569,0.0,0.0,0.0,0.0,0.0,0.0,0.0,0.0,0.0,0.0,0.0,0.0,0.0,0.0,0.0,0.0,0.0,0.0,0.0,0.0,0.0,0.0,0.0,0.0,0.0,0.0,0.0,0.0,-1.4035,-1.4792,-1.5756,0.0,0.0,0.0,0.0,0.0,0.0,0.0,0.0,0.0,0.0,-2.9904,-3.1052,-3.1983,0.0,0.0,-3.2832,-3.2686,-3.2687,-3.184,-3.0559,-2.8647,-2.6246,0.0,0.0,0.0,0.0,0.0,0.0,0.0,0.0,0.0,0.0,0.0,0.0,0.0,0.0,0.0,0.0,0.0,0.0,0.0,0.0,0.0,0.0,0.0,0.0,0.0,0.0,0.0,0.0,0.0,0.0,0.0,0.0,0.0,0.0,0.0,0.0,0.0,0.0,0.0,0.0,0.0,0.0,0.0,0.0,0.0,0.0,0.0,0.0,0.0,0.0,0.0,0.0,-2.086,-2.2982,-2.6493,-2.8299,-2.8309,-2.8589,-2.8522,-2.8147,-2.7839,-2.6368,0.0,0.0,0.0,0.0,0.0,0.0,0.0,0.0,0.0,0.0,0.0,0.0,0.0,0.0,0.0,0.0,0.0,0.0,0.0,0.0,0.0,0.0,0.0,0.0,0.0,0.0,0.0,0.0,-1.5352,-1.5802,-1.6367,0.0,0.0,0.0,0.0,0.0,0.0,0.0,0.0,0.0,0.0,-3.1584,-3.2961,-3.3841,-3.4525,-3.4893,-3.4602,-3.4332,-3.4038,-3.2809,-3.1286,-2.9706,0.0,0.0,0.0,0.0,0.0,0.0,0.0,0.0,0.0,0.0,0.0,0.0,0.0,0.0,0.0,0.0,0.0,0.0,0.0,0.0,0.0,0.0,0.0,0.0,0.0,0.0,0.0,-1.5028,0.0,0.0,-1.428,0.0,0.0,0.0,0.0,0.0,0.0,0.0,0.0,0.0,0.0,0.0,0.0,0.0,0.0,0.0,0.0,0.0,0.0,0.0,0.0,0.0,0.0,-2.2241,-2.4243,-2.7798,-2.9484,-2.93,-2.9908,-2.9931,-2.93,-2.9011,-2.7598,-2.4796,0.0,0.0,0.0,0.0,0.0,0.0,0.0,0.0,0.0,0.0,0.0,0.0,0.0,0.0,0.0,0.0,0.0,0.0,0.0,0.0,0.0,0.0,0.0,0.0,0.0,0.0,-1.7945,-1.7546,-1.6998,0.0,0.0,0.0,0.0,0.0,0.0,0.0,0.0,0.0,0.0,-3.1081,-3.3261,-3.3356,-3.4839,-3.5833,-3.5464,-3.5718,-3.5598,-3.4471,-3.3688,-3.255,0.0,0.0,0.0,0.0,0.0,0.0,0.0,0.0,0.0,0.0,0.0,0.0,0.0,0.0,0.0,0.0,0.0,0.0,0.0,0.0,0.0,0.0,0.0,0.0,0.0,0.0,0.0,-1.7801,-1.7968,0.0,0.0,0.0,0.0,0.0,0.0,0.0,0.0,0.0,0.0,0.0,-2.5103,-2.4633,0.0,0.0,0.0,0.0,0.0,0.0,0.0,0.0,0.0,0.0,0.0,0.0,-2.3257,-2.589,-2.9412,-3.1347,-3.1664,-3.2276,-3.2042,-3.1128,-3.0998,-2.9164,-2.5367,0.0,0.0,0.0,0.0,0.0,0.0,0.0,0.0,0.0,0.0,0.0,0.0,0.0,0.0,0.0,0.0,0.0,0.0,0.0,0.0,0.0,0.0,0.0,0.0,0.0,-1.8717,0.0,0.0,0.0,0.0,0.0,0.0,0.0,0.0,0.0,0.0,0.0,-2.8207,-3.0575,-3.2661,-3.4288,-3.5252,-3.6316,-3.6979,0.0,0.0,0.0,0.0,0.0,0.0,0.0,0.0,0.0,0.0,0.0,0.0,0.0,0.0,-3.1842,-2.9619,-2.8622,-2.7677,-2.6298,0.0,0.0,0.0,0.0,0.0,0.0,0.0,0.0,0.0,0.0,0.0,0.0,0.0,0.0,-2.1032,0.0,-2.089,0.0,0.0,0.0,0.0,0.0,0.0,0.0,0.0,-2.7576,-2.8382,-2.8904,-2.8218,-2.814,0.0,-2.8114,-2.6078,0.0,0.0,0.0,0.0,0.0,0.0,0.0,0.0,-2.4684,-2.748,-3.0636,-3.2533,-3.3127,-3.3682,-3.3514,-3.2571,-3.1771,-2.9766,-2.6311,-2.4775,-2.2789,0.0,0.0,0.0,0.0,0.0,0.0,0.0,0.0,0.0,0.0,0.0,0.0,0.0,0.0,0.0,0.0,0.0,0.0,0.0,0.0,0.0,0.0,0.0,-1.9877,0.0,0.0,0.0,0.0,0.0,0.0,0.0,0.0,0.0,-2.6704,-2.8379,-3.0306,-3.2361,-3.402,-3.5379,-3.6311,0.0,0.0,0.0,0.0,0.0,0.0,0.0,-3.3208,-3.2596,-3.158,-3.1134,-3.2064,-3.345,-3.4745,-3.5602,0.0,0.0,-3.3507,-3.2386,-3.1449,-3.0036,-3.0121,-3.023,-2.9374,-3.0284,-3.1336,0.0,0.0,0.0,0.0,0.0,0.0,0.0,0.0,-2.3693,-2.4472,0.0,-2.4546,0.0,0.0,0.0,0.0,0.0,-2.6168,0.0,0.0,-3.1501,-3.2233,-3.222,-3.1739,-3.1487,-3.1501,-3.1334,-3.0712,-2.9429,-2.5231,0.0,0.0,0.0,0.0,0.0,0.0,-2.6593,-2.9132,-3.1575,-3.3079,-3.3655,-3.4192,-3.4206,-3.3551,-3.1504,-2.9534,-2.7814,-2.6696,-2.5011,-2.2734,-2.2364,0.0,0.0,0.0,0.0,0.0,0.0,0.0,0.0,0.0,0.0,0.0,0.0,0.0,0.0,0.0,0.0,0.0,0.0,0.0,0.0,-2.1189,0.0,0.0,0.0,0.0,0.0,0.0,0.0,0.0,0.0,0.0,-2.8521,-3.067,-3.2598,-3.3309,0.0,0.0,0.0,0.0,-3.8523,-3.8539,-3.9076,-3.9075,-3.7864,-3.6556,-3.5521,-3.5138,0.0,0.0,-3.5612,-3.6269,-3.6806,-3.6944,-3.7849,-3.8219,-3.7329,-3.6473,-3.5489,-3.4161,-3.3887,-3.3898,-3.3881,-3.4339,-3.5253,-2.5086,0.0,0.0,0.0,0.0,-2.4981,-2.5709,-2.6482,-2.7345,-2.8083,-2.8635,-2.8461,0.0,0.0,0.0,0.0,0.0,0.0,-3.0132,-3.2389,-3.3236,-3.3966,-3.4685,-3.3779,-3.3512,-3.3809,-3.3071,-3.2497,-3.2004,-2.9664,-2.6905,-2.3746,0.0,0.0,0.0,0.0,-2.849,-3.0937,-3.3108,-3.4459,-3.513,-3.5224,-3.4821,-3.3842,-3.2818,-3.1608,-3.0277,-2.9497,-2.8005,-2.5665,-2.4788,0.0,0.0,0.0,0.0,0.0,0.0,0.0,0.0,0.0,0.0,0.0,0.0,0.0,0.0,0.0,0.0,0.0,0.0,0.0,-2.2564,-2.4002,-2.4539,0.0,0.0,0.0,0.0,0.0,0.0,0.0,0.0,0.0,-3.3135,-3.3514,-3.4162,0.0,0.0,-3.6785,-3.778,-3.827,-3.8681,-3.9139,-3.9376,0.0,-3.8591,-3.7833,-3.7359,-3.7436,-3.7711,-3.8282,-3.9327,-3.9427,-3.9395,-3.9726,-4.0101,-4.0214,-3.9617,-3.8599,-3.755,-3.6689,-3.6844,-3.6973,-3.6474,-3.7077,-3.7879,-2.8445,-2.6724,-2.6516,-2.6723,-2.7414,-2.8295,-2.9101,-2.9925,-3.0858,-3.1626,-3.2212,-3.2204,-3.1915,-3.1373,-3.0352,0.0,0.0,0.0,-3.2934,-3.4673,-3.5278,-3.5831,-3.6319,-3.5817,-3.5642,-3.5778,-3.4793,-3.4214,-3.4109,-3.2752,-3.077,-2.8331,0.0,0.0,-2.6575,-2.8253,-3.0151,-3.226,-3.3964,-3.5113,-3.5696,-3.571,-3.5153,-3.4,-3.3607,-3.2766,-3.1355,-3.1017,-2.9997,-2.8138,-2.7179,-2.5549,0.0,0.0,0.0,0.0,0.0,0.0,0.0,0.0,0.0,0.0,0.0,-1.4295,-1.5198,0.0,0.0,0.0,-2.1079,-2.3196,-2.5013,-2.6182,0.0,0.0,0.0,0.0,0.0,0.0,0.0,-3.1523,-3.3293,-3.4905,-3.6406,-3.6485,-3.6579,-3.718,-3.7464,-3.7954,-3.8869,0.0,-3.9704,-4.0164,-4.0513,-4.059,-4.0039,-3.9527,-3.9235,-3.938,-4.0261,-4.0899,-4.1274,-4.1233,-4.1181,-4.1111,-4.1209,-4.1268,-4.1007,-4.028,-3.9425,-3.8451,-3.8773,-3.898,-3.8239,-3.9022,-3.9797,-3.0893,-3.1094,-3.0289,-3.0217,-3.0603,-3.1604,-3.2548,-3.3465,-3.3949,-3.4715,-3.5679,-3.5525,-3.5331,-3.5046,-3.3873,0.0,-3.4204,-3.5303,-3.6185,-3.6837,-3.7422,-3.7721,-3.7748,-3.7708,-3.7694,-3.7653,-3.6497,-3.5913,-3.579,-3.4702,-3.3846,-3.3281,-2.9977,-2.8651,-2.9333,-3.0485,-3.1756,-3.32,-3.4326,-3.5167,-3.5696,-3.5669,-3.5099,-3.391,-3.3932,-3.3105,-3.1463,-3.1566,-3.1213,-3.0266,-2.951,-2.8253,-2.6426,0.0,0.0,0.0,0.0,0.0,0.0,0.0,0.0,0.0,0.0,0.0,0.0,0.0,0.0,0.0,-2.366,0.0,-2.7288,-2.8031,0.0,0.0,0.0,-2.811,-2.939,-3.0717,-3.2329,-3.4374,0.0,0.0,-3.8647,-3.9265,-3.9454,-3.8885,-3.9249,-3.9597,-3.9879,-4.0575,-4.1195,-4.1367,-4.2164,-4.2467,-4.201,-4.1599,-4.1392,-4.1502,-4.2381,-4.2806,-4.2184,-4.2185,-4.2079,-4.1394,-4.1453,-4.1587,-4.1587,-4.1472,-4.1165,-3.9719,-3.9991,-4.0201,-3.9628,-4.0297,-4.0949,-3.2261,-3.2735,-3.3273,-3.3196,-3.2667,-3.3235,-3.3917,-3.4713,-3.54,-3.6109,-3.6651,-3.695,-3.6796,-3.6183,-3.5399,-3.5505,-3.6265,-3.6754,-3.762,-3.881,-3.9159,-3.9479,-3.9897,-3.9452,-3.9215,-3.9173,-3.8503,-3.7889,-3.7334,-3.6596,-3.5913,-3.5362,-3.4043,-3.3018,-3.2177,-3.2793,-3.3598,-3.4407,-3.514,-3.5574,-3.5696,-3.5276,-3.4706,-3.3883,-3.3512,-3.2874,-3.2006,-3.2297,-3.2277,-3.196,-3.1197,-3.0174,-2.891,-2.6811,0.0,0.0,0.0,0.0,0.0,0.0,0.0,0.0,0.0,-1.8313,-1.9688,0.0,-2.2469,0.0,-2.6024,-2.8142,-3.0054,-3.086,0.0,0.0,-3.1918,-3.2139,-3.2961,-3.3862,-3.5055,-3.6673,-3.7945,-3.9122,-4.0475,-4.0903,-4.1268,-4.1544,-4.0371,-3.9818,-4.0655,-4.1096,-4.1727,-4.2476,-4.2993,-4.3327,-4.3456,-4.3782,-4.4062,-4.4475,-4.4421,-4.4101,-4.3511,-4.301,-4.2444,-4.169,-4.156,-4.1604,-4.1604,-4.1604,-4.1499,-4.1148,-4.1174,-4.1173,-4.0844,-4.1143,-4.1426,-3.3598,-3.4178,-3.5259,-3.5486,-3.5311,-3.5521,-3.5887,-3.6548,-3.7053,-3.7468,-3.7712,-3.8083,-3.8061,-3.7786,-3.746,-3.767,-3.8322,-3.8616,-3.9313,-4.0294,-4.0658,-4.0926,-4.1254,-4.0912,-4.0741,-4.0727,-4.0167,-3.9667,-3.9296,-3.841,-3.7796,-3.7453,-3.6839,-3.6116,-3.5344,-3.5051,-3.503,-3.5375,-3.5967,-3.6146,-3.5871,-3.5554,-3.4961,-3.4032,-3.3748,-3.3156,-3.2301,-3.2905,-3.3237,-3.3082,-3.2694,-3.2154,-3.1554,-2.9053,-2.6505,0.0,0.0,0.0,0.0,0.0,0.0,0.0,0.0,0.0,0.0,0.0,-2.5914,-2.7604,-2.909,-3.067,-3.2424,-3.323,-3.3925,-3.462,-3.4699,-3.5078,-3.6074,-3.6532,-3.744,-3.9014,-3.975,-4.0591,-4.1918,-4.2293,-4.2545,-4.2953,-4.1996,-4.1455,-4.1905,-4.2248,-4.2698,-4.3393,-4.3839,-4.4169,-4.4468,-4.491,-4.5302,-4.5597,-4.5506,-4.5149,-4.4523,-4.4115,-4.3483,-4.2429,-4.2148,-4.2008,-4.1692,-4.1604,-4.1604,-4.1604,-4.1604,-4.1542,-4.1408,-4.1515,-4.156,-3.4872,-3.5451,-3.6414,-3.7256,-3.7913,-3.7847,-3.807,-3.841,-3.8618,-3.8853,-3.8996,-3.915,-3.9419,-3.97,-3.9714,-3.998,-4.0392,-4.087,-4.127,-4.1791,-4.2237,-4.2359,-4.2272,-4.2272,-4.2242,-4.214,-4.1638,-4.1332,-4.1215,-4.012,-3.9492,-3.9317,-3.8672,-3.8337,-3.8235,-3.7086,-3.6481,-3.6406,-3.6852,-3.6809,-3.6141,-3.6043,-3.5465,-3.4425,-3.4142,-3.3551,-3.2481,-3.3378,-3.3958,-3.3897,-3.3814,-3.3907,-3.4006,-3.1529,-2.8761,0.0,-2.6076,0.0,0.0,0.0,0.0,0.0,0.0,0.0,0.0,-2.7894,-2.9593,-3.1544,-3.2403,-3.3371,-3.4736,-3.5459,-3.6172,-3.6838,-3.6933,-3.7424,-3.8581,-3.8835,-3.9481,-4.105,-4.1598,-4.2211,-4.3147,-4.3529,-4.3672,-4.3672,-4.3623,-4.3455,-4.341,-4.3529,-4.3781,-4.4212,-4.4614,-4.4981,-4.5213,-4.5494,-4.5684,-4.5837,-4.597,-4.5909,-4.5185,-4.5045,-4.4606,-4.3325,-4.2938,-4.2693,-4.1903,-4.178,-4.1745,-4.1639,-4.1604,-4.1604,-4.1604,-4.1604,-4.1587,-3.5916,-3.6483,-3.7243,-3.7913,-3.8552,-3.9082,-3.9387,-3.9478,-3.957,-4.0127,-4.0954,-4.1201,-4.1369,-4.164,-4.1909,-4.2266,-4.2721,-4.3142,-4.3644,-4.4068,-4.457,-4.4452,-4.3849,-4.3834,-4.3567,-4.309,-4.2956,-4.2614,-4.2186,-4.1933,-4.1262,-4.0204,-4.0055,-3.9653,-3.9147,0.0,0.0,0.0,-3.7832,-3.7587,-3.6878,-3.6447,-3.5826,-3.5006,-3.3998,0.0,-3.312,-3.32,-3.3695,-3.4633,-3.4514,0.0,0.0,0.0,0.0,0.0,0.0,0.0,0.0,0.0,0.0,0.0,-3.2425,-3.2229,-2.9491,-3.0965,-3.2773,-3.429,-3.5082,-3.6082,-3.7487,-3.8278,-3.9005,-3.9634,-3.9715,-3.9844,-4.0151,-4.0667,-4.1351,-4.1966,-4.2848,-4.3556,-4.4095,-4.4468,-4.4601,-4.4618,-4.4618,-4.4691,-4.478,-4.4502,-4.4502,-4.4906,-4.5372,-4.5752,-4.5821,-4.5972,-4.6073,-4.6105,-4.6172,-4.594,-4.5308,-4.5133,-4.4834,-4.3851,-4.3676,-4.3447,-4.2728,-4.257,-4.2394,-4.1745,-4.1639,-4.1604,-4.1604,-4.1692,-4.178,-3.6989,0.0,-3.8412,-3.9002,0.0,-4.0299,-4.089,-4.1227,-4.0678,-4.0903,-4.1636,-4.1973,-4.241,-4.2768,-4.3122,-4.356,-4.4007,-4.442,-4.4842,-4.5387,-4.5783,-4.5597,-4.4929,-4.4913,-4.4595,-4.3972,-4.3942,-4.3775,-4.3441,-4.3122,-4.2455,-4.1468,-4.1134,-4.0633,-3.9965,-3.995,-3.9565,-3.8723,-3.8723,-3.8266,-3.7323,-3.6984,-3.6335,-3.5295,-3.4714,0.0,0.0,0.0,0.0,0.0,0.0,0.0,0.0,0.0,0.0,-3.3251,-3.1626,-3.0385,-2.9816,-3.1598,-3.3064,-3.3794,-3.5644,-3.5791,-3.3606,-3.4495,-3.5745,-3.7091,-3.788,-3.8734,-3.9745,-4.0221,-4.0697,-4.1386,-4.1484,-4.1599,-4.2019,-4.2397,-4.2789,-4.3289,-4.395,-4.4507,-4.4889,-4.5213,-4.5319,-4.5372,-4.5354,-4.5389,-4.5441,-4.5159,-4.5106,-4.5511,-4.5821,-4.6023,-4.609,-4.6122,-4.6189,-4.6189,-4.6189,-4.6032,-4.573,-4.5659,-4.5396,-4.4694,-4.4483,-4.4237,-4.3553,-4.3388,-4.3311,-4.2941,-4.2881,-4.2926,-4.2873,-4.2326,-4.1823,-3.7952,-3.8434,-3.9489,-4.0005,-4.0228,-4.1329,-4.2223,-4.3092,0.0,0.0,0.0,-4.2913,-4.3347,-4.3891,-4.4327,-4.4843,-4.5268,-4.5603,-4.6033,-4.6407,-4.6797,-4.6526,-4.5772,-4.5757,-4.5341,-4.4587,-4.4572,-4.4572,-4.4541,-4.4018,-4.3356,-4.2617,-4.2048,-4.1355,-4.0586,-4.0524,-4.0161,-3.9666,-3.958,-3.9008,-3.7835,-3.779,-3.7188,-3.5969,-3.5834,-3.5488,-3.4871,-3.5674,-3.5953,-3.5612,-3.6123,-3.6848,-3.761,-3.5998,-3.5331,-3.5889,-3.4797,-3.3751,-3.3124,-3.4643,-3.5906,-3.6554,-3.7816,-3.8331,-3.7686,-3.7703,-3.8304,-3.9704,-4.0504,-4.1155,-4.1699,-4.1883,-4.2199,-4.2798,-4.2848,-4.3156,-4.3731,-4.3889,-4.4028,-4.449,-4.4838,-4.5142,-4.5424,-4.5718,-4.5959,-4.6063,-4.6133,-4.6098,-4.6046,-4.5754,-4.5598,-4.5889,-4.6023,-4.6073,-4.6189,-4.6189,-4.6189,-4.6189,-4.6189,-4.6189,-4.6189,-4.6189,-4.5975,-4.5414,-4.5308,-4.4957,-4.4308,-4.4208,-4.4248,-4.4152,-4.4226,-4.4334,-4.4254,-4.3324,-4.2465,-3.8742,-3.8872,-3.9748,-4.0187,-4.0373,-4.1832,-4.3375,-4.4741,-4.4158,-4.4237,-4.467,-4.5111,-4.565,-4.6138,-4.6664,-4.6924,-4.7182,-4.7507,-4.776,-4.8011,-4.826,-4.7665,-4.6496,-4.6449,-4.5788,-4.4649,-4.4572,-4.4572,-4.4556,-4.4479,-4.3833,-4.274,-4.2509,-4.1817,-4.0632,-4.0524,-4.0455,-4.0316,-4.0385,-3.9933,-3.925,-3.9235,-3.8882,-3.8115,-3.7517,-3.6904,-3.6244,-3.6074,-3.5929,-3.5926,-3.6829,-3.771,-3.8531,-3.8181,-3.8011,-3.827,-3.7419,-3.6579,-3.5916,-3.7151,-3.8625,-4.0254,-4.1049,-4.0942,-3.9834,-3.9699,-4.0307,-4.1726,-4.252,-4.3027,-4.3141,-4.3647,-4.4018,-4.4153,-4.4316,-4.4423,-4.4563,-4.4674,-4.4838,-4.5213,-4.5407,-4.5598,-4.5871,-4.6023,-4.6368,-4.6978,-4.7086,-4.7171,-4.6963,-4.6442,-4.5974,-4.5972,-4.609,-4.6172,-4.6189,-4.6189,-4.6189,-4.6189,-4.6221,-4.6239,-4.6239,-4.6239,-4.6151,-4.6063,-4.5975,-4.5712,-4.508,-4.5017,-4.4929,-4.4607,-4.4573,-4.4654,-4.4777,-4.4525,-4.4353,-4.0241,-4.0581,-4.143,-4.1874,-4.2112,-4.3723,-4.4915,-4.5912,-4.5941,-4.5927,-4.5883,-4.6329,-4.6887,-4.7366,-4.7794,-4.8049,-4.8118,-4.8286,-4.8355,-4.8453,-4.8537,-4.7896,-4.668,-4.6603,-4.588,-4.4633,-4.4572,-4.4572,-4.4572,-4.4572,-4.4079,-4.314,-4.2432,-4.154,-4.0601,-4.0524,-4.0524,-4.0524,-4.0524,-4.0201,-3.9539,-3.9524,-3.9185,-3.8523,-3.8185,-3.7987,-3.7776,-3.7655,-3.7669,-3.7808,-3.8428,-3.9113,-3.9879,-3.963,-3.975,-4.0227,-3.9564,-3.9012,-3.8632,-3.9642,-4.075,-4.1833,-4.2363,-4.2615,-4.2415,-4.2364,-4.2689,-4.3322,-4.404,-4.4502,-4.4502,-4.481,-4.5015,-4.5086,-4.5177,-4.5283,-4.5372,-4.5477,-4.558,-4.5803,-4.5905,-4.5955,-4.609,-4.6172,-4.652,-4.7257,-4.7696,-4.7854,-4.7503,-4.7066,-4.6595,-4.6227,-4.6189,-4.6189,-4.6189,-4.6189,-4.6189,-4.6189,-4.627,-4.6319,-4.6337,-4.6368,-4.6416,-4.6398,-4.6416,-4.6293,-4.5952,-4.6047,-4.5946,-4.5907,-4.5882,-4.6016,-4.6068,-4.6198,-4.6079,-4.1517,-4.2028,-4.2992,-4.3694,-4.4319,-4.5605,-4.6462,-4.6946,-4.7366,-4.7336,-4.7016,-4.7306,-4.7664,-4.8049,-4.8453,-4.8604,-4.8604,-4.8604,-4.8604,-4.8604,-4.8604,-4.7896,-4.6696,-4.6603,-4.588,-4.4695,-4.4572,-4.4572,-4.4572,-4.4572,-4.4156,-4.3325,-4.2186,-4.1247,-4.0539,-4.0539,-4.0593,-4.0593,-4.0662,-4.0346,-3.977,-3.9739,-3.9493,-3.9031,-3.9036,-3.9025,-3.9001,-3.9196,-3.9296,-3.9361,-3.9802,-4.0414,-4.0978,-4.1003,-4.1249,-4.1901,-4.1488,-4.1135,-4.1089,-4.161,-4.2159,-4.2771,-4.3186,-4.3733,-4.4406,-4.4544,-4.4544,-4.4596,-4.5009,-4.5353,-4.5371,-4.5596,-4.5735,-4.584,-4.61,-4.6361,-4.6514,-4.6547,-4.6597,-4.6698,-4.6698,-4.675,-4.673,-4.659,-4.6853,-4.7608,-4.831,-4.8486,-4.8012,-4.7783,-4.7362,-4.6923,-4.6607,-4.6537,-4.6502,-4.6713,-4.673,-4.6572,-4.6618,-4.6645,-4.6605,-4.656,-4.6655,-4.6702,-4.6684,-4.6666,-4.6666,-4.676,-4.6863,-4.6847,-4.6981,-4.7204,-4.7237,-4.7324,-4.7295,-4.2064,-4.2584,-4.3641,-4.4902,-4.6197,-4.6827,-4.7321,-4.7864,-4.8286,-4.8438,-4.8339,-4.8034,-4.8034,-4.8286,-4.8537,-4.8604,-4.8604,-4.8604,-4.8604,-4.8604,-4.8604,-4.7896,-4.6665,-4.6603,-4.5895,-4.4695,-4.4572,-4.4572,-4.4572,-4.4572,-4.3925,-4.2756,-4.1955,-4.1247,-4.0616,-4.0646,-4.0867,-4.107,-4.1189,-4.0956,-4.0447,-4.0432,-4.0416,-4.0355,-4.0461,-4.0318,-3.9796,-4.0013,-3.9894,-3.9456,-4.0388,-4.1144,-4.1533,-4.2297,-4.2961,-4.3304,-4.3254,-4.3032,-4.2689,-4.2408,-4.2768,-4.3645,-4.401,-4.4475,-4.5199,-4.5303,-4.525,-4.5303,-4.5372,-4.5441,-4.5475,-4.6116,-4.6603,-4.6759,-4.7387,-4.8033,-4.7998,-4.8242,-4.8363,-4.8328,-4.817,-4.8345,-4.8082,-4.7696,-4.7661,-4.8257,-4.9065,-4.9486,-4.9223,-4.8749,-4.8363,-4.8135,-4.7766,-4.7362,-4.7362,-4.7889,-4.7904,-4.7465,-4.7392,-4.7347,-4.7121,-4.6997,-4.686,-4.7183,-4.7041,-4.7059,-4.698,-4.7088,-4.716,-4.7276,-4.7407,-4.7511,-4.7597,-4.7699,-4.7548,-4.387,-4.4518,-4.5254,-4.6212,-4.7148,-4.7508,-4.7849,-4.8218,-4.8453,-4.8604,-4.8604,-4.8453,-4.837,-4.8453,-4.8537,-4.8604,-4.8604,-4.8604,-4.8604,-4.8604,-4.8604,-4.7881,-4.6696,-4.6603,-4.5895,-4.4664,-4.4572,-4.4572,-4.4572,-4.4572,-4.391,-4.2725,-4.2325,-4.1632,-4.0616,-4.0799,-4.1122,-4.1358,-4.1638,-4.1754,-4.1656,-4.1292,-4.1122,-4.1174,-4.1256,-4.128,-4.1209,-4.1292,-4.1342,-4.1261,-4.1878,-4.2329,-4.2392,-4.3211,-4.3864,-4.4246,-4.4179,-4.4068,-4.4024,-4.3939,-4.4104,-4.466,-4.4836,-4.5113,-4.5336,-4.5441,-4.5441,-4.5441,-4.5441,-4.5579,-4.6133,-4.6603,-4.7038,-4.7561,-4.8085,-4.8347,-4.8452,-4.8522,-4.8538,-4.8521,-4.8556,-4.8573,-4.8591,-4.8661,-4.8661,-4.8819,-4.9539,-5.0188,-4.9785,-4.9398,-4.9047,-4.8661,-4.8643,-4.8641,-4.8393,-4.8514,-4.8705,-4.8703,-4.8625,-4.844,-4.8704,-4.8496,-4.834,-4.7966,-4.7922,-4.7734,-4.733,-4.7356,-4.7425,-4.756,-4.7687,-4.7829,-4.7888,-4.7888,-4.7847,-4.5461,-4.627,-4.6916,-4.7452,-4.788,-4.8034,-4.8218,-4.837,-4.8537,-4.8604,-4.8604,-4.8604,-4.8604,-4.8604,-4.8604,-4.8604,-4.8604,-4.8604,-4.8604,-4.8604,-4.8604,-4.7896,-4.676,-4.6731,-4.6114,-4.506,-4.4949,-4.4933,-4.4949,-4.4949,-4.4266,-4.3061,-4.286,-4.2178,-4.1007,-4.1189,-4.1507,-4.1803,-4.2206,-4.2522,-4.2678,-4.238,-4.2093,-4.1884,-4.19,-4.2077,-4.2333,-4.2396,-4.2522,-4.2818,-4.3141,-4.3343,-4.3348,-4.397,-4.4497,-4.4878,-4.4848,-4.4797,-4.494,-4.5032,-4.514,-4.5247,-4.5371,-4.5441,-4.5441,-4.5441,-4.5423,-4.5476,-4.5476,-4.5822,-4.6637,-4.7055,-4.7613,-4.8505,-4.8837,-4.9065,-4.9258,-4.9188,-4.9223,-4.917,-4.9328,-4.9065,-4.8995,-4.9451,-4.9732,-4.9188,-5.0048,-5.0786,-5.0224,-5.0119,-4.996,-4.938,-4.9941,-4.9922,-4.9356,-4.9548,-4.9753,-4.9692,-4.9635,-4.9727,-5.0217,-4.9733,-4.9593,-4.8974,-4.8938,-4.8782,-4.8333,-4.8122,-4.8047,-4.8028,-4.813,-4.8281,-4.819,-4.819,-4.8172,-4.624,-4.7204,-4.8088,-4.8438,-4.8537,-4.8537,-4.8521,-4.8521,-4.8604,-4.8604,-4.8604,-4.8604,-4.8604,-4.8604,-4.8604,-4.8604,-4.8604,-4.8604,-4.8604,-4.8604,-4.8573,-4.7962,-4.695,-4.7045,-4.6559,-4.5547,-4.5672,-4.5744,-4.576,-4.5713,-4.5065,-4.3753,-4.3643,-4.2963,-4.1762,-4.19,-4.2238,-4.2506,-4.2912,-4.3218,-4.3519,-4.3502,-4.3125,-4.2599,-4.2661,-4.2769,-4.2937,-4.3169,-4.3306,-4.3453,-4.3781,-4.4021,-4.4187,-4.4517,-4.4947,-4.5318,-4.5335,-4.5318,-4.5371,-4.5371,-4.5371,-4.5371,-4.5371,-4.5441,-4.5441,-4.5441,-4.5476,-4.5581,-4.5581,-4.5944,-4.6829,-4.7596,-4.8452,-4.9397,-5.024,-5.061,-5.0715,-5.0539,-5.0768,-5.068,-5.0575,-5.0224,-4.9714,-5.0329,-5.0294,-4.9978,-5.0453,-5.1052,-5.0982,-5.107,-5.1034,-5.1051,-5.1136,-5.1099,-5.0358,-5.0531,-5.0791,-5.078,-5.0574,-5.0522,-5.0042,-4.9784,-4.9956,-5.0071,-5.0123,-4.9925,-4.9437,-4.9218,-4.9154,-4.9084,-4.8956,-4.8938,-4.9178,-4.8772,-4.8846,-4.7076,-4.7919,-4.8355,-4.8604,-4.8604,-4.8604,-4.8604,-4.8604,-4.8604,-4.8604,-4.8604,-4.8604,-4.8604,-4.8604,-4.8604,-4.8604,-4.8604,-4.8604,-4.8604,-4.8558,-4.8173,-4.7642,-4.717,-4.6993,-4.6587,-4.6144,-4.6285,-4.6426,-4.6362,-4.5977,-4.5255,-4.4372,-4.3859,-4.312,-4.2414,-4.2522,-4.2896,-4.3169,-4.3562,-4.3906,-4.4196,-4.427,-4.4064,-4.3856,-4.3502,-4.3443,-4.3697,-4.3772,-4.3931,-4.4128,-4.4406,-4.449,-4.447,-4.4878,-4.523,-4.5371,-4.5441,-4.5441,-4.5441,-4.5441,-4.5441,-4.5441,-4.5441,-4.5441,-4.5441,-4.5423,-4.5476,-4.5581,-4.5684,-4.6239,-4.7474,-4.812,-4.889,-5.017,-5.0715,-5.0891,-5.0891,-5.0891,-5.0891,-5.0891,-5.0891,-5.0575,-5.0118,-5.0399,-5.0539,-4.9943,-5.0488,-5.107,-5.1246,-5.135,-5.1454,-5.1538,-5.164,-5.1669,-5.1518,-5.149,-5.1665,-5.162,-5.1569,-5.1628,-5.1409,-5.1338,-5.1493,-5.1151,-5.1225,-5.1128,-5.0648,-5.0527,-5.0449,-5.0466,-5.0312,-5.0182,-5.0519,-5.02,-5.0294,-4.7849,-4.837,-4.8537,-4.8604,-4.8604,-4.8604,-4.8604,-4.8604,-4.8604,-4.8604,-4.8604,-4.8604,-4.8604,-4.8604,-4.8604,-4.8702,-4.8785,-4.8867,-4.8867,-4.8872,-4.8302,-4.7856,-4.7554,-4.722,-4.6957,-4.6733,-4.705,-4.7202,-4.7137,-4.6696,-4.5962,-4.5016,-4.4527,-4.3826,-4.3088,-4.3202,-4.3459,-4.3739,-4.4023,-4.4327,-4.457,-4.457,-4.457,-4.4514,-4.4196,-4.4121,-4.4367,-4.4384,-4.4536,-4.4742,-4.4923,-4.491,-4.4881,-4.5161,-4.5441,-4.5441,-4.5441,-4.5441,-4.5441,-4.5441,-4.5441,-4.5441,-4.5441,-4.5441,-4.5441,-4.5441,-4.5459,-4.5632,-4.5736,-4.6447,-4.7841,-4.8365,-4.9065,-5.0539,-5.0891,-5.0891,-5.0891,-5.0891,-5.0891,-5.0891,-5.0945,-5.0681,-5.0365,-5.0682,-5.0735,-5.0277,-5.0841,-5.1228,-5.1402,-5.1538,-5.164,-5.179,-5.1907,-5.2054,-5.2024,-5.2096,-5.2102,-5.2137,-5.2141,-5.2361,-5.2572,-5.2645,-5.2615,-5.2322,-5.2187,-5.2135,-5.2029,-5.1881,-5.1846,-5.1912,-5.1662,-5.1431,-5.1638,-5.1737,-5.17,-4.8537,-4.8604,-4.8604,-4.8604,-4.8604,-4.8604,-4.8604,-4.8604,-4.8604,-4.8604,-4.8604,-4.8604,-4.8687,-4.8687,-4.8769,-4.8949,-4.9275,-4.9421,-4.9517,-4.9503,-4.9016,-4.8628,-4.8365,-4.7958,-4.77,-4.7488,-4.7853,-4.8001,-4.7968,-4.7785,-4.709,-4.5997,-4.5665,-4.4854,-4.3578,-4.3772,-4.3889,-4.408,-4.4253,-4.444,-4.457,-4.457,-4.4626,-4.4626,-4.4665,-4.4776,-4.4978,-4.4978,-4.5032,-4.5318,-4.5371,-4.5388,-4.5353,-4.5371,-4.5441,-4.5441,-4.5441,-4.5441,-4.5441,-4.5441,-4.5423,-4.5423,-4.5423,-4.5441,-4.5476,-4.5476,-4.5546,-4.5909,-4.6047,-4.6655,-4.8172,-4.8679,-4.9311,-5.0575,-5.0891,-5.0891,-5.0891,-5.0891,-5.0891,-5.0891,-5.0998,-5.1088,-5.1088,-5.1158,-5.1158,-5.1192,-5.1331,-5.1556,-5.1708,-5.1808,-5.1956,-5.2054,-5.2132,-5.2275,-5.2387,-5.2498,-5.2498,-5.2508,-5.2545,-5.2698,-5.2919,-5.3048,-5.318,-5.3016,-5.3292,-5.3217,-5.3215,-5.3044,-5.2897,-5.2881,-5.2683,-5.2721,-5.2843,-5.2945,-5.2826,-4.8604,-4.8604,-4.8604,-4.8604,-4.8604,-4.8604,-4.8604,-4.8604,-4.8604,-4.8718,-4.8883,-4.9047,-4.9194,-4.9275,-4.9421,-4.9741,-5.0136,-5.0354,-5.0416,-5.0115,-4.9304,-4.9014,-4.8985,-4.8289,-4.815,-4.8436,-4.861,-4.869,-4.8606,-4.814,-4.7413,-4.6572,-4.5984,-4.5244,-4.4354,-4.4327,-4.4384,-4.4457,-4.4514,-4.457,-4.457,-4.457,-4.4626,-4.4737,-4.4793,-4.4886,-4.5123,-4.514,-4.5247,-4.5388,-4.5441,-4.5441,-4.5441,-4.5441,-4.5441,-4.5441,-4.5441,-4.5441,-4.5423,-4.5476,-4.5511,-4.5563,-4.5615,-4.5667,-4.5684,-4.5667,-4.6013,-4.662,-4.6934,-4.7666,-4.9013,-4.9855,-5.0294,-5.0838,-5.0891,-5.0891,-5.0891,-5.0891,-5.0891,-5.0891,-5.1016,-5.1105,-5.1246,-5.135,-5.1505,-5.1607,-5.1708,-5.1808,-5.1956,-5.2054,-5.2198,-5.2358,-5.2415,-5.2518,-5.2735,-5.3003,-5.3243,-5.3152,-5.3121,-5.3096,-5.3263,-5.3465,-5.3643,-5.3851,-5.4104,-5.4232,-5.4257,-5.4162,-5.3955,-5.4068,-5.4135,-5.4173,-5.4239,-5.4106,-5.3886,-4.8604,-4.8604,-4.8604,-4.8604,-4.8604,-4.8604,-4.8604,-4.8604,-4.8604,-4.88,-4.9128,-4.9437,-4.9661,-4.9979,-5.0198,-5.057,-5.0935,-5.1067,-5.1067,-5.0815,-4.9877,-4.9386,-4.9335,-4.8646,-4.845,-4.894,-4.9001,-4.9018,-4.8984,-4.8528,-4.7953,-4.7208,-4.6481,-4.5754,-4.5026,-4.4705,-4.457,-4.457,-4.457,-4.457,-4.4626,-4.4626,-4.4737,-4.4776,-4.4886,-4.5032,-4.5194,-4.523,-4.5318,-4.5371,-4.5441,-4.5441,-4.5441,-4.5441,-4.5441,-4.5441,-4.5423,-4.5423,-4.5459,-4.5528,-4.5632,-4.5684,-4.577,-4.5787,-4.5787,-4.5787,-4.622,-4.702,-4.7282,-4.8033,-4.9398,-5.0083,-5.0522,-5.0891,-5.0891,-5.0891,-5.0891,-5.0945,-5.0945,-5.0998,-5.1158,-5.1298,-5.1454,-5.1556,-5.1708,-5.1858,-5.1907,-5.1987,-5.215,-5.2246,-5.2387,-5.2526,-5.2672,-5.2831,-5.3109,-5.3484,-5.3869,-5.3817,-5.3687,-5.3658,-5.3682,-5.3926,-5.4106,-5.4364,-5.4642,-5.4716,-5.4743,-5.4922,-5.489,-5.5176,-5.5195,-5.5061,-5.4852,-5.4947,-5.4795,-4.8604,-4.8604,-4.862,-4.8687,-4.8687,-4.8702,-4.8687,-4.8687,-4.8687,-4.9031,-4.9421,-4.9884,-5.026,-5.057,-5.1011,-5.1336,-5.1605,-5.135,-5.1254,-5.1142,-5.0425,-4.9742,-4.9276,-4.8865,-4.8832,-4.9001,-4.9018,-4.9018,-4.9001,-4.8917,-4.8629,-4.7817,-4.7056,-4.6397,-4.5602,-4.4942,-4.457,-4.457,-4.457,-4.457,-4.4626,-4.4737,-4.4848,-4.4831,-4.5032,-4.5194,-4.5247,-4.53,-4.5371,-4.5441,-4.5441,-4.5476,-4.5423,-4.5423,-4.5476,-4.5441,-4.5441,-4.5476,-4.5563,-4.5632,-4.5736,-4.5787,-4.5821,-4.5873,-4.6011,-4.6115,-4.6532,-4.7507,-4.7612,-4.8189,-4.9504,-4.9925,-5.0259,-5.075,-5.0891,-5.0891,-5.0891,-5.0998,-5.1052,-5.1158,-5.1368,-5.1556,-5.169,-5.1858,-5.1956,-5.2102,-5.215,-5.2198,-5.2246,-5.234,-5.2415,-5.2663,-5.2985,-5.3553,-5.3967,-5.478,-5.5156,-5.5285,-5.5005,-5.478,-5.4439,-5.4518,-5.4533,-5.4784,-5.5113,-5.5189,-5.5195,-5.5286,-5.5332,-5.5332,-5.5332,-5.5377,-5.5358,-5.5332,-5.5332,-4.9113,-4.9097,-4.9113,-4.9113,-4.9113,-4.9275,-4.9356,-4.934,-4.9517,-4.9884,-5.0338,-5.0647,-5.1086,-5.1623,-5.1826,-5.1883,-5.1632,-5.1541,-5.1011,-5.0373,-5.0234,-4.9712,-4.922,-4.8996,-4.8956,-4.9001,-4.9018,-4.9018,-4.9018,-4.9018,-4.8646,-4.7902,-4.7225,-4.6464,-4.5703,-4.4993,-4.4604,-4.457,-4.4587,-4.4682,-4.4737,-4.4793,-4.4886,-4.5086,-4.5177,-4.53,-4.5371,-4.5371,-4.5459,-4.5581,-4.5702,-4.5753,-4.5718,-4.5736,-4.5684,-4.5581,-4.5528,-4.5581,-4.5632,-4.5787,-4.5922,-4.5939,-4.6023,-4.6318,-4.6946,-4.6981,-4.7629,-4.8644,-4.9048,-4.9381,-5.0329,-5.0539,-5.0697,-5.082,-5.0891,-5.0891,-5.0945,-5.1016,-5.1105,-5.1264,-5.1505,-5.174,-5.1938,-5.2102,-5.2198,-5.234,-5.2387,-5.2405,-5.2452,-5.2699,-5.2872,-5.3167,-5.3597,-5.4266,-5.4988,-5.59,-5.6488,-5.6762,-5.6587,-5.6271,-5.5718,-5.5233,-5.5121,-5.5066,-5.5531,-5.5756,-5.5477,-5.5351,-5.5377,-5.5575,-5.5403,-5.5422,-5.5403,-5.5358,-5.5358,-4.9275,-4.9275,-4.9275,-4.9437,-4.9597,-4.9805,-4.9994,-5.0229,-5.0461,-5.0903,-5.1352,-5.1663,-5.2098,-5.2577,-5.2518,-5.2387,-5.2001,-5.1543,-5.0832,-5.0316,-4.9921,-4.9531,-4.9148,-4.9018,-4.9018,-4.9018,-4.9001,-4.9018,-4.9018,-4.9018,-4.8765,-4.8342,-4.7631,-4.6887,-4.621,-4.5432,-4.4874,-4.4694,-4.4682,-4.4831,-4.4978,-4.5123,-4.5336,-4.5546,-4.5598,-4.5649,-4.5701,-4.5752,-4.5752,-4.5752,-4.5871,-4.6023,-4.5972,-4.6023,-4.5922,-4.5752,-4.5684,-4.5632,-4.577,-4.5922,-4.6023,-4.6073,-4.6189,-4.6593,-4.7187,-4.7415,-4.8029,-4.9363,-4.9662,-5.0101,-5.0697,-5.0891,-5.0891,-5.0891,-5.0945,-5.0998,-5.0998,-5.1158,-5.1316,-5.1487,-5.164,-5.1889,-5.215,-5.2264,-5.2405,-5.248,-5.2536,-5.2554,-5.2663,-5.2998,-5.3474,-5.3915,-5.4615,-5.5454,-5.6178,-5.7005,-5.7607,-5.7939,-5.7943,-5.7658,-5.708,-5.6368,-5.6235,-5.6186,-5.6278,-5.6267,-5.6152,-5.6007,-5.595,-5.5995,-5.567,-5.5498,-5.5517,-5.5766,-5.5708,-4.9452,-4.9437,-4.9517,-4.9677,-5.0136,-5.0461,-5.0795,-5.1171,-5.1541,-5.1888,-5.2333,-5.2717,-5.3026,-5.3399,-5.2938,-5.2704,-5.2533,-5.1276,-5.069,-5.0213,-4.9837,-4.9402,-4.9158,-4.9124,-4.9124,-4.9124,-4.9063,-4.9063,-4.9124,-4.9063,-4.908,-4.8853,-4.8267,-4.7573,-4.6784,-4.6048,-4.5371,-4.4856,-4.4923,-4.5123,-4.5319,-4.5615,-4.587,-4.607,-4.6186,-4.6217,-4.6266,-4.6266,-4.6186,-4.597,-4.6168,-4.6284,-4.6266,-4.6284,-4.6235,-4.6137,-4.5955,-4.5922,-4.6055,-4.6172,-4.6326,-4.6495,-4.6513,-4.6815,-4.7706,-4.8108,-4.8655,-4.9995,-4.9873,-5.0294,-5.0751,-5.0945,-5.0981,-5.0981,-5.1105,-5.1158,-5.1211,-5.1402,-5.1538,-5.174,-5.184,-5.2054,-5.2198,-5.234,-5.2415,-5.2726,-5.2889,-5.3251,-5.3584,-5.413,-5.4543,-5.4954,-5.5808,-5.6759,-5.7469,-5.8116,-5.8615,-5.9014,-5.9054,-5.8854,-5.8378,-5.7872,-5.7756,-5.7638,-5.7191,-5.7172,-5.7363,-5.7179,-5.6855,-5.6664,-5.6549,-5.6129,-5.5842,-5.6243,-5.6377,-5.0386,-5.0573,-5.0679,-5.0876,-5.1102,-5.1459,-5.1826,-5.2043,-5.24,-5.2803,-5.3078,-5.323,-5.3516,-5.383,-5.3109,-5.2511,-5.1913,-5.0974,-5.0342,-4.971,-4.9607,-4.9488,-4.9367,-4.9411,-4.935,-4.9367,-4.9367,-4.9367,-4.9367,-4.9367,-4.9367,-4.9265,-4.8762,-4.7885,-4.7118,-4.6476,-4.5674,-4.5115,-4.5177,-4.5459,-4.5767,-4.6067,-4.6376,-4.6678,-4.6724,-4.6742,-4.6724,-4.6771,-4.6817,-4.688,-4.6817,-4.6817,-4.6863,-4.6817,-4.6771,-4.6678,-4.6525,-4.6447,-4.659,-4.6766,-4.708,-4.7607,-4.7713,-4.8372,-4.9688,-4.9724,-5.0172,-5.0923,-5.1033,-5.0964,-5.1052,-5.1158,-5.1193,-5.1246,-5.1402,-5.1589,-5.169,-5.169,-5.179,-5.1987,-5.215,-5.2246,-5.2452,-5.2536,-5.269,-5.2967,-5.3426,-5.3977,-5.4557,-5.5133,-5.5707,-5.6145,-5.7059,-5.7978,-5.8451,-5.9,-5.9357,-5.9655,-5.9731,-5.9779,-5.933,-5.891,-5.8612,-5.823,-5.7829,-5.8001,-5.8421,-5.8001,-5.76,-5.7523,-5.7409,-5.7084,-5.6893,-5.7065,-5.7008,-5.0984,-5.1301,-5.1533,-5.1793,-5.2098,-5.2454,-5.2836,-5.3128,-5.3466,-5.3732,-5.3881,-5.3881,-5.384,-5.3673,-5.2918,-5.2145,-5.1424,-5.0643,-5.0137,-4.9794,-4.9742,-4.9742,-4.9742,-4.9725,-4.9666,-4.9547,-4.9488,-4.9488,-4.9488,-4.959,-4.9632,-4.9691,-4.9337,-4.8678,-4.7748,-4.7217,-4.6458,-4.5631,-4.5684,-4.6003,-4.6262,-4.6595,-4.6908,-4.7214,-4.7258,-4.7258,-4.7276,-4.7276,-4.7389,-4.756,-4.7542,-4.7439,-4.7439,-4.7396,-4.7378,-4.7309,-4.7115,-4.7044,-4.7151,-4.7294,-4.7625,-4.8434,-4.8488,-4.9387,-5.0358,-5.0825,-5.1173,-5.1571,-5.1604,-5.1367,-5.1246,-5.1298,-5.1402,-5.1556,-5.174,-5.1951,-5.2126,-5.2096,-5.2084,-5.2257,-5.2397,-5.2508,-5.2645,-5.2743,-5.2919,-5.317,-5.4123,-5.4689,-5.522,-5.59,-5.6856,-5.7561,-5.8393,-5.9114,-5.9467,-5.9807,-6.0037,-6.0161,-6.0151,-6.0198,-6.0007,-5.9606,-5.9224,-5.8975,-5.8822,-5.9109,-5.9376,-5.888,-5.844,-5.8345,-5.8211,-5.8039,-5.7867,-5.7714,-5.7619,-5.1475,-5.1931,-5.2224,-5.2561,-5.2941,-5.3315,-5.3683,-5.4045,-5.4385,-5.4367,-5.446,-5.4425,-5.3863,-5.3339,-5.2398,-5.1666,-5.0959,-5.0383,-4.997,-4.9952,-4.9935,-4.9935,-4.9935,-4.9935,-4.9918,-4.9666,-4.9607,-4.9607,-4.9666,-4.9708,-4.9907,-5.0062,-5.0215,-4.9495,-4.8539,-4.8207,-4.7456,-4.628,-4.6363,-4.6631,-4.6845,-4.7178,-4.7536,-4.7723,-4.7824,-4.7806,-4.7806,-4.7847,-4.7911,-4.8072,-4.8208,-4.8151,-4.8035,-4.7937,-4.8105,-4.8038,-4.7922,-4.8043,-4.8327,-4.8333,-4.8587,-4.9168,-4.9331,-5.0003,-5.1147,-5.1637,-5.1883,-5.2025,-5.2078,-5.1736,-5.1487,-5.1622,-5.1722,-5.1822,-5.2066,-5.2315,-5.2509,-5.2545,-5.2635,-5.2725,-5.2795,-5.2857,-5.2944,-5.3054,-5.3198,-5.3551,-5.4552,-5.5379,-5.5921,-5.6834,-5.7893,-5.857,-5.9298,-5.9633,-5.996,-6.0056,-6.0342,-6.0408,-6.0389,-6.0389,-6.0389,-6.0102,-5.9797,-6.0045,-6.0083,-6.016,-6.0045,-5.9644,-5.9319,-5.9185,-5.909,-5.8975,-5.8689,-5.8326,-5.8372,-5.2307,-5.2747,-5.3043,-5.3315,-5.355,-5.3766,-5.3878,-5.4175,-5.4247,-5.4494,-5.4374,-5.3856,-5.3511,-5.3011,-5.189,-5.0925,-5.0373,-5.0062,-5.0011,-5.0011,-5.0011,-5.0011,-4.9993,-5.0092,-5.0189,-5.0189,-5.0074,-4.9976,-4.9959,-5.0132,-5.0418,-5.0622,-5.0822,-5.0273,-4.9327,-4.891,-4.8151,-4.6955,-4.6972,-4.7178,-4.7439,-4.7669,-4.7951,-4.8169,-4.8226,-4.8304,-4.8324,-4.8382,-4.8476,-4.8514,-4.8624,-4.8624,-4.8624,-4.8474,-4.871,-4.9095,-4.9069,-4.9175,-4.9841,-5.0134,-5.0648,-5.1252,-5.1289,-5.1692,-5.248,-5.2815,-5.2791,-5.2685,-5.259,-5.2315,-5.2036,-5.2144,-5.2239,-5.2361,-5.2572,-5.2839,-5.2993,-5.3162,-5.3285,-5.3285,-5.3285,-5.3244,-5.3326,-5.3407,-5.3604,-5.4185,-5.5268,-5.6029,-5.6635,-5.7842,-5.9233,-5.9678,-6.0004,-6.0169,-6.0323,-6.0304,-6.0389,-6.0389,-6.0389,-6.0389,-6.0389,-6.0389,-6.0389,-6.0389,-6.0389,-6.0313,-6.0217,-6.0122,-6.0092,-5.9843,-5.9863,-5.9854,-5.9614,-5.9354,-5.9611,-5.1917,-5.2283,-5.2656,-5.2848,-5.2929,-5.3009,-5.3135,-5.3197,-5.326,-5.3322,-5.3218,-5.2925,-5.2546,-5.2097,-5.1545,-5.0718,-5.0166,-5.0011,-5.0011,-5.0011,-5.0011,-5.0011,-5.0051,-5.0206,-5.0418,-5.0622,-5.0694,-5.0602,-5.0453,-5.0749,-5.0982,-5.1138,-5.1162,-5.0581,-4.9736,-4.9171,-4.8416,-4.7543,-4.7475,-4.7627,-4.7811,-4.8072,-4.8229,-4.8363,-4.8457,-4.8476,-4.8532,-4.855,-4.8864,-4.9233,-4.9416,-4.9509,-4.9583,-4.9584,-4.9677,-5.0084,-4.999,-5.0174,-5.0914,-5.1155,-5.1451,-5.2114,-5.2317,-5.2708,-5.3302,-5.3563,-5.3521,-5.3281,-5.3138,-5.2907,-5.2599,-5.2733,-5.282,-5.295,-5.312,-5.3326,-5.3487,-5.37,-5.387,-5.3926,-5.385,-5.3811,-5.37,-5.3814,-5.3999,-5.4814,-5.5946,-5.6643,-5.7219,-5.8578,-6.0013,-6.0137,-6.0275,-6.0332,-6.0389,-6.0389,-6.0389,-6.0389,-6.0389,-6.0389,-6.0417,-6.0417,-6.0389,-6.0389,-6.0389,-6.0417,-6.0398,-6.0302,-6.0406,-6.0464,-6.0338,-6.0269,-6.0384,-6.0506,-6.0525,-5.1532,-5.1833,-5.2157,-5.2278,-5.2278,-5.2296,-5.2313,-5.2278,-5.2347,-5.2425,-5.2261,-5.2106,-5.1785,-5.126,-5.1025,-5.0627,-5.0109,-5.0149,-5.0149,-5.0206,-5.0206,-5.0149,-5.0263,-5.0509,-5.0785,-5.1157,-5.1432,-5.1381,-5.1174,-5.1414,-5.1544,-5.1484,-5.1228,-5.0732,-5.001,-4.9398,-4.8556,-4.8107,-4.7951,-4.7995,-4.8151,-4.8267,-4.8438,-4.8532,-4.8532,-4.8587,-4.8642,-4.8678,-4.914,-4.9693,-5.0008,-5.0194,-5.0638,-5.0657,-5.0804,-5.1135,-5.0821,-5.1118,-5.1713,-5.2029,-5.2419,-5.2977,-5.2903,-5.3349,-5.3702,-5.3907,-5.387,-5.3584,-5.3487,-5.3407,-5.3185,-5.3226,-5.3367,-5.3447,-5.3584,-5.3795,-5.3982,-5.4276,-5.4662,-5.4626,-5.4499,-5.4387,-5.4293,-5.4196,-5.4368,-5.4957,-5.6064,-5.6897,-5.7604,-5.9026,-6.0137,-6.0245,-6.0352,-6.0361,-6.0389,-6.0389,-6.0389,-6.0389,-6.0389,-6.0389,-6.0417,-6.0417,-6.0417,-6.0444,-6.0472,-6.0499,-6.0472,-6.0491,-6.0491,-6.0525,-6.0578,-6.0578,-6.0552,-6.0578,-6.0559,-5.2106,-5.2321,-5.25,-5.2653,-5.2584,-5.2549,-5.2601,-5.2507,-5.2455,-5.2653,-5.2369,-5.1848,-5.1483,-5.1257,-5.0776,-5.0519,-5.0509,-5.0547,-5.064,-5.0749,-5.0731,-5.0731,-5.0803,-5.1105,-5.1432,-5.1764,-5.209,-5.2072,-5.1988,-5.2112,-5.1973,-5.17,-5.159,-5.1202,-5.0126,-4.9575,-4.9287,-4.8624,-4.8476,-4.8476,-4.8514,-4.8514,-4.855,-4.8624,-4.8715,-4.8825,-4.8898,-4.9024,-4.9431,-5.0172,-5.0265,-5.0599,-5.1101,-5.0842,-5.1898,-5.2678,-5.2938,-5.2586,-5.333,-5.3422,-5.3459,-5.3682,-5.3776,-5.3943,-5.4072,-5.4091,-5.4055,-5.3889,-5.387,-5.3776,-5.3623,-5.3641,-5.3717,-5.3813,-5.3963,-5.4089,-5.4252,-5.4878,-5.5258,-5.5678,-5.563,-5.523,-5.4948,-5.4856,-5.4824,-5.5466,-5.6163,-5.707,-5.8003,-5.9405,-6.0197,-6.0332,-6.038,-6.0389,-6.0389,-6.0389,-6.0389,-6.0389,-6.0408,-6.0417,-6.0417,-6.0444,-6.0472,-6.0499,-6.0525,-6.0533,-6.0552,-6.0525,-6.0552,-6.0578,-6.0629,-6.0629,-6.0604,-6.0604,-6.0655,-5.1389,-5.1275,-5.1367,-5.1407,-5.1407,-5.1407,-5.1407,-5.1407,-5.1407,-5.1407,-5.1372,-5.1076,-5.0885,-5.0889,-5.0652,-5.0766,-5.0964,-5.1105,-5.1278,-5.1396,-5.1396,-5.1396,-5.1497,-5.1746,-5.2083,-5.2417,-5.2751,-5.3011,-5.2889,-5.2766,-5.259,-5.2328,-5.1783,-5.124,-5.0286,-4.9547,-4.903,-4.8661,-4.8569,-4.8569,-4.8569,-4.8587,-4.866,-4.8733,-4.8859,-4.9171,-4.9557,-4.9719,-5.0459,-5.1335,-5.1726,-5.2043,-5.2529,-5.2622,-5.3049,-5.3719,-5.3755,-5.3717,-5.398,-5.4091,-5.4091,-5.4091,-5.4127,-5.4127,-5.4181,-5.4217,-5.4233,-5.4198,-5.4198,-5.4108,-5.4091,-5.4091,-5.4146,-5.4235,-5.4474,-5.454,-5.4773,-5.5395,-5.5939,-5.6343,-5.6708,-5.6386,-5.6178,-5.6323,-5.6137,-5.6006,-5.692,-5.7995,-5.873,-5.9569,-6.0161,-6.0361,-6.0389,-6.0389,-6.0389,-6.0389,-6.0417,-6.0436,-6.0474,-6.0474,-6.0491,-6.0499,-6.0659,-6.0628,-6.0597,-6.0578,-6.0585,-6.061,-6.0629,-6.0655,-6.0704,-6.068,-6.068,-6.0762,-6.081,-5.0764,-5.0526,-5.0509,-5.0526,-5.0526,-5.0526,-5.0544,-5.0544,-5.0596,-5.0561,-5.0544,-5.0617,-5.0599,-5.0675,-5.0928,-5.121,-5.1449,-5.1719,-5.1928,-5.2036,-5.2131,-5.2112,-5.2177,-5.2427,-5.2652,-5.3011,-5.3217,-5.3422,-5.3542,-5.3447,-5.3152,-5.295,-5.2096,-5.1267,-5.0583,-4.9824,-4.9103,-4.8732,-4.8695,-4.8825,-4.901,-4.9066,-4.925,-4.9432,-4.9596,-4.987,-5.0514,-5.0695,-5.1495,-5.241,-5.2709,-5.2916,-5.3532,-5.3644,-5.3755,-5.4146,-5.4161,-5.4198,-5.4235,-5.4198,-5.4163,-5.4163,-5.4163,-5.4252,-5.4324,-5.4393,-5.4409,-5.4356,-5.4375,-5.4375,-5.4446,-5.4559,-5.4822,-5.4969,-5.5164,-5.5187,-5.5435,-5.6305,-5.7043,-5.7522,-5.7829,-5.7851,-5.7756,-5.7984,-5.7672,-5.6911,-5.7596,-5.8835,-5.9483,-5.9979,-6.0179,-6.0389,-6.0417,-6.0444,-6.0444,-6.0444,-6.0444,-6.054,-6.0597,-6.0893,-6.1073,-6.1088,-6.116,-6.1006,-6.0821,-6.0699,-6.0704,-6.0685,-6.071,-6.0729,-6.0753,-6.0777,-6.0796,-6.0935,-6.1127,-5.0891,-5.0891,-5.0836,-5.0836,-5.0836,-5.0891,-5.0819,-5.0836,-5.0836,-5.0836,-5.0819,-5.0998,-5.1088,-5.1263,-5.1485,-5.175,-5.2137,-5.2297,-5.2527,-5.268,-5.2761,-5.2769,-5.2813,-5.2969,-5.3138,-5.33,-5.3499,-5.3658,-5.3774,-5.3717,-5.3234,-5.2679,-5.2437,-5.1491,-5.0804,-5.0304,-4.9711,-4.934,-4.9245,-4.9486,-4.9821,-5.0062,-5.0375,-5.1003,-5.1225,-5.1391,-5.1588,-5.1604,-5.2049,-5.3005,-5.3134,-5.3358,-5.3975,-5.4052,-5.4163,-5.4308,-5.4364,-5.438,-5.4359,-5.434,-5.4375,-5.4375,-5.4375,-5.4356,-5.4375,-5.4409,-5.4409,-5.4409,-5.4409,-5.4409,-5.4668,-5.5059,-5.5394,-5.5612,-5.5899,-5.6387,-5.6803,-5.7635,-5.8315,-5.8756,-5.8881,-5.8825,-5.8835,-5.8949,-5.8511,-5.7728,-5.8282,-5.9531,-5.9836,-6.0255,-6.0293,-6.0417,-6.0472,-6.0472,-6.0499,-6.0499,-6.0525,-6.0794,-6.0985,-6.1548,-6.2092,-6.203,-6.1844,-6.153,-6.1344,-6.106,-6.08,-6.0757,-6.0734,-6.0757,-6.0819,-6.0877,-6.1262,-6.1627,-6.1839,-5.0891,-5.0891,-5.0891,-5.0891,-5.0891,-5.0891,-5.0891,-5.0891,-5.0891,-5.0891,-5.0945,-5.1158,-5.1333,-5.1554,-5.1964,-5.2325,-5.2733,-5.2987,-5.3175,-5.3341,-5.344,-5.344,-5.3481,-5.3481,-5.3561,-5.36,-5.3736,-5.3774,-5.3813,-5.3813,-5.3701,-5.3311,-5.2884,-5.2382,-5.1714,-5.1082,-5.0655,-5.0542,-5.0447,-5.0706,-5.0836,-5.1074,-5.1258,-5.1535,-5.1678,-5.203,-5.2401,-5.26,-5.3087,-5.3556,-5.3743,-5.3987,-5.4193,-5.4268,-5.4306,-5.4396,-5.4396,-5.4412,-5.4428,-5.4409,-5.4409,-5.4409,-5.4409,-5.4409,-5.4409,-5.4409,-5.4409,-5.4409,-5.4465,-5.4555,-5.4593,-5.5243,-5.58,-5.6107,-5.6638,-5.7384,-5.8,-5.8737,-5.9044,-5.9254,-5.9531,-5.9722,-5.9703,-5.9722,-5.9139,-5.8585,-5.9376,-5.9988,-6.0264,-6.0417,-6.0444,-6.0472,-6.0499,-6.0533,-6.0533,-6.0559,-6.0585,-6.0949,-6.1352,-6.2279,-6.2996,-6.2842,-6.2644,-6.2271,-6.1815,-6.1473,-6.1146,-6.0854,-6.0757,-6.0781,-6.0916,-6.105,-6.157,-6.2262,-6.2608,-5.068,-5.0891,-5.0891,-5.0891,-5.0891,-5.0891,-5.0891,-5.0891,-5.0891,-5.0945,-5.1052,-5.1384,-5.1637,-5.1946,-5.2417,-5.2882,-5.3263,-5.3502,-5.3717,-5.3794,-5.3832,-5.387,-5.387,-5.387,-5.387,-5.3888,-5.387,-5.3907,-5.3907,-5.3888,-5.387,-5.3684,-5.3349,-5.2977,-5.2364,-5.1844,-5.1398,-5.1452,-5.1469,-5.1745,-5.1836,-5.1983,-5.2333,-5.2498,-5.2682,-5.2885,-5.3312,-5.353,-5.377,-5.4146,-5.4334,-5.4371,-5.4409,-5.4409,-5.4409,-5.4409,-5.4409,-5.4409,-5.4409,-5.4409,-5.4409,-5.4409,-5.4424,-5.4424,-5.4443,-5.4495,-5.4585,-5.4942,-5.4905,-5.489,-5.5112,-5.6248,-5.6875,-5.7313,-5.8015,-5.8691,-5.887,-5.9359,-5.9474,-5.9654,-5.9922,-6.0179,-6.016,-6.0102,-5.9854,-5.9415,-5.9813,-6.0234,-6.033,-6.0472,-6.0499,-6.0525,-6.0559,-6.0585,-6.061,-6.0635,-6.0718,-6.1058,-6.1716,-6.3162,-6.3783,-6.3687,-6.3553,-6.3315,-6.2762,-6.1973,-6.1493,-6.1185,-6.0954,-6.08,-6.1146,-6.1647,-6.2358,-6.307,-6.3493,-5.0207,-5.0873,-5.0855,-5.0909,-5.0945,-5.0891,-5.0891,-5.0891,-5.0945,-5.1088,-5.1315,-5.1768,-5.2167,-5.2536,-5.3011,-5.3422,-5.366,-5.3851,-5.3926,-5.4018,-5.4018,-5.4055,-5.4055,-5.4055,-5.4018,-5.4091,-5.4055,-5.4055,-5.4036,-5.4055,-5.4073,-5.4073,-5.3832,-5.3497,-5.2661,-5.1844,-5.1507,-5.1542,-5.1689,-5.2228,-5.2709,-5.2912,-5.33,-5.3671,-5.3802,-5.3946,-5.4018,-5.4127,-5.424,-5.4352,-5.4409,-5.4409,-5.4424,-5.4443,-5.4443,-5.4443,-5.4443,-5.4443,-5.4409,-5.4409,-5.4443,-5.4443,-5.4458,-5.4472,-5.4524,-5.4703,-5.5031,-5.5484,-5.5786,-5.6201,-5.6913,-5.7664,-5.7989,-5.8407,-5.9052,-5.9562,-5.9701,-5.9779,-5.9922,-5.995,-6.016,-6.037,-6.037,-6.0351,-6.0332,-6.0264,-6.0414,-6.0472,-6.0499,-6.0525,-6.0552,-6.0604,-6.061,-6.0655,-6.0685,-6.0734,-6.0892,-6.1233,-6.2074,-6.3501,-6.4526,-6.4718,-6.4545,-6.4301,-6.3628,-6.2781,-6.207,-6.1454,-6.1647,-6.1916,-6.207,-6.2551,-6.3243,-6.3858,-6.4339,-4.9658,-5.0347,-5.0364,-5.0664,-5.1105,-5.0981,-5.0891,-5.0945,-5.1088,-5.1297,-5.1633,-5.2101,-5.2634,-5.3059,-5.3425,-5.3756,-5.3981,-5.4018,-5.4091,-5.4091,-5.4127,-5.4091,-5.411,-5.4146,-5.4146,-5.4091,-5.4091,-5.4127,-5.4091,-5.4127,-5.4091,-5.411,-5.4127,-5.3924,-5.3664,-5.3291,-5.3216,-5.3252,-5.3344,-5.3564,-5.3805,-5.384,-5.4021,-5.434,-5.434,-5.4375,-5.439,-5.4409,-5.4409,-5.4409,-5.4409,-5.4424,-5.4439,-5.4472,-5.4562,-5.4595,-5.4627,-5.4608,-5.4608,-5.4576,-5.4543,-5.4529,-5.4566,-5.4613,-5.4603,-5.5246,-5.5687,-5.6135,-5.6696,-5.7056,-5.734,-5.8123,-5.8558,-5.881,-5.9376,-5.994,-6.0199,-6.0246,-6.0293,-6.0255,-6.037,-6.0542,-6.0599,-6.0905,-6.0943,-6.0865,-6.0931,-6.0633,-6.0537,-6.0552,-6.0604,-6.0655,-6.0685,-6.0729,-6.0777,-6.08,-6.1281,-6.1829,-6.2617,-6.3776,-6.4628,-6.534,-6.5166,-6.4724,-6.4166,-6.357,-6.2878,-6.2435,-6.2935,-6.3243,-6.3358,-6.3474,-6.3935,-6.4647,-6.5301,-4.9096,-4.9788,-4.9788,-5.0317,-5.0959,-5.1035,-5.1052,-5.1193,-5.147,-5.175,-5.2083,-5.2589,-5.3083,-5.3526,-5.3851,-5.4018,-5.4198,-5.4198,-5.4217,-5.4198,-5.4198,-5.4217,-5.4217,-5.4179,-5.4252,-5.4198,-5.4198,-5.4198,-5.4217,-5.4198,-5.4198,-5.4217,-5.4217,-5.4179,-5.4123,-5.405,-5.4015,-5.3959,-5.4048,-5.4139,-5.4231,-5.4318,-5.4371,-5.4409,-5.4409,-5.4409,-5.4409,-5.4409,-5.4409,-5.4409,-5.439,-5.4405,-5.4434,-5.4519,-5.4678,-5.478,-5.4805,-5.4786,-5.4767,-5.4749,-5.4799,-5.5107,-5.5018,-5.505,-5.5278,-5.6034,-5.6713,-5.718,-5.759,-5.797,-5.8361,-5.9038,-5.9212,-5.9511,-5.9712,-6.0294,-6.0437,-6.0485,-6.0523,-6.0504,-6.0809,-6.0886,-6.1115,-6.1344,-6.1631,-6.1534,-6.1417,-6.1081,-6.0782,-6.0815,-6.0885,-6.0935,-6.0902,-6.0907,-6.0873,-6.08,-6.1416,-6.2353,-6.3199,-6.4051,-6.4993,-6.5686,-6.5416,-6.5128,-6.4609,-6.4089,-6.3628,-6.3493,-6.3839,-6.4262,-6.4628,-6.4705,-6.4782,-6.5224,-6.584,-4.8568,-4.9228,-4.9299,-4.9745,-5.0463,-5.0954,-5.1294,-5.1538,-5.203,-5.2307,-5.2571,-5.3166,-5.3584,-5.3907,-5.42,-5.4249,-5.4206,-5.4206,-5.4074,-5.4056,-5.383,-5.3962,-5.4037,-5.4093,-5.4074,-5.4225,-5.4337,-5.4321,-5.4409,-5.4356,-5.4356,-5.4356,-5.4375,-5.4375,-5.4321,-5.4252,-5.4235,-5.4289,-5.4324,-5.4359,-5.4375,-5.4409,-5.4409,-5.4409,-5.4409,-5.4409,-5.4409,-5.4409,-5.4409,-5.4409,-5.4424,-5.442,-5.4449,-5.4546,-5.4793,-5.4962,-5.4947,-5.492,-5.492,-5.492,-5.5356,-5.5799,-5.6185,-5.6128,-5.6379,-5.6983,-5.7699,-5.8261,-5.8709,-5.9299,-5.9862,-5.9919,-6.0006,-6.0093,-6.0141,-6.0409,-6.0561,-6.0618,-6.0695,-6.0905,-6.1449,-6.1755,-6.2233,-6.2481,-6.2404,-6.2336,-6.2199,-6.1958,-6.1665,-6.1453,-6.1502,-6.1464,-6.1373,-6.1166,-6.1146,-6.1396,-6.205,-6.3122,-6.3392,-6.4166,-6.5128,-6.5878,-6.5686,-6.5416,-6.5032,-6.4647,-6.4397,-6.4397,-6.4609,-6.5032,-6.534,-6.5416,-6.532,-6.5455,-6.5878,-4.7976,-4.8721,-4.8711,-4.9205,-4.997,-5.0434,-5.1056,-5.1934,-5.2381,-5.2766,-5.3234,-5.3586,-5.374,-5.4233,-5.434,-5.3981,-5.3714,-5.3451,-5.3038,-5.2926,-5.2907,-5.27,-5.2888,-5.3282,-5.3451,-5.377,-5.4052,-5.4409,-5.4409,-5.4409,-5.4409,-5.4409,-5.4409,-5.4409,-5.4409,-5.4375,-5.434,-5.434,-5.4375,-5.4375,-5.4409,-5.4409,-5.4409,-5.4409,-5.4409,-5.4409,-5.4409,-5.4409,-5.4443,-5.4458,-5.4472,-5.4482,-5.4421,-5.4647,-5.4909,-5.5038,-5.5057,-5.5057,-5.5133,-5.5608,-5.6083,-5.6597,-5.7289,-5.7574,-5.7661,-5.7986,-5.874,-5.915,-5.956,-5.997,-6.016,-6.0246,-6.0285,-6.0332,-6.0447,-6.0724,-6.0905,-6.1211,-6.1344,-6.2003,-6.2481,-6.272,-6.3227,-6.3274,-6.3195,-6.3146,-6.3084,-6.2919,-6.258,-6.2367,-6.2147,-6.2127,-6.2147,-6.2031,-6.2339,-6.2608,-6.3205,-6.3839,-6.4012,-6.4378,-6.5301,-6.5878,-6.5878,-6.5724,-6.5416,-6.5378,-6.5378,-6.5359,-6.5243,-6.5436,-6.5724,-6.582,-6.5878,-6.5878,-6.5878,-4.7738,-4.8171,-4.8171,-4.871,-4.959,-5.0235,-5.1054,-5.181,-5.2045,-5.2389,-5.2698,-5.2901,-5.319,-5.3305,-5.3301,-5.3095,-5.27,-5.2663,-5.2437,-5.2212,-5.1818,-5.2024,-5.2231,-5.2644,-5.3151,-5.347,-5.3883,-5.4409,-5.4409,-5.4409,-5.4409,-5.4409,-5.4409,-5.4409,-5.4409,-5.4409,-5.4424,-5.4424,-5.4424,-5.4409,-5.4409,-5.4409,-5.4409,-5.4409,-5.4409,-5.4409,-5.4409,-5.4409,-5.4458,-5.4505,-5.4538,-5.4541,-5.4583,-5.4884,-5.5095,-5.5206,-5.5233,-5.5233,-5.5347,-5.5976,-5.6491,-5.7196,-5.8206,-5.8683,-5.8988,-5.9264,-5.9502,-5.9769,-6.0102,-6.037,-6.0389,-6.0389,-6.0389,-6.0389,-6.0752,-6.1115,-6.1478,-6.1898,-6.25,-6.3217,-6.3571,-6.3752,-6.3923,-6.3951,-6.4139,-6.4396,-6.4519,-6.4468,-6.3937,-6.3372,-6.3051,-6.2839,-6.2954,-6.3031,-6.3378,-6.3589,-6.3858,-6.4185,-6.4339,-6.4801,-6.5609,-6.5878,-6.5878,-6.5878,-6.584,-6.5782,-6.5686,-6.5763,-6.5743,-6.5878,-6.5878,-6.5878,-6.5878,-6.5878,-6.5878,-4.7717,-4.7735,-4.7699,-4.8302,-4.9303,-5.0181,-5.0823,-5.1208,-5.1119,-5.1303,-5.154,-5.1769,-5.2019,-5.2287,-5.2287,-5.21,-5.1874,-5.1818,-5.1649,-5.1705,-5.1367,-5.133,-5.163,-5.2456,-5.2456,-5.3076,-5.3733,-5.4165,-5.4371,-5.4409,-5.4409,-5.4409,-5.4409,-5.4409,-5.4409,-5.4409,-5.4424,-5.4472,-5.4472,-5.4458,-5.4476,-5.4443,-5.4443,-5.4443,-5.4443,-5.4443,-5.4443,-5.4443,-5.4458,-5.4538,-5.4597,-5.4654,-5.5074,-5.5522,-5.5698,-5.5771,-5.595,-5.595,-5.6179,-5.6752,-5.7325,-5.7993,-5.8746,-5.9406,-5.9798,-5.9932,-6.0036,-6.0083,-6.0332,-6.0389,-6.0389,-6.0427,-6.0446,-6.0733,-6.1115,-6.1745,-6.2414,-6.2959,-6.3676,-6.424,-6.4479,-6.466,-6.486,-6.4934,-6.4929,-6.5429,-6.5532,-6.5519,-6.5199,-6.4416,-6.4089,-6.3762,-6.3974,-6.4128,-6.4089,-6.4282,-6.4301,-6.4493,-6.4724,-6.5051,-6.5724,-6.5878,-6.5878,-6.5878,-6.5878,-6.5878,-6.5859,-6.5878,-6.5878,-6.5878,-6.5878,-6.5878,-6.5878,-6.5878,-6.5878,-4.7699,-4.7717,-4.7801,-4.8115,-4.8543,-4.903,-4.9468,-4.9724,-4.9894,-5.0638,-5.1607,-5.1809,-5.1804,-5.1705,-5.1686,-5.148,-5.1048,-5.0954,-5.0579,-5.0372,-5.026,-5.0429,-5.0391,-5.1324,-5.1512,-5.178,-5.2569,-5.3973,-5.4349,-5.4443,-5.4409,-5.4409,-5.4443,-5.4443,-5.4443,-5.4443,-5.4476,-5.4538,-5.4571,-5.4571,-5.4622,-5.4608,-5.4608,-5.4608,-5.4608,-5.4608,-5.4608,-5.4641,-5.4673,-5.4736,-5.4791,-5.5245,-5.6016,-5.6804,-5.7202,-5.7294,-5.7103,-5.7046,-5.7237,-5.7695,-5.8326,-5.8822,-5.9453,-5.9969,-6.0293,-6.0342,-6.0361,-6.0389,-6.0389,-6.0389,-6.0446,-6.0504,-6.0656,-6.1077,-6.1631,-6.251,-6.3369,-6.4097,-6.4814,-6.5092,-6.5282,-6.549,-6.569,-6.5774,-6.5827,-6.5853,-6.5814,-6.5801,-6.5737,-6.5301,-6.5186,-6.4993,-6.5224,-6.5301,-6.5089,-6.4955,-6.4955,-6.5128,-6.5378,-6.5647,-6.5859,-6.5878,-6.5878,-6.5878,-6.5878,-6.5878,-6.5878,-6.5878,-6.5878,-6.5878,-6.5878,-6.5878,-6.5878,-6.5878,-6.5878,-4.7174,-4.7228,-4.7738,-4.813,-4.8439,-4.8677,-4.8993,-4.9295,-4.9459,-4.9978,-5.0748,-5.0842,-5.0842,-5.0842,-5.0823,-5.0767,-5.0241,-5.0166,-4.9978,-4.964,-4.9509,-4.9584,-4.9903,-5.0573,-5.1337,-5.1769,-5.3075,-5.4185,-5.4486,-5.4543,-5.4543,-5.4543,-5.4543,-5.4543,-5.4543,-5.4543,-5.4576,-5.4635,-5.4698,-5.4761,-5.481,-5.481,-5.4799,-5.4799,-5.4799,-5.4799,-5.4799,-5.4799,-5.481,-5.4901,-5.4952,-5.5541,-5.6641,-5.8077,-5.8402,-5.8058,-5.7791,-5.7886,-5.8173,-5.8631,-5.9166,-5.9434,-5.9892,-6.0313,-6.0351,-6.0389,-6.0389,-6.0389,-6.0389,-6.0389,-6.0656,-6.079,-6.1096,-6.1478,-6.2529,-6.3609,-6.4269,-6.4891,-6.5303,-6.5463,-6.5613,-6.5659,-6.5801,-6.5827,-6.5872,-6.5872,-6.5897,-6.5897,-6.5878,-6.5878,-6.5878,-6.5878,-6.5878,-6.5878,-6.5609,-6.5551,-6.5628,-6.5801,-6.5878,-6.5878,-6.5878,-6.5878,-6.5878,-6.5878,-6.5878,-6.5878,-6.5878,-6.5878,-6.5878,-6.5878,-6.5878,-6.5878,-6.5878,-6.5878,-6.5878,-4.6432,-4.6654,-4.7642,-4.8249,-4.8623,-4.8837,-4.9164,-4.9459,-4.9509,-4.9509,-4.9621,-4.964,-4.9509,-4.9509,-4.9509,-4.9509,-4.9565,-4.9696,-4.9546,-4.9527,-4.9509,-4.9509,-4.999,-5.0804,-5.1343,-5.2178,-5.3333,-5.4138,-5.4686,-5.4686,-5.4705,-5.4705,-5.4705,-5.4705,-5.4723,-5.4755,-5.4736,-5.481,-5.4882,-5.4941,-5.499,-5.496,-5.4931,-5.4931,-5.4931,-5.4931,-5.4931,-5.4931,-5.4941,-5.5095,-5.5275,-5.6052,-5.7298,-5.8926,-5.9079,-5.8869,-5.8612,-5.8555,-5.8593,-5.9071,-5.93,-5.9548,-6.0083,-6.0351,-6.037,-6.0389,-6.0389,-6.0389,-6.0389,-6.0465,-6.0752,-6.1258,-6.1554,-6.2194,-6.3399,-6.446,-6.5035,-6.5504,-6.5627,-6.5774,-6.5801,-6.5846,-6.5853,-6.5878,-6.5878,-6.5878,-6.5878,-6.5878,-6.5878,-6.5878,-6.5878,-6.5878,-6.5878,-6.5878,-6.5878,-6.582,-6.5801,-6.5878,-6.5878,-6.5878,-6.5878,-6.5878,-6.5878,-6.5878,-6.5878,-6.5878,-6.5878,-6.5878,-6.5878,-6.584,-6.5878,-6.5878,-6.5878,-6.5878,-6.5878,-4.5965,-4.6757,-4.7801,-4.8402,-4.8694,-4.8974,-4.9262,-4.9478,-4.9509,-4.9509,-4.9509,-4.9509,-4.9509,-4.9509,-4.9509,-4.9509,-4.9509,-4.9509,-4.9509,-4.9509,-4.9521,-4.9509,-4.9833,-5.0621,-5.1096,-5.2111,-5.3164,-5.3629,-5.4644,-5.4871,-5.4841,-5.486,-5.4841,-5.4871,-5.4871,-5.4871,-5.4901,-5.4941,-5.5028,-5.5085,-5.5121,-5.5094,-5.5085,-5.5066,-5.5066,-5.5066,-5.5066,-5.5085,-5.5503,-5.5693,-5.576,-5.6671,-5.8031,-5.9499,-5.9786,-5.9786,-5.9529,-5.9568,-5.9663,-5.9778,-5.9911,-5.9969,-6.037,-6.037,-6.0389,-6.0389,-6.0389,-6.0417,-6.0417,-6.0417,-6.0742,-6.1602,-6.2137,-6.3112,-6.4212,-6.49,-6.5484,-6.5655,-6.5747,-6.582,-6.5827,-6.5853,-6.5878,-6.5878,-6.5878,-6.5878,-6.5878,-6.5878,-6.5878,-6.5878,-6.5878,-6.5878,-6.5878,-6.5878,-6.5878,-6.5724,-6.5686,-6.5801,-6.5878,-6.5878,-6.5878,-6.5878,-6.5878,-6.5878,-6.5878,-6.5878,-6.5878,-6.5878,-6.5763,-6.5724,-6.584,-6.5878,-6.584,-6.5878,-6.5878]}]]